Wetterdaten: Sonntag, 25.11.2018
Datum Zeit Temp. A. Pool Temp. Temp. 5cm Feuchte A. Luftdruck Regen Wind Richtung Richtung Sonnenschein ET UV Solar Taupunkt Windchill Windben Empfang
25.11.2018 00:00 3,3 C 4,4 C 0,0 C 96 % 1014,6 hPa 0,0 l/m 0,0 km/h (0 Bft) O-SO 117 0 min 0,000 mm 0,0 UV-I 0 W/m 2,7 C 3,3 C 0,0 km/h (0 Bft) 96,00 %
25.11.2018 00:02 3,2 C 4,4 C -0,6 C 96 % 1014,6 hPa 0,0 l/m 0,0 km/h (0 Bft) O-SO 117 0 min 0,000 mm 0,0 UV-I 0 W/m 2,6 C 3,2 C 0,0 km/h (0 Bft) 95,24 %
25.11.2018 00:04 3,2 C 4,4 C 0,0 C 96 % 1014,6 hPa 0,0 l/m 0,0 km/h (0 Bft) O-SO 117 0 min 0,000 mm 0,0 UV-I 0 W/m 2,6 C 3,2 C 0,0 km/h (0 Bft) 96,00 %
25.11.2018 00:06 2,9 C 4,4 C -0,6 C 96 % 1014,7 hPa 0,0 l/m 0,0 km/h (0 Bft) O-SO 117 0 min 0,000 mm 0,0 UV-I 0 W/m 2,3 C 2,9 C 0,0 km/h (0 Bft) 91,49 %
25.11.2018 00:08 2,8 C 4,4 C -0,6 C 95 % 1014,7 hPa 0,0 l/m 0,5 km/h (0 Bft) O-SO 117 0 min 0,000 mm 0,0 UV-I 0 W/m 2,1 C 2,8 C 1,6 km/h (1 Bft) 95,12 %
25.11.2018 00:10 2,8 C 4,4 C -0,6 C 96 % 1014,7 hPa 0,0 l/m 1,7 km/h (1 Bft) O-SO 117 0 min 0,000 mm 0,0 UV-I 0 W/m 2,2 C 2,8 C 3,2 km/h (1 Bft) 94,00 %
25.11.2018 00:12 2,8 C 4,4 C 0,0 C 96 % 1014,6 hPa 0,0 l/m 2,5 km/h (1 Bft) O-SO 117 0 min 0,000 mm 0,0 UV-I 0 W/m 2,2 C 2,8 C 3,2 km/h (1 Bft) 95,74 %
25.11.2018 00:14 2,8 C 4,4 C 0,6 C 96 % 1014,7 hPa 0,0 l/m 2,9 km/h (1 Bft) O-SO 117 0 min 0,000 mm 0,0 UV-I 0 W/m 2,2 C 2,8 C 3,2 km/h (1 Bft) 94,00 %
25.11.2018 00:16 2,8 C 4,4 C 0,0 C 96 % 1014,6 hPa 0,0 l/m 3,0 km/h (1 Bft) O-SO 117 0 min 0,000 mm 0,0 UV-I 0 W/m 2,2 C 2,8 C 3,2 km/h (1 Bft) 95,74 %
25.11.2018 00:18 2,8 C 4,4 C 0,0 C 96 % 1014,6 hPa 0,0 l/m 2,6 km/h (1 Bft) O-SO 117 0 min 0,000 mm 0,0 UV-I 0 W/m 2,2 C 2,8 C 3,2 km/h (1 Bft) 94,87 %
25.11.2018 00:20 2,9 C 4,4 C 0,0 C 96 % 1014,6 hPa 0,0 l/m 3,4 km/h (1 Bft) O-SO 117 0 min 0,000 mm 0,0 UV-I 0 W/m 2,3 C 2,9 C 4,8 km/h (1 Bft) 94,74 %
25.11.2018 00:22 2,9 C 4,4 C -0,6 C 96 % 1014,5 hPa 0,0 l/m 3,3 km/h (1 Bft) O-SO 117 0 min 0,000 mm 0,0 UV-I 0 W/m 2,3 C 2,9 C 4,8 km/h (1 Bft) 96,43 %
25.11.2018 00:24 2,9 C 4,4 C -0,6 C 96 % 1014,5 hPa 0,0 l/m 3,7 km/h (1 Bft) O-SO 117 0 min 0,000 mm 0,0 UV-I 0 W/m 2,3 C 2,9 C 4,8 km/h (1 Bft) 93,10 %
25.11.2018 00:26 2,9 C 4,4 C -0,6 C 96 % 1014,5 hPa 0,0 l/m 3,5 km/h (1 Bft) O-SO 117 0 min 0,000 mm 0,0 UV-I 0 W/m 2,3 C 2,9 C 4,8 km/h (1 Bft) 96,83 %
25.11.2018 00:28 2,9 C 4,4 C 0,0 C 97 % 1014,5 hPa 0,0 l/m 2,9 km/h (1 Bft) O-SO 117 0 min 0,000 mm 0,0 UV-I 0 W/m 2,5 C 2,9 C 4,8 km/h (1 Bft) 89,36 %
25.11.2018 00:30 2,8 C 4,4 C -0,6 C 96 % 1014,5 hPa 0,0 l/m 1,9 km/h (1 Bft) O-SO 117 0 min 0,000 mm 0,0 UV-I 0 W/m 2,2 C 2,8 C 3,2 km/h (1 Bft) 94,00 %
25.11.2018 00:32 2,8 C 4,4 C -0,6 C 97 % 1014,5 hPa 0,0 l/m 1,8 km/h (1 Bft) O-SO 117 0 min 0,000 mm 0,0 UV-I 0 W/m 2,4 C 2,8 C 3,2 km/h (1 Bft) 96,23 %
25.11.2018 00:34 2,9 C 4,4 C -0,6 C 97 % 1014,4 hPa 0,0 l/m 2,7 km/h (1 Bft) O-SO 117 0 min 0,000 mm 0,0 UV-I 0 W/m 2,5 C 2,9 C 3,2 km/h (1 Bft) 89,47 %
25.11.2018 00:36 2,9 C 4,4 C -0,6 C 97 % 1014,4 hPa 0,0 l/m 2,9 km/h (1 Bft) O-SO 117 0 min 0,000 mm 0,0 UV-I 0 W/m 2,5 C 2,9 C 3,2 km/h (1 Bft) 95,74 %
25.11.2018 00:38 2,9 C 4,4 C -1,1 C 97 % 1014,4 hPa 0,0 l/m 3,0 km/h (1 Bft) O-SO 117 0 min 0,000 mm 0,0 UV-I 0 W/m 2,5 C 2,9 C 4,8 km/h (1 Bft) 93,62 %
25.11.2018 00:40 2,9 C 4,4 C -1,1 C 97 % 1014,4 hPa 0,0 l/m 2,7 km/h (1 Bft) O-SO 117 0 min 0,000 mm 0,0 UV-I 0 W/m 2,5 C 2,9 C 3,2 km/h (1 Bft) 92,00 %
25.11.2018 00:42 2,8 C 4,4 C -1,1 C 97 % 1014,4 hPa 0,0 l/m 2,5 km/h (1 Bft) O-SO 117 0 min 0,000 mm 0,0 UV-I 0 W/m 2,4 C 2,8 C 3,2 km/h (1 Bft) 94,00 %
25.11.2018 00:44 2,8 C 4,4 C -1,1 C 96 % 1014,4 hPa 0,0 l/m 2,2 km/h (1 Bft) O-SO 117 0 min 0,000 mm 0,0 UV-I 0 W/m 2,2 C 2,8 C 3,2 km/h (1 Bft) 92,00 %
25.11.2018 00:46 2,8 C 4,4 C -1,1 C 96 % 1014,4 hPa 0,0 l/m 2,4 km/h (1 Bft) O-SO 117 0 min 0,000 mm 0,0 UV-I 0 W/m 2,2 C 2,8 C 3,2 km/h (1 Bft) 95,12 %
25.11.2018 00:48 2,7 C 4,4 C -1,7 C 97 % 1014,3 hPa 0,0 l/m 2,4 km/h (1 Bft) O-SO 117 0 min 0,000 mm 0,0 UV-I 0 W/m 2,3 C 2,7 C 3,2 km/h (1 Bft) 93,62 %
25.11.2018 00:50 2,8 C 4,4 C -1,7 C 97 % 1014,3 hPa 0,0 l/m 2,0 km/h (1 Bft) O-SO 117 0 min 0,000 mm 0,0 UV-I 0 W/m 2,4 C 2,8 C 3,2 km/h (1 Bft) 100,00 %
25.11.2018 00:52 2,9 C 4,4 C -1,1 C 97 % 1014,3 hPa 0,0 l/m 2,4 km/h (1 Bft) O-SO 117 0 min 0,000 mm 0,0 UV-I 0 W/m 2,5 C 2,9 C 3,2 km/h (1 Bft) 95,12 %
25.11.2018 00:54 2,9 C 4,4 C -1,1 C 97 % 1014,3 hPa 0,0 l/m 3,3 km/h (1 Bft) O-SO 117 0 min 0,000 mm 0,0 UV-I 0 W/m 2,5 C 2,9 C 4,8 km/h (1 Bft) 98,04 %
25.11.2018 00:56 2,8 C 4,4 C -1,1 C 97 % 1014,3 hPa 0,0 l/m 3,4 km/h (1 Bft) O-SO 117 0 min 0,000 mm 0,0 UV-I 0 W/m 2,4 C 2,8 C 4,8 km/h (1 Bft) 97,73 %
25.11.2018 00:58 2,8 C 4,4 C -1,7 C 97 % 1014,3 hPa 0,0 l/m 3,3 km/h (1 Bft) O-SO 117 0 min 0,000 mm 0,0 UV-I 0 W/m 2,4 C 2,8 C 4,8 km/h (1 Bft) 97,87 %
25.11.2018 01:00 2,9 C 4,4 C -1,7 C 97 % 1014,3 hPa 0,0 l/m 3,0 km/h (1 Bft) O-SO 117 0 min 0,000 mm 0,0 UV-I 0 W/m 2,5 C 2,9 C 4,8 km/h (1 Bft) 100,00 %
25.11.2018 01:01 3,0 C 4,4 C -1,1 C 97 % 1014,3 hPa 0,0 l/m 2,7 km/h (1 Bft) O-SO 117 0 min 0,000 mm 0,0 UV-I 0 W/m 2,6 C 3,0 C 3,2 km/h (1 Bft) 100,00 %
25.11.2018 01:04 3,0 C 4,4 C -1,1 C 97 % 1014,2 hPa 0,0 l/m 2,4 km/h (1 Bft) O-SO 117 0 min 0,000 mm 0,0 UV-I 0 W/m 2,6 C 3,0 C 3,2 km/h (1 Bft) 97,87 %
25.11.2018 01:06 3,1 C 4,4 C -1,1 C 97 % 1014,1 hPa 0,0 l/m 2,7 km/h (1 Bft) O-SO 117 0 min 0,000 mm 0,0 UV-I 0 W/m 2,7 C 3,1 C 3,2 km/h (1 Bft) 98,00 %
25.11.2018 01:08 3,1 C 4,4 C -1,1 C 97 % 1014,2 hPa 0,0 l/m 2,4 km/h (1 Bft) O-SO 117 0 min 0,000 mm 0,0 UV-I 0 W/m 2,7 C 3,1 C 4,8 km/h (1 Bft) 97,87 %
25.11.2018 01:10 3,0 C 4,4 C -1,1 C 97 % 1014,1 hPa 0,0 l/m 2,2 km/h (1 Bft) O-SO 117 0 min 0,000 mm 0,0 UV-I 0 W/m 2,6 C 3,0 C 3,2 km/h (1 Bft) 100,00 %
25.11.2018 01:12 3,0 C 4,4 C -1,1 C 97 % 1014,2 hPa 0,0 l/m 2,6 km/h (1 Bft) O-SO 117 0 min 0,000 mm 0,0 UV-I 0 W/m 2,6 C 3,0 C 3,2 km/h (1 Bft) 97,87 %
25.11.2018 01:14 2,9 C 4,4 C -1,1 C 97 % 1014,2 hPa 0,0 l/m 2,6 km/h (1 Bft) O-SO 117 0 min 0,000 mm 0,0 UV-I 0 W/m 2,5 C 2,9 C 3,2 km/h (1 Bft) 97,37 %
25.11.2018 01:16 2,8 C 4,4 C -1,1 C 97 % 1014,1 hPa 0,0 l/m 2,5 km/h (1 Bft) O-SO 117 0 min 0,000 mm 0,0 UV-I 0 W/m 2,4 C 2,8 C 3,2 km/h (1 Bft) 100,00 %
25.11.2018 01:18 2,8 C 4,4 C -1,1 C 97 % 1014,0 hPa 0,0 l/m 3,0 km/h (1 Bft) O-SO 117 0 min 0,000 mm 0,0 UV-I 0 W/m 2,4 C 2,8 C 4,8 km/h (1 Bft) 100,00 %
25.11.2018 01:20 2,7 C 4,4 C -1,1 C 97 % 1014,0 hPa 0,0 l/m 3,9 km/h (1 Bft) O-SO 117 0 min 0,000 mm 0,0 UV-I 0 W/m 2,3 C 2,7 C 4,8 km/h (1 Bft) 100,00 %
25.11.2018 01:22 2,5 C 4,4 C -1,1 C 97 % 1014,0 hPa 0,0 l/m 3,8 km/h (1 Bft) O-SO 117 0 min 0,000 mm 0,0 UV-I 0 W/m 2,1 C 2,5 C 4,8 km/h (1 Bft) 100,00 %
25.11.2018 01:24 2,4 C 4,4 C -1,1 C 97 % 1014,0 hPa 0,0 l/m 3,1 km/h (1 Bft) O-SO 117 0 min 0,000 mm 0,0 UV-I 0 W/m 2,0 C 2,4 C 4,8 km/h (1 Bft) 98,00 %
25.11.2018 01:26 2,4 C 4,4 C -1,1 C 97 % 1013,9 hPa 0,0 l/m 2,6 km/h (1 Bft) O-SO 117 0 min 0,000 mm 0,0 UV-I 0 W/m 2,0 C 2,4 C 3,2 km/h (1 Bft) 100,00 %
25.11.2018 01:28 2,6 C 4,4 C -1,7 C 97 % 1013,9 hPa 0,0 l/m 1,9 km/h (1 Bft) O-SO 117 0 min 0,000 mm 0,0 UV-I 0 W/m 2,2 C 2,6 C 3,2 km/h (1 Bft) 100,00 %
25.11.2018 01:30 2,4 C 4,4 C -1,1 C 97 % 1013,8 hPa 0,0 l/m 0,8 km/h (0 Bft) O-SO 117 0 min 0,000 mm 0,0 UV-I 0 W/m 2,0 C 2,4 C 1,6 km/h (1 Bft) 100,00 %
25.11.2018 01:32 2,1 C 4,4 C -1,1 C 97 % 1013,8 hPa 0,0 l/m 1,6 km/h (1 Bft) O-SO 117 0 min 0,000 mm 0,0 UV-I 0 W/m 1,7 C 2,1 C 3,2 km/h (1 Bft) 100,00 %
25.11.2018 01:34 1,9 C 4,4 C -1,1 C 97 % 1013,7 hPa 0,0 l/m 0,9 km/h (0 Bft) O-SO 117 0 min 0,000 mm 0,0 UV-I 0 W/m 1,5 C 1,9 C 1,6 km/h (1 Bft) 100,00 %
25.11.2018 01:36 1,7 C 4,4 C -1,1 C 97 % 1013,7 hPa 0,0 l/m 1,0 km/h (0 Bft) O-SO 117 0 min 0,000 mm 0,0 UV-I 0 W/m 1,3 C 1,7 C 1,6 km/h (1 Bft) 100,00 %
25.11.2018 01:38 1,7 C 4,4 C -1,1 C 97 % 1013,7 hPa 0,0 l/m 1,2 km/h (1 Bft) O-SO 117 0 min 0,000 mm 0,0 UV-I 0 W/m 1,3 C 1,7 C 1,6 km/h (1 Bft) 98,00 %
25.11.2018 01:40 1,6 C 4,4 C -1,1 C 97 % 1013,7 hPa 0,0 l/m 0,8 km/h (0 Bft) O-SO 117 0 min 0,000 mm 0,0 UV-I 0 W/m 1,2 C 1,6 C 1,6 km/h (1 Bft) 100,00 %
25.11.2018 01:42 1,4 C 4,4 C -1,1 C 97 % 1013,6 hPa 0,0 l/m 0,7 km/h (0 Bft) O-SO 117 0 min 0,000 mm 0,0 UV-I 0 W/m 1,0 C 1,4 C 1,6 km/h (1 Bft) 100,00 %
25.11.2018 01:44 1,3 C 4,4 C -1,1 C 97 % 1013,6 hPa 0,0 l/m 2,2 km/h (1 Bft) O-SO 117 0 min 0,000 mm 0,0 UV-I 0 W/m 0,9 C 1,3 C 3,2 km/h (1 Bft) 100,00 %
25.11.2018 01:46 1,2 C 4,4 C -1,1 C 97 % 1013,6 hPa 0,0 l/m 3,3 km/h (1 Bft) O-SO 117 0 min 0,000 mm 0,0 UV-I 0 W/m 0,8 C 1,2 C 4,8 km/h (1 Bft) 100,00 %
25.11.2018 01:48 0,9 C 4,4 C -1,1 C 97 % 1013,5 hPa 0,0 l/m 3,8 km/h (1 Bft) O-SO 117 0 min 0,000 mm 0,0 UV-I 0 W/m 0,5 C 0,9 C 4,8 km/h (1 Bft) 100,00 %
25.11.2018 01:50 0,8 C 4,4 C -1,1 C 97 % 1013,5 hPa 0,0 l/m 4,2 km/h (1 Bft) O-SO 114 0 min 0,000 mm 0,0 UV-I 0 W/m 0,4 C 0,8 C 4,8 km/h (1 Bft) 97,56 %
25.11.2018 01:52 0,8 C 4,4 C -1,7 C 97 % 1013,5 hPa 0,0 l/m 4,1 km/h (1 Bft) O-SO 114 0 min 0,000 mm 0,0 UV-I 0 W/m 0,4 C 0,8 C 6,4 km/h (2 Bft) 98,00 %
25.11.2018 01:54 0,8 C 4,4 C -1,7 C 97 % 1013,5 hPa 0,0 l/m 2,3 km/h (1 Bft) O-SO 114 0 min 0,000 mm 0,0 UV-I 0 W/m 0,4 C 0,8 C 4,8 km/h (1 Bft) 95,12 %
25.11.2018 01:56 0,9 C 4,4 C -1,7 C 97 % 1013,5 hPa 0,0 l/m 1,5 km/h (1 Bft) O-SO 114 0 min 0,000 mm 0,0 UV-I 0 W/m 0,5 C 0,9 C 3,2 km/h (1 Bft) 96,23 %
25.11.2018 01:58 0,8 C 4,4 C -1,1 C 97 % 1013,6 hPa 0,0 l/m 1,8 km/h (1 Bft) O-SO 114 0 min 0,000 mm 0,0 UV-I 0 W/m 0,4 C 0,8 C 3,2 km/h (1 Bft) 96,00 %
25.11.2018 02:00 0,6 C 4,4 C -1,1 C 97 % 1013,6 hPa 0,0 l/m 2,8 km/h (1 Bft) O-SO 114 0 min 0,000 mm 0,0 UV-I 0 W/m 0,2 C 0,6 C 3,2 km/h (1 Bft) 97,87 %
25.11.2018 02:02 0,5 C 4,4 C -1,1 C 97 % 1013,6 hPa 0,0 l/m 2,2 km/h (1 Bft) O-SO 119 0 min 0,000 mm 0,0 UV-I 0 W/m 0,1 C 0,5 C 3,2 km/h (1 Bft) 97,87 %
25.11.2018 02:04 0,4 C 4,4 C -1,1 C 97 % 1013,7 hPa 0,0 l/m 3,7 km/h (1 Bft) SW 225 0 min 0,000 mm 0,0 UV-I 0 W/m -0,0 C 0,4 C 4,8 km/h (1 Bft) 97,56 %
25.11.2018 02:06 0,4 C 4,4 C -1,1 C 97 % 1013,7 hPa 0,0 l/m 3,7 km/h (1 Bft) SW 225 0 min 0,000 mm 0,0 UV-I 0 W/m -0,0 C 0,4 C 4,8 km/h (1 Bft) 98,00 %
25.11.2018 02:08 0,7 C 4,4 C -1,1 C 97 % 1013,7 hPa 0,0 l/m 2,5 km/h (1 Bft) SW 225 0 min 0,000 mm 0,0 UV-I 0 W/m 0,3 C 0,7 C 3,2 km/h (1 Bft) 94,34 %
25.11.2018 02:10 0,7 C 4,4 C -1,1 C 97 % 1013,7 hPa 0,0 l/m 1,2 km/h (1 Bft) SW 225 0 min 0,000 mm 0,0 UV-I 0 W/m 0,3 C 0,7 C 3,2 km/h (1 Bft) 97,14 %
25.11.2018 02:12 0,5 C 4,4 C -1,1 C 97 % 1013,6 hPa 0,0 l/m 0,1 km/h (0 Bft) SW 225 0 min 0,000 mm 0,0 UV-I 0 W/m 0,1 C 0,5 C 1,6 km/h (1 Bft) 100,00 %
25.11.2018 02:14 0,2 C 4,4 C -1,1 C 97 % 1013,6 hPa 0,0 l/m 1,1 km/h (1 Bft) SW 225 0 min 0,000 mm 0,0 UV-I 0 W/m -0,2 C 0,2 C 3,2 km/h (1 Bft) 100,00 %
25.11.2018 02:16 0,0 C 4,4 C -1,1 C 97 % 1013,6 hPa 0,0 l/m 2,0 km/h (1 Bft) SW 225 0 min 0,000 mm 0,0 UV-I 0 W/m -0,4 C 0,0 C 3,2 km/h (1 Bft) 98,00 %
25.11.2018 02:18 -0,1 C 4,4 C -1,1 C 97 % 1013,6 hPa 0,0 l/m 2,9 km/h (1 Bft) SW 224 0 min 0,000 mm 0,0 UV-I 0 W/m -0,5 C -0,1 C 4,8 km/h (1 Bft) 100,00 %
25.11.2018 02:20 0,0 C 4,4 C -1,1 C 97 % 1013,6 hPa 0,0 l/m 3,7 km/h (1 Bft) SW 224 0 min 0,000 mm 0,0 UV-I 0 W/m -0,4 C 0,0 C 4,8 km/h (1 Bft) 100,00 %
25.11.2018 02:22 0,3 C 4,4 C -0,6 C 97 % 1013,6 hPa 0,0 l/m 3,5 km/h (1 Bft) SW 223 0 min 0,000 mm 0,0 UV-I 0 W/m -0,1 C 0,3 C 4,8 km/h (1 Bft) 97,44 %
25.11.2018 02:24 0,4 C 4,4 C -0,6 C 97 % 1013,6 hPa 0,0 l/m 3,0 km/h (1 Bft) SW 223 0 min 0,000 mm 0,0 UV-I 0 W/m -0,0 C 0,4 C 4,8 km/h (1 Bft) 100,00 %
25.11.2018 02:26 0,5 C 4,4 C -0,6 C 97 % 1013,6 hPa 0,0 l/m 2,8 km/h (1 Bft) SW 223 0 min 0,000 mm 0,0 UV-I 0 W/m 0,1 C 0,5 C 4,8 km/h (1 Bft) 96,23 %
25.11.2018 02:28 0,7 C 4,4 C -0,6 C 97 % 1013,6 hPa 0,0 l/m 2,9 km/h (1 Bft) S-SW 211 0 min 0,000 mm 0,0 UV-I 0 W/m 0,3 C 0,7 C 3,2 km/h (1 Bft) 97,87 %
25.11.2018 02:30 0,8 C 4,4 C -0,6 C 97 % 1013,6 hPa 0,0 l/m 4,6 km/h (1 Bft) S-SW 211 0 min 0,000 mm 0,0 UV-I 0 W/m 0,4 C 0,8 C 6,4 km/h (2 Bft) 97,37 %
25.11.2018 02:32 0,8 C 4,4 C 0,0 C 97 % 1013,5 hPa 0,0 l/m 3,3 km/h (1 Bft) S-SW 211 0 min 0,000 mm 0,0 UV-I 0 W/m 0,4 C 0,8 C 4,8 km/h (1 Bft) 97,87 %
25.11.2018 02:34 0,7 C 4,4 C -0,6 C 97 % 1013,6 hPa 0,0 l/m 2,6 km/h (1 Bft) S-SW 211 0 min 0,000 mm 0,0 UV-I 0 W/m 0,3 C 0,7 C 3,2 km/h (1 Bft) 93,62 %
25.11.2018 02:36 0,5 C 4,4 C -0,6 C 97 % 1013,6 hPa 0,0 l/m 1,0 km/h (0 Bft) S-SW 211 0 min 0,000 mm 0,0 UV-I 0 W/m 0,1 C 0,5 C 1,6 km/h (1 Bft) 98,00 %
25.11.2018 02:38 0,4 C 4,4 C -0,6 C 97 % 1013,6 hPa 0,0 l/m 1,5 km/h (1 Bft) S-SW 211 0 min 0,000 mm 0,0 UV-I 0 W/m -0,0 C 0,4 C 3,2 km/h (1 Bft) 96,00 %
25.11.2018 02:40 0,6 C 4,4 C -0,6 C 97 % 1013,6 hPa 0,0 l/m 0,9 km/h (0 Bft) S-SW 211 0 min 0,000 mm 0,0 UV-I 0 W/m 0,2 C 0,6 C 1,6 km/h (1 Bft) 95,74 %
25.11.2018 02:42 0,6 C 4,4 C -0,6 C 97 % 1013,6 hPa 0,0 l/m 1,7 km/h (1 Bft) S-SW 211 0 min 0,000 mm 0,0 UV-I 0 W/m 0,2 C 0,6 C 3,2 km/h (1 Bft) 97,37 %
25.11.2018 02:44 0,6 C 4,4 C 0,0 C 97 % 1013,6 hPa 0,0 l/m 1,7 km/h (1 Bft) S-SW 211 0 min 0,000 mm 0,0 UV-I 0 W/m 0,2 C 0,6 C 3,2 km/h (1 Bft) 97,87 %
25.11.2018 02:46 0,4 C 4,4 C 0,0 C 97 % 1013,6 hPa 0,0 l/m 1,6 km/h (1 Bft) S-SW 211 0 min 0,000 mm 0,0 UV-I 0 W/m -0,0 C 0,4 C 3,2 km/h (1 Bft) 95,74 %
25.11.2018 02:48 0,3 C 4,4 C 0,0 C 97 % 1013,5 hPa 0,0 l/m 2,4 km/h (1 Bft) S-SW 211 0 min 0,000 mm 0,0 UV-I 0 W/m -0,1 C 0,3 C 3,2 km/h (1 Bft) 98,11 %
25.11.2018 02:50 0,3 C 4,4 C 0,0 C 97 % 1013,4 hPa 0,0 l/m 2,4 km/h (1 Bft) S-SW 211 0 min 0,000 mm 0,0 UV-I 0 W/m -0,1 C 0,3 C 3,2 km/h (1 Bft) 97,62 %
25.11.2018 02:52 0,3 C 4,4 C 0,0 C 97 % 1013,4 hPa 0,0 l/m 2,3 km/h (1 Bft) S-SW 211 0 min 0,000 mm 0,0 UV-I 0 W/m -0,1 C 0,3 C 3,2 km/h (1 Bft) 97,96 %
25.11.2018 02:54 0,3 C 4,4 C 0,6 C 97 % 1013,4 hPa 0,0 l/m 2,4 km/h (1 Bft) S-SW 211 0 min 0,000 mm 0,0 UV-I 0 W/m -0,1 C 0,3 C 3,2 km/h (1 Bft) 98,11 %
25.11.2018 02:56 0,4 C 4,4 C 0,6 C 97 % 1013,4 hPa 0,0 l/m 2,6 km/h (1 Bft) S-SW 211 0 min 0,000 mm 0,0 UV-I 0 W/m -0,0 C 0,4 C 3,2 km/h (1 Bft) 97,87 %
25.11.2018 02:58 0,4 C 4,4 C 0,6 C 97 % 1013,4 hPa 0,0 l/m 3,3 km/h (1 Bft) S-SW 211 0 min 0,000 mm 0,0 UV-I 0 W/m -0,0 C 0,4 C 4,8 km/h (1 Bft) 95,83 %
25.11.2018 03:00 0,4 C 4,4 C 0,6 C 97 % 1013,4 hPa 0,0 l/m 2,4 km/h (1 Bft) S-SW 211 0 min 0,000 mm 0,0 UV-I 0 W/m -0,0 C 0,4 C 3,2 km/h (1 Bft) 95,74 %
25.11.2018 03:02 0,4 C 4,4 C 0,6 C 97 % 1013,4 hPa 0,0 l/m 2,8 km/h (1 Bft) S-SW 211 0 min 0,000 mm 0,0 UV-I 0 W/m -0,0 C 0,4 C 3,2 km/h (1 Bft) 97,87 %
25.11.2018 03:04 0,4 C 4,4 C 0,6 C 97 % 1013,4 hPa 0,0 l/m 2,9 km/h (1 Bft) S-SW 211 0 min 0,000 mm 0,0 UV-I 0 W/m -0,0 C 0,4 C 4,8 km/h (1 Bft) 92,68 %
25.11.2018 03:06 0,5 C 4,4 C 0,6 C 97 % 1013,3 hPa 0,0 l/m 3,1 km/h (1 Bft) S-SW 211 0 min 0,000 mm 0,0 UV-I 0 W/m 0,1 C 0,5 C 4,8 km/h (1 Bft) 98,00 %
25.11.2018 03:08 0,6 C 4,4 C 0,6 C 97 % 1013,3 hPa 0,0 l/m 2,6 km/h (1 Bft) S-SW 211 0 min 0,000 mm 0,0 UV-I 0 W/m 0,2 C 0,6 C 3,2 km/h (1 Bft) 97,56 %
25.11.2018 03:10 0,6 C 4,4 C 0,6 C 97 % 1013,3 hPa 0,0 l/m 2,8 km/h (1 Bft) S-SW 211 0 min 0,000 mm 0,0 UV-I 0 W/m 0,2 C 0,6 C 3,2 km/h (1 Bft) 94,00 %
25.11.2018 03:12 0,7 C 4,4 C 0,6 C 97 % 1013,3 hPa 0,0 l/m 1,8 km/h (1 Bft) S-SW 211 0 min 0,000 mm 0,0 UV-I 0 W/m 0,3 C 0,7 C 3,2 km/h (1 Bft) 97,87 %
25.11.2018 03:14 0,7 C 4,4 C 0,6 C 97 % 1013,3 hPa 0,0 l/m 1,6 km/h (1 Bft) S-SW 211 0 min 0,000 mm 0,0 UV-I 0 W/m 0,3 C 0,7 C 3,2 km/h (1 Bft) 95,74 %
25.11.2018 03:16 0,8 C 4,4 C 1,1 C 97 % 1013,2 hPa 0,0 l/m 2,4 km/h (1 Bft) S-SW 211 0 min 0,000 mm 0,0 UV-I 0 W/m 0,4 C 0,8 C 3,2 km/h (1 Bft) 98,00 %
25.11.2018 03:18 0,9 C 4,4 C 1,1 C 98 % 1013,2 hPa 0,0 l/m 3,2 km/h (1 Bft) SO 142 0 min 0,000 mm 0,0 UV-I 0 W/m 0,6 C 0,9 C 4,8 km/h (1 Bft) 97,37 %
25.11.2018 03:20 1,1 C 4,4 C 1,1 C 97 % 1013,2 hPa 0,0 l/m 2,6 km/h (1 Bft) SO 142 0 min 0,000 mm 0,0 UV-I 0 W/m 0,7 C 1,1 C 3,2 km/h (1 Bft) 95,45 %
25.11.2018 03:22 1,1 C 4,4 C 1,1 C 97 % 1013,2 hPa 0,0 l/m 2,0 km/h (1 Bft) SO 142 0 min 0,000 mm 0,0 UV-I 0 W/m 0,7 C 1,1 C 3,2 km/h (1 Bft) 98,11 %
25.11.2018 03:24 1,2 C 4,4 C 1,1 C 98 % 1013,2 hPa 0,0 l/m 1,6 km/h (1 Bft) SO 142 0 min 0,000 mm 0,0 UV-I 0 W/m 0,9 C 1,2 C 3,2 km/h (1 Bft) 98,00 %
25.11.2018 03:26 1,4 C 4,4 C 1,1 C 98 % 1013,2 hPa 0,0 l/m 3,0 km/h (1 Bft) SO 142 0 min 0,000 mm 0,0 UV-I 0 W/m 1,1 C 1,4 C 4,8 km/h (1 Bft) 100,00 %
25.11.2018 03:28 1,5 C 4,4 C 1,1 C 98 % 1013,2 hPa 0,0 l/m 2,6 km/h (1 Bft) SO 141 0 min 0,000 mm 0,0 UV-I 0 W/m 1,2 C 1,5 C 4,8 km/h (1 Bft) 100,00 %
25.11.2018 03:30 1,6 C 4,4 C 1,1 C 98 % 1013,2 hPa 0,0 l/m 2,8 km/h (1 Bft) SO 141 0 min 0,000 mm 0,0 UV-I 0 W/m 1,3 C 1,6 C 4,8 km/h (1 Bft) 100,00 %
25.11.2018 03:32 1,7 C 4,4 C 1,7 C 98 % 1013,2 hPa 0,0 l/m 3,5 km/h (1 Bft) SO 141 0 min 0,000 mm 0,0 UV-I 0 W/m 1,4 C 1,7 C 4,8 km/h (1 Bft) 97,78 %
25.11.2018 03:34 1,8 C 4,4 C 1,7 C 98 % 1013,2 hPa 0,0 l/m 3,4 km/h (1 Bft) SO 141 0 min 0,000 mm 0,0 UV-I 0 W/m 1,5 C 1,8 C 4,8 km/h (1 Bft) 97,37 %
25.11.2018 03:36 1,8 C 4,4 C 1,7 C 98 % 1013,1 hPa 0,0 l/m 1,6 km/h (1 Bft) SO 141 0 min 0,000 mm 0,0 UV-I 0 W/m 1,5 C 1,8 C 3,2 km/h (1 Bft) 96,77 %
25.11.2018 03:38 1,8 C 4,4 C 1,7 C 98 % 1013,1 hPa 0,0 l/m 1,4 km/h (1 Bft) SO 141 0 min 0,000 mm 0,0 UV-I 0 W/m 1,5 C 1,8 C 3,2 km/h (1 Bft) 95,74 %
25.11.2018 03:40 1,7 C 4,4 C 1,7 C 98 % 1013,1 hPa 0,0 l/m 1,6 km/h (1 Bft) SO 141 0 min 0,000 mm 0,0 UV-I 0 W/m 1,4 C 1,7 C 3,2 km/h (1 Bft) 97,37 %
25.11.2018 03:42 1,7 C 4,4 C 1,7 C 98 % 1013,0 hPa 0,0 l/m 0,6 km/h (0 Bft) SO 141 0 min 0,000 mm 0,0 UV-I 0 W/m 1,4 C 1,7 C 3,2 km/h (1 Bft) 98,11 %
25.11.2018 03:44 1,7 C 4,4 C 1,7 C 98 % 1013,1 hPa 0,0 l/m 0,5 km/h (0 Bft) SO 141 0 min 0,000 mm 0,0 UV-I 0 W/m 1,4 C 1,7 C 1,6 km/h (1 Bft) 100,00 %
25.11.2018 03:46 1,6 C 4,4 C 1,7 C 98 % 1013,1 hPa 0,0 l/m 0,4 km/h (0 Bft) SO 141 0 min 0,000 mm 0,0 UV-I 0 W/m 1,3 C 1,6 C 1,6 km/h (1 Bft) 97,37 %
25.11.2018 03:48 1,7 C 4,4 C 1,7 C 98 % 1013,1 hPa 0,0 l/m 0,1 km/h (0 Bft) SO 141 0 min 0,000 mm 0,0 UV-I 0 W/m 1,4 C 1,7 C 1,6 km/h (1 Bft) 98,00 %
25.11.2018 03:50 1,6 C 4,4 C 1,7 C 98 % 1013,0 hPa 0,0 l/m 0,2 km/h (0 Bft) SO 141 0 min 0,000 mm 0,0 UV-I 0 W/m 1,3 C 1,6 C 1,6 km/h (1 Bft) 97,87 %
25.11.2018 03:52 1,4 C 4,4 C 1,1 C 98 % 1013,0 hPa 0,0 l/m 0,4 km/h (0 Bft) SO 141 0 min 0,000 mm 0,0 UV-I 0 W/m 1,1 C 1,4 C 1,6 km/h (1 Bft) 95,74 %
25.11.2018 03:54 1,4 C 4,4 C 1,1 C 98 % 1013,0 hPa 0,0 l/m 0,5 km/h (0 Bft) SO 141 0 min 0,000 mm 0,0 UV-I 0 W/m 1,1 C 1,4 C 1,6 km/h (1 Bft) 97,56 %
25.11.2018 03:56 1,4 C 4,4 C 1,1 C 98 % 1013,0 hPa 0,0 l/m 0,8 km/h (0 Bft) SO 141 0 min 0,000 mm 0,0 UV-I 0 W/m 1,1 C 1,4 C 1,6 km/h (1 Bft) 96,23 %
25.11.2018 03:58 1,3 C 4,4 C 1,1 C 98 % 1013,0 hPa 0,0 l/m 0,9 km/h (0 Bft) SO 141 0 min 0,000 mm 0,0 UV-I 0 W/m 1,0 C 1,3 C 1,6 km/h (1 Bft) 95,74 %
25.11.2018 04:00 1,3 C 4,4 C 1,1 C 98 % 1013,0 hPa 0,0 l/m 1,0 km/h (0 Bft) SO 141 0 min 0,000 mm 0,0 UV-I 0 W/m 1,0 C 1,3 C 1,6 km/h (1 Bft) 97,87 %
25.11.2018 04:02 1,3 C 4,4 C 1,7 C 98 % 1012,9 hPa 0,0 l/m 0,0 km/h (0 Bft) SO 141 0 min 0,000 mm 0,0 UV-I 0 W/m 1,0 C 1,3 C 0,0 km/h (0 Bft) 93,10 %
25.11.2018 04:04 1,4 C 4,4 C 1,7 C 98 % 1013,0 hPa 0,0 l/m 0,0 km/h (0 Bft) SO 141 0 min 0,000 mm 0,0 UV-I 0 W/m 1,1 C 1,4 C 0,0 km/h (0 Bft) 95,74 %
25.11.2018 04:06 1,4 C 4,4 C 1,7 C 98 % 1012,9 hPa 0,0 l/m 0,1 km/h (0 Bft) SO 141 0 min 0,000 mm 0,0 UV-I 0 W/m 1,1 C 1,4 C 1,6 km/h (1 Bft) 97,44 %
25.11.2018 04:08 1,4 C 4,4 C 1,7 C 98 % 1012,9 hPa 0,0 l/m 0,2 km/h (0 Bft) SO 141 0 min 0,000 mm 0,0 UV-I 0 W/m 1,1 C 1,4 C 1,6 km/h (1 Bft) 98,36 %
25.11.2018 04:10 1,4 C 4,4 C 1,7 C 98 % 1012,9 hPa 0,0 l/m 0,0 km/h (0 Bft) SO 141 0 min 0,000 mm 0,0 UV-I 0 W/m 1,1 C 1,4 C 0,0 km/h (0 Bft) 97,87 %
25.11.2018 04:12 1,4 C 4,4 C 1,7 C 98 % 1012,9 hPa 0,0 l/m 0,7 km/h (0 Bft) SO 141 0 min 0,000 mm 0,0 UV-I 0 W/m 1,1 C 1,4 C 1,6 km/h (1 Bft) 97,22 %
25.11.2018 04:14 1,5 C 4,4 C 1,7 C 98 % 1012,9 hPa 0,0 l/m 1,0 km/h (0 Bft) SO 141 0 min 0,000 mm 0,0 UV-I 0 W/m 1,2 C 1,5 C 3,2 km/h (1 Bft) 98,00 %
25.11.2018 04:16 1,5 C 4,4 C 1,7 C 98 % 1012,9 hPa 0,0 l/m 2,3 km/h (1 Bft) SO 142 0 min 0,000 mm 0,0 UV-I 0 W/m 1,2 C 1,5 C 3,2 km/h (1 Bft) 100,00 %
25.11.2018 04:18 1,5 C 4,4 C 1,7 C 98 % 1012,9 hPa 0,0 l/m 2,9 km/h (1 Bft) SO 146 0 min 0,000 mm 0,0 UV-I 0 W/m 1,2 C 1,5 C 4,8 km/h (1 Bft) 98,11 %
25.11.2018 04:20 1,4 C 4,4 C 1,7 C 98 % 1012,9 hPa 0,0 l/m 2,4 km/h (1 Bft) SO 146 0 min 0,000 mm 0,0 UV-I 0 W/m 1,1 C 1,4 C 4,8 km/h (1 Bft) 95,12 %
25.11.2018 04:22 1,3 C 4,4 C 1,7 C 98 % 1012,9 hPa 0,0 l/m 2,5 km/h (1 Bft) SO 146 0 min 0,000 mm 0,0 UV-I 0 W/m 1,0 C 1,3 C 3,2 km/h (1 Bft) 92,00 %
25.11.2018 04:24 1,3 C 4,4 C 1,7 C 98 % 1012,8 hPa 0,0 l/m 2,7 km/h (1 Bft) SO 146 0 min 0,000 mm 0,0 UV-I 0 W/m 1,0 C 1,3 C 4,8 km/h (1 Bft) 94,64 %
25.11.2018 04:26 1,3 C 4,4 C 1,7 C 98 % 1012,8 hPa 0,0 l/m 3,3 km/h (1 Bft) SO 146 0 min 0,000 mm 0,0 UV-I 0 W/m 1,0 C 1,3 C 4,8 km/h (1 Bft) 94,29 %
25.11.2018 04:28 1,2 C 4,4 C 1,7 C 98 % 1012,8 hPa 0,0 l/m 3,4 km/h (1 Bft) S 190 0 min 0,000 mm 0,0 UV-I 0 W/m 0,9 C 1,2 C 4,8 km/h (1 Bft) 96,00 %
25.11.2018 04:30 1,2 C 4,4 C 1,7 C 98 % 1012,8 hPa 0,0 l/m 2,6 km/h (1 Bft) S 190 0 min 0,000 mm 0,0 UV-I 0 W/m 0,9 C 1,2 C 3,2 km/h (1 Bft) 94,00 %
25.11.2018 04:32 1,2 C 4,4 C 1,7 C 98 % 1012,8 hPa 0,0 l/m 2,8 km/h (1 Bft) S-SW 193 0 min 0,000 mm 0,0 UV-I 0 W/m 0,9 C 1,2 C 4,8 km/h (1 Bft) 95,74 %
25.11.2018 04:34 1,3 C 4,4 C 1,7 C 98 % 1012,8 hPa 0,0 l/m 2,8 km/h (1 Bft) S-SW 193 0 min 0,000 mm 0,0 UV-I 0 W/m 1,0 C 1,3 C 4,8 km/h (1 Bft) 94,29 %
25.11.2018 04:36 1,3 C 4,4 C 1,7 C 98 % 1012,7 hPa 0,0 l/m 2,7 km/h (1 Bft) S-SW 193 0 min 0,000 mm 0,0 UV-I 0 W/m 1,0 C 1,3 C 4,8 km/h (1 Bft) 96,00 %
25.11.2018 04:38 1,3 C 4,4 C 1,7 C 98 % 1012,7 hPa 0,0 l/m 1,2 km/h (1 Bft) S-SW 193 0 min 0,000 mm 0,0 UV-I 0 W/m 1,0 C 1,3 C 3,2 km/h (1 Bft) 96,00 %
25.11.2018 04:40 1,3 C 4,4 C 1,7 C 98 % 1012,7 hPa 0,0 l/m 1,4 km/h (1 Bft) S-SW 193 0 min 0,000 mm 0,0 UV-I 0 W/m 1,0 C 1,3 C 3,2 km/h (1 Bft) 95,45 %
25.11.2018 04:42 1,4 C 4,4 C 1,7 C 98 % 1012,7 hPa 0,0 l/m 1,1 km/h (1 Bft) S-SW 193 0 min 0,000 mm 0,0 UV-I 0 W/m 1,1 C 1,4 C 1,6 km/h (1 Bft) 97,87 %
25.11.2018 04:44 1,3 C 4,4 C 1,7 C 98 % 1012,7 hPa 0,0 l/m 0,7 km/h (0 Bft) S-SW 193 0 min 0,000 mm 0,0 UV-I 0 W/m 1,0 C 1,3 C 1,6 km/h (1 Bft) 97,22 %
25.11.2018 04:46 1,3 C 4,4 C 1,7 C 98 % 1012,6 hPa 0,0 l/m 0,2 km/h (0 Bft) S-SW 193 0 min 0,000 mm 0,0 UV-I 0 W/m 1,0 C 1,3 C 1,6 km/h (1 Bft) 96,88 %
25.11.2018 04:48 1,4 C 4,4 C 1,7 C 98 % 1012,6 hPa 0,0 l/m 0,0 km/h (0 Bft) S-SW 193 0 min 0,000 mm 0,0 UV-I 0 W/m 1,1 C 1,4 C 0,0 km/h (0 Bft) 97,87 %
25.11.2018 04:50 1,4 C 4,4 C 1,7 C 98 % 1012,6 hPa 0,0 l/m 0,0 km/h (0 Bft) S-SW 193 0 min 0,000 mm 0,0 UV-I 0 W/m 1,1 C 1,4 C 0,0 km/h (0 Bft) 100,00 %
25.11.2018 04:52 1,4 C 4,4 C 1,7 C 98 % 1012,6 hPa 0,0 l/m 0,0 km/h (0 Bft) S-SW 193 0 min 0,000 mm 0,0 UV-I 0 W/m 1,1 C 1,4 C 0,0 km/h (0 Bft) 97,44 %
25.11.2018 04:54 1,4 C 4,4 C 1,7 C 98 % 1012,6 hPa 0,0 l/m 0,0 km/h (0 Bft) S-SW 193 0 min 0,000 mm 0,0 UV-I 0 W/m 1,1 C 1,4 C 0,0 km/h (0 Bft) 98,00 %
25.11.2018 04:56 1,5 C 4,4 C 1,7 C 98 % 1012,6 hPa 0,0 l/m 0,0 km/h (0 Bft) S-SW 193 0 min 0,000 mm 0,0 UV-I 0 W/m 1,2 C 1,5 C 0,0 km/h (0 Bft) 97,87 %
25.11.2018 04:58 1,5 C 4,4 C 1,7 C 98 % 1012,5 hPa 0,0 l/m 0,2 km/h (0 Bft) S-SW 193 0 min 0,000 mm 0,0 UV-I 0 W/m 1,2 C 1,5 C 1,6 km/h (1 Bft) 95,74 %
25.11.2018 05:00 1,5 C 4,4 C 1,7 C 98 % 1012,5 hPa 0,0 l/m 1,0 km/h (0 Bft) S-SW 193 0 min 0,000 mm 0,0 UV-I 0 W/m 1,2 C 1,5 C 1,6 km/h (1 Bft) 97,87 %
25.11.2018 05:02 1,5 C 4,4 C 2,2 C 98 % 1012,5 hPa 0,0 l/m 1,4 km/h (1 Bft) S-SW 193 0 min 0,000 mm 0,0 UV-I 0 W/m 1,2 C 1,5 C 3,2 km/h (1 Bft) 95,74 %
25.11.2018 05:04 1,5 C 4,4 C 1,7 C 98 % 1012,4 hPa 0,0 l/m 1,1 km/h (1 Bft) S-SW 193 0 min 0,000 mm 0,0 UV-I 0 W/m 1,2 C 1,5 C 1,6 km/h (1 Bft) 95,74 %
25.11.2018 05:06 1,5 C 4,4 C 1,7 C 98 % 1012,4 hPa 0,0 l/m 1,4 km/h (1 Bft) S-SW 193 0 min 0,000 mm 0,0 UV-I 0 W/m 1,2 C 1,5 C 3,2 km/h (1 Bft) 98,00 %
25.11.2018 05:08 1,5 C 4,4 C 1,7 C 98 % 1012,4 hPa 0,0 l/m 0,3 km/h (0 Bft) S-SW 193 0 min 0,000 mm 0,0 UV-I 0 W/m 1,2 C 1,5 C 1,6 km/h (1 Bft) 97,56 %
25.11.2018 05:10 1,5 C 4,4 C 1,7 C 98 % 1012,4 hPa 0,0 l/m 0,0 km/h (0 Bft) S-SW 193 0 min 0,000 mm 0,0 UV-I 0 W/m 1,2 C 1,5 C 0,0 km/h (0 Bft) 98,00 %
25.11.2018 05:12 1,5 C 4,4 C 1,7 C 98 % 1012,4 hPa 0,0 l/m 0,0 km/h (0 Bft) S-SW 193 0 min 0,000 mm 0,0 UV-I 0 W/m 1,2 C 1,5 C 0,0 km/h (0 Bft) 97,87 %
25.11.2018 05:14 1,5 C 4,4 C 1,7 C 98 % 1012,4 hPa 0,0 l/m 0,2 km/h (0 Bft) S-SW 193 0 min 0,000 mm 0,0 UV-I 0 W/m 1,2 C 1,5 C 1,6 km/h (1 Bft) 100,00 %
25.11.2018 05:16 1,5 C 4,4 C 1,7 C 98 % 1012,3 hPa 0,0 l/m 0,0 km/h (0 Bft) S-SW 193 0 min 0,000 mm 0,0 UV-I 0 W/m 1,2 C 1,5 C 0,0 km/h (0 Bft) 98,08 %
25.11.2018 05:18 1,5 C 4,4 C 1,7 C 98 % 1012,4 hPa 0,0 l/m 0,0 km/h (0 Bft) S-SW 193 0 min 0,000 mm 0,0 UV-I 0 W/m 1,2 C 1,5 C 0,0 km/h (0 Bft) 100,00 %
25.11.2018 05:20 1,5 C 4,4 C 1,7 C 98 % 1012,4 hPa 0,0 l/m 0,0 km/h (0 Bft) S-SW 193 0 min 0,000 mm 0,0 UV-I 0 W/m 1,2 C 1,5 C 0,0 km/h (0 Bft) 97,87 %
25.11.2018 05:22 1,5 C 4,4 C 1,7 C 98 % 1012,4 hPa 0,0 l/m 0,0 km/h (0 Bft) S-SW 193 0 min 0,000 mm 0,0 UV-I 0 W/m 1,2 C 1,5 C 0,0 km/h (0 Bft) 97,56 %
25.11.2018 05:24 1,5 C 4,4 C 1,7 C 98 % 1012,4 hPa 0,0 l/m 0,0 km/h (0 Bft) S-SW 193 0 min 0,000 mm 0,0 UV-I 0 W/m 1,2 C 1,5 C 0,0 km/h (0 Bft) 97,87 %
25.11.2018 05:26 1,6 C 4,4 C 1,7 C 98 % 1012,4 hPa 0,0 l/m 0,1 km/h (0 Bft) S-SW 193 0 min 0,000 mm 0,0 UV-I 0 W/m 1,3 C 1,6 C 1,6 km/h (1 Bft) 97,92 %
25.11.2018 05:28 1,6 C 4,4 C 1,7 C 98 % 1012,3 hPa 0,0 l/m 1,3 km/h (1 Bft) S-SW 193 0 min 0,000 mm 0,0 UV-I 0 W/m 1,3 C 1,6 C 1,6 km/h (1 Bft) 100,00 %
25.11.2018 05:30 1,6 C 4,4 C 1,7 C 98 % 1012,3 hPa 0,0 l/m 0,9 km/h (0 Bft) S-SW 193 0 min 0,000 mm 0,0 UV-I 0 W/m 1,3 C 1,6 C 1,6 km/h (1 Bft) 97,22 %
25.11.2018 05:32 1,6 C 4,4 C 1,7 C 98 % 1012,4 hPa 0,0 l/m 0,8 km/h (0 Bft) S-SW 193 0 min 0,000 mm 0,0 UV-I 0 W/m 1,3 C 1,6 C 1,6 km/h (1 Bft) 100,00 %
25.11.2018 05:34 1,6 C 4,4 C 1,7 C 98 % 1012,3 hPa 0,0 l/m 0,9 km/h (0 Bft) S-SW 193 0 min 0,000 mm 0,0 UV-I 0 W/m 1,3 C 1,6 C 1,6 km/h (1 Bft) 100,00 %
25.11.2018 05:36 1,6 C 4,4 C 1,7 C 98 % 1012,3 hPa 0,0 l/m 1,3 km/h (1 Bft) S-SW 193 0 min 0,000 mm 0,0 UV-I 0 W/m 1,3 C 1,6 C 3,2 km/h (1 Bft) 100,00 %
25.11.2018 05:38 1,6 C 4,4 C 1,7 C 98 % 1012,3 hPa 0,0 l/m 2,4 km/h (1 Bft) S-SW 193 0 min 0,000 mm 0,0 UV-I 0 W/m 1,3 C 1,6 C 3,2 km/h (1 Bft) 97,56 %
25.11.2018 05:40 1,6 C 4,4 C 1,7 C 98 % 1012,3 hPa 0,0 l/m 4,4 km/h (1 Bft) S-SO 165 0 min 0,000 mm 0,0 UV-I 0 W/m 1,3 C 1,6 C 6,4 km/h (2 Bft) 96,00 %
25.11.2018 05:42 1,6 C 4,4 C 1,7 C 98 % 1012,2 hPa 0,0 l/m 3,0 km/h (1 Bft) S-SO 165 0 min 0,000 mm 0,0 UV-I 0 W/m 1,3 C 1,6 C 6,4 km/h (2 Bft) 97,87 %
25.11.2018 05:44 1,6 C 4,4 C 1,7 C 98 % 1012,2 hPa 0,0 l/m 1,7 km/h (1 Bft) S-SO 165 0 min 0,000 mm 0,0 UV-I 0 W/m 1,3 C 1,6 C 3,2 km/h (1 Bft) 98,00 %
25.11.2018 05:46 1,6 C 4,4 C 1,7 C 98 % 1012,2 hPa 0,0 l/m 1,5 km/h (1 Bft) S-SO 165 0 min 0,000 mm 0,0 UV-I 0 W/m 1,3 C 1,6 C 3,2 km/h (1 Bft) 95,74 %
25.11.2018 05:48 1,5 C 4,4 C 1,7 C 98 % 1012,2 hPa 0,0 l/m 2,7 km/h (1 Bft) S-SO 165 0 min 0,000 mm 0,0 UV-I 0 W/m 1,2 C 1,5 C 3,2 km/h (1 Bft) 98,00 %
25.11.2018 05:50 1,5 C 4,4 C 1,7 C 98 % 1012,1 hPa 0,0 l/m 2,6 km/h (1 Bft) S-SO 165 0 min 0,000 mm 0,0 UV-I 0 W/m 1,2 C 1,5 C 3,2 km/h (1 Bft) 97,56 %
25.11.2018 05:52 1,5 C 4,4 C 1,7 C 98 % 1012,1 hPa 0,0 l/m 2,6 km/h (1 Bft) S-SO 165 0 min 0,000 mm 0,0 UV-I 0 W/m 1,2 C 1,5 C 6,4 km/h (2 Bft) 98,00 %
25.11.2018 05:54 1,5 C 4,4 C 1,7 C 98 % 1012,1 hPa 0,0 l/m 2,7 km/h (1 Bft) S-SO 165 0 min 0,000 mm 0,0 UV-I 0 W/m 1,2 C 1,5 C 3,2 km/h (1 Bft) 95,45 %
25.11.2018 05:56 1,5 C 4,4 C 1,7 C 98 % 1012,1 hPa 0,0 l/m 2,2 km/h (1 Bft) S-SO 165 0 min 0,000 mm 0,0 UV-I 0 W/m 1,2 C 1,5 C 3,2 km/h (1 Bft) 96,00 %
25.11.2018 05:58 1,5 C 4,4 C 1,7 C 98 % 1012,1 hPa 0,0 l/m 2,8 km/h (1 Bft) S-SO 165 0 min 0,000 mm 0,0 UV-I 0 W/m 1,2 C 1,5 C 6,4 km/h (2 Bft) 97,87 %
25.11.2018 06:00 1,5 C 4,4 C 1,7 C 98 % 1012,1 hPa 0,0 l/m 2,6 km/h (1 Bft) S-SO 165 0 min 0,000 mm 0,0 UV-I 0 W/m 1,2 C 1,5 C 6,4 km/h (2 Bft) 100,00 %
25.11.2018 06:02 1,6 C 4,4 C 1,7 C 98 % 1012,2 hPa 0,0 l/m 3,4 km/h (1 Bft) S-SO 165 0 min 0,000 mm 0,0 UV-I 0 W/m 1,3 C 1,6 C 6,4 km/h (2 Bft) 100,00 %
25.11.2018 06:04 1,5 C 4,4 C 1,7 C 98 % 1012,1 hPa 0,0 l/m 3,3 km/h (1 Bft) S-SO 165 0 min 0,000 mm 0,0 UV-I 0 W/m 1,2 C 1,5 C 6,4 km/h (2 Bft) 98,08 %
25.11.2018 06:06 1,5 C 4,4 C 1,7 C 98 % 1012,1 hPa 0,0 l/m 4,8 km/h (1 Bft) S-SO 165 0 min 0,000 mm 0,0 UV-I 0 W/m 1,2 C 1,5 C 6,4 km/h (2 Bft) 100,00 %
25.11.2018 06:08 1,5 C 4,4 C 1,7 C 98 % 1012,1 hPa 0,0 l/m 4,1 km/h (1 Bft) O-NO 75 0 min 0,000 mm 0,0 UV-I 0 W/m 1,2 C 1,5 C 6,4 km/h (2 Bft) 100,00 %
25.11.2018 06:10 1,5 C 4,4 C 1,7 C 98 % 1012,0 hPa 0,0 l/m 3,6 km/h (1 Bft) O-NO 68 0 min 0,000 mm 0,0 UV-I 0 W/m 1,2 C 1,5 C 4,8 km/h (1 Bft) 97,87 %
25.11.2018 06:12 1,6 C 4,4 C 1,7 C 98 % 1012,1 hPa 0,0 l/m 3,9 km/h (1 Bft) O-NO 67 0 min 0,000 mm 0,0 UV-I 0 W/m 1,3 C 1,6 C 4,8 km/h (1 Bft) 100,00 %
25.11.2018 06:14 1,6 C 4,4 C 1,7 C 98 % 1012,1 hPa 0,0 l/m 3,8 km/h (1 Bft) O-NO 67 0 min 0,000 mm 0,0 UV-I 0 W/m 1,3 C 1,6 C 4,8 km/h (1 Bft) 100,00 %
25.11.2018 06:16 1,6 C 4,4 C 1,7 C 98 % 1012,1 hPa 0,0 l/m 3,2 km/h (1 Bft) O-NO 67 0 min 0,000 mm 0,0 UV-I 0 W/m 1,3 C 1,6 C 4,8 km/h (1 Bft) 100,00 %
25.11.2018 06:18 1,6 C 4,4 C 1,7 C 98 % 1012,1 hPa 0,0 l/m 3,7 km/h (1 Bft) O-NO 67 0 min 0,000 mm 0,0 UV-I 0 W/m 1,3 C 1,6 C 4,8 km/h (1 Bft) 100,00 %
25.11.2018 06:20 1,6 C 4,4 C 1,7 C 98 % 1012,1 hPa 0,0 l/m 4,5 km/h (1 Bft) O-NO 62 0 min 0,000 mm 0,0 UV-I 0 W/m 1,3 C 1,6 C 6,4 km/h (2 Bft) 94,74 %
25.11.2018 06:22 1,6 C 4,4 C 1,7 C 98 % 1012,0 hPa 0,0 l/m 4,1 km/h (1 Bft) NO 55 0 min 0,000 mm 0,0 UV-I 0 W/m 1,3 C 1,6 C 6,4 km/h (2 Bft) 98,00 %
25.11.2018 06:24 1,6 C 4,4 C 1,7 C 98 % 1012,0 hPa 0,0 l/m 3,5 km/h (1 Bft) NO 55 0 min 0,000 mm 0,0 UV-I 0 W/m 1,3 C 1,6 C 4,8 km/h (1 Bft) 100,00 %
25.11.2018 06:26 1,6 C 4,4 C 1,7 C 98 % 1012,0 hPa 0,0 l/m 3,6 km/h (1 Bft) NO 55 0 min 0,000 mm 0,0 UV-I 0 W/m 1,3 C 1,6 C 4,8 km/h (1 Bft) 98,21 %
25.11.2018 06:28 1,6 C 4,4 C 1,7 C 98 % 1012,0 hPa 0,0 l/m 4,0 km/h (1 Bft) NO 55 0 min 0,000 mm 0,0 UV-I 0 W/m 1,3 C 1,6 C 4,8 km/h (1 Bft) 100,00 %
25.11.2018 06:30 1,6 C 4,4 C 1,7 C 98 % 1012,0 hPa 0,0 l/m 3,7 km/h (1 Bft) N-NO 32 0 min 0,000 mm 0,0 UV-I 0 W/m 1,3 C 1,6 C 6,4 km/h (2 Bft) 97,37 %
25.11.2018 06:32 1,6 C 4,4 C 1,7 C 98 % 1012,0 hPa 0,0 l/m 5,4 km/h (1 Bft) N-NO 26 0 min 0,000 mm 0,0 UV-I 0 W/m 1,3 C 1,6 C 6,4 km/h (2 Bft) 100,00 %
25.11.2018 06:34 1,6 C 4,4 C 1,7 C 98 % 1012,1 hPa 0,0 l/m 5,2 km/h (1 Bft) N-NO 28 0 min 0,000 mm 0,0 UV-I 0 W/m 1,3 C 1,6 C 8,0 km/h (2 Bft) 100,00 %
25.11.2018 06:36 1,6 C 4,4 C 1,7 C 98 % 1012,1 hPa 0,0 l/m 4,9 km/h (1 Bft) N-NO 28 0 min 0,000 mm 0,0 UV-I 0 W/m 1,3 C 1,6 C 6,4 km/h (2 Bft) 98,21 %
25.11.2018 06:38 1,6 C 4,4 C 1,7 C 98 % 1012,1 hPa 0,0 l/m 5,5 km/h (1 Bft) N-NO 25 0 min 0,000 mm 0,0 UV-I 0 W/m 1,3 C 1,6 C 8,0 km/h (2 Bft) 100,00 %
25.11.2018 06:40 1,6 C 4,4 C 1,7 C 98 % 1012,1 hPa 0,0 l/m 6,1 km/h (2 Bft) NO 36 0 min 0,000 mm 0,0 UV-I 0 W/m 1,3 C 1,6 C 8,0 km/h (2 Bft) 100,00 %
25.11.2018 06:42 1,6 C 4,4 C 1,7 C 98 % 1012,1 hPa 0,0 l/m 5,7 km/h (1 Bft) N-NO 28 0 min 0,000 mm 0,0 UV-I 0 W/m 1,3 C 1,6 C 8,0 km/h (2 Bft) 96,00 %
25.11.2018 06:44 1,7 C 4,4 C 1,7 C 98 % 1012,1 hPa 0,0 l/m 7,1 km/h (2 Bft) N 10 0 min 0,000 mm 0,0 UV-I 0 W/m 1,4 C 1,0 C 11,3 km/h (2 Bft) 98,00 %
25.11.2018 06:46 1,7 C 4,4 C 1,7 C 98 % 1012,0 hPa 0,0 l/m 6,1 km/h (2 Bft) N-NO 31 0 min 0,000 mm 0,0 UV-I 0 W/m 1,4 C 1,7 C 8,0 km/h (2 Bft) 97,44 %
25.11.2018 06:48 1,7 C 4,4 C 1,7 C 98 % 1012,0 hPa 0,0 l/m 6,7 km/h (2 Bft) N-NO 15 0 min 0,000 mm 0,0 UV-I 0 W/m 1,4 C 1,4 C 9,7 km/h (2 Bft) 93,88 %
25.11.2018 06:50 1,6 C 4,4 C 1,7 C 98 % 1012,1 hPa 0,0 l/m 6,4 km/h (2 Bft) N 355 0 min 0,000 mm 0,0 UV-I 0 W/m 1,3 C 1,6 C 8,0 km/h (2 Bft) 94,34 %
25.11.2018 06:52 1,6 C 4,4 C 1,7 C 98 % 1012,0 hPa 0,0 l/m 5,6 km/h (1 Bft) N-NO 17 0 min 0,000 mm 0,0 UV-I 0 W/m 1,3 C 1,6 C 8,0 km/h (2 Bft) 98,00 %
25.11.2018 06:54 1,7 C 4,4 C 1,7 C 98 % 1012,0 hPa 0,0 l/m 6,1 km/h (2 Bft) N-NW 343 0 min 0,000 mm 0,0 UV-I 0 W/m 1,4 C 1,7 C 8,0 km/h (2 Bft) 92,11 %
25.11.2018 06:56 1,7 C 4,4 C 1,7 C 98 % 1012,1 hPa 0,0 l/m 7,4 km/h (2 Bft) N-NO 30 0 min 0,000 mm 0,0 UV-I 0 W/m 1,4 C 0,7 C 11,3 km/h (2 Bft) 96,23 %
25.11.2018 06:58 1,7 C 4,4 C 1,7 C 98 % 1012,1 hPa 0,0 l/m 7,5 km/h (2 Bft) N-NO 25 0 min 0,000 mm 0,0 UV-I 0 W/m 1,4 C 0,6 C 11,3 km/h (2 Bft) 94,74 %
25.11.2018 07:00 1,7 C 4,4 C 1,7 C 98 % 1012,1 hPa 0,0 l/m 6,2 km/h (2 Bft) NO 42 0 min 0,000 mm 0,0 UV-I 0 W/m 1,4 C 1,7 C 8,0 km/h (2 Bft) 95,74 %
25.11.2018 07:02 1,7 C 4,4 C 1,7 C 98 % 1012,0 hPa 0,0 l/m 5,5 km/h (1 Bft) NO 39 0 min 0,000 mm 0,0 UV-I 0 W/m 1,4 C 1,7 C 8,0 km/h (2 Bft) 96,00 %
25.11.2018 07:04 1,7 C 4,4 C 1,7 C 98 % 1012,0 hPa 0,0 l/m 4,8 km/h (1 Bft) NO 46 0 min 0,000 mm 0,0 UV-I 0 W/m 1,4 C 1,7 C 6,4 km/h (2 Bft) 91,43 %
25.11.2018 07:06 1,7 C 4,4 C 1,7 C 98 % 1012,0 hPa 0,0 l/m 4,6 km/h (1 Bft) NO 43 0 min 0,000 mm 0,0 UV-I 0 W/m 1,4 C 1,7 C 6,4 km/h (2 Bft) 95,16 %
25.11.2018 07:08 1,7 C 4,4 C 2,2 C 98 % 1012,0 hPa 0,0 l/m 4,9 km/h (1 Bft) NO 44 0 min 0,000 mm 0,0 UV-I 0 W/m 1,4 C 1,7 C 8,0 km/h (2 Bft) 89,36 %
25.11.2018 07:10 1,7 C 4,4 C 2,2 C 98 % 1012,0 hPa 0,0 l/m 4,8 km/h (1 Bft) NO 34 0 min 0,000 mm 0,0 UV-I 0 W/m 1,4 C 1,7 C 8,0 km/h (2 Bft) 95,74 %
25.11.2018 07:12 1,7 C 4,4 C 2,2 C 98 % 1012,0 hPa 0,0 l/m 4,5 km/h (1 Bft) NO 38 0 min 0,000 mm 0,0 UV-I 0 W/m 1,4 C 1,7 C 6,4 km/h (2 Bft) 95,12 %
25.11.2018 07:14 1,7 C 4,4 C 2,2 C 98 % 1012,0 hPa 0,0 l/m 4,7 km/h (1 Bft) NO 38 0 min 0,000 mm 0,0 UV-I 0 W/m 1,4 C 1,7 C 6,4 km/h (2 Bft) 95,74 %
25.11.2018 07:16 1,7 C 4,4 C 2,2 C 98 % 1012,0 hPa 0,0 l/m 5,0 km/h (1 Bft) N-NO 32 0 min 0,000 mm 0,0 UV-I 0 W/m 1,4 C 1,7 C 6,4 km/h (2 Bft) 100,00 %
25.11.2018 07:18 1,8 C 4,4 C 2,2 C 98 % 1012,0 hPa 0,0 l/m 5,0 km/h (1 Bft) NO 34 0 min 0,000 mm 0,0 UV-I 0 W/m 1,5 C 1,8 C 6,4 km/h (2 Bft) 97,87 %
25.11.2018 07:20 1,8 C 4,4 C 2,2 C 98 % 1012,0 hPa 0,0 l/m 4,9 km/h (1 Bft) NO 38 0 min 0,000 mm 0,0 UV-I 0 W/m 1,5 C 1,8 C 6,4 km/h (2 Bft) 96,23 %
25.11.2018 07:22 1,8 C 4,4 C 2,2 C 98 % 1012,0 hPa 0,0 l/m 5,4 km/h (1 Bft) NO 43 0 min 0,000 mm 0,0 UV-I 0 W/m 1,5 C 1,8 C 6,4 km/h (2 Bft) 97,44 %
25.11.2018 07:24 1,8 C 4,4 C 2,2 C 98 % 1012,0 hPa 0,0 l/m 4,9 km/h (1 Bft) N 9 0 min 0,000 mm 0,0 UV-I 0 W/m 1,5 C 1,8 C 6,4 km/h (2 Bft) 98,08 %
25.11.2018 07:26 1,8 C 4,4 C 2,2 C 98 % 1012,0 hPa 0,0 l/m 4,1 km/h (1 Bft) N-NO 18 0 min 0,000 mm 0,0 UV-I 0 W/m 1,5 C 1,8 C 6,4 km/h (2 Bft) 95,24 %
25.11.2018 07:28 1,7 C 4,4 C 2,2 C 98 % 1012,1 hPa 0,0 l/m 2,5 km/h (1 Bft) N-NO 18 0 min 0,000 mm 0,0 UV-I 5 W/m 1,4 C 1,7 C 3,2 km/h (1 Bft) 97,87 %
25.11.2018 07:30 1,7 C 4,4 C 2,2 C 98 % 1012,1 hPa 0,0 l/m 3,4 km/h (1 Bft) NO 52 0 min 0,000 mm 0,0 UV-I 5 W/m 1,4 C 1,7 C 6,4 km/h (2 Bft) 97,87 %
25.11.2018 07:32 1,8 C 4,4 C 2,2 C 98 % 1012,1 hPa 0,0 l/m 2,6 km/h (1 Bft) NO 52 0 min 0,000 mm 0,0 UV-I 5 W/m 1,5 C 1,8 C 3,2 km/h (1 Bft) 94,00 %
25.11.2018 07:34 1,8 C 4,4 C 2,2 C 98 % 1012,0 hPa 0,0 l/m 2,6 km/h (1 Bft) NO 52 0 min 0,000 mm 0,0 UV-I 5 W/m 1,5 C 1,8 C 3,2 km/h (1 Bft) 97,56 %
25.11.2018 07:36 1,8 C 4,4 C 2,2 C 98 % 1012,0 hPa 0,0 l/m 3,0 km/h (1 Bft) O-NO 71 0 min 0,000 mm 0,0 UV-I 7 W/m 1,5 C 1,8 C 4,8 km/h (1 Bft) 98,11 %
25.11.2018 07:38 1,8 C 4,4 C 2,2 C 98 % 1012,0 hPa 0,0 l/m 2,1 km/h (1 Bft) O-NO 71 0 min 0,000 mm 0,0 UV-I 7 W/m 1,5 C 1,8 C 3,2 km/h (1 Bft) 97,56 %
25.11.2018 07:40 1,8 C 4,4 C 2,2 C 98 % 1012,0 hPa 0,0 l/m 2,1 km/h (1 Bft) O-NO 71 0 min 0,000 mm 0,0 UV-I 7 W/m 1,5 C 1,8 C 3,2 km/h (1 Bft) 98,00 %
25.11.2018 07:42 1,8 C 4,4 C 2,2 C 98 % 1012,0 hPa 0,0 l/m 1,5 km/h (1 Bft) O-NO 71 0 min 0,000 mm 0,0 UV-I 9 W/m 1,5 C 1,8 C 3,2 km/h (1 Bft) 96,00 %
25.11.2018 07:44 1,8 C 4,4 C 2,2 C 98 % 1011,9 hPa 0,0 l/m 1,6 km/h (1 Bft) O-NO 71 0 min 0,000 mm 0,0 UV-I 11 W/m 1,5 C 1,8 C 3,2 km/h (1 Bft) 97,37 %
25.11.2018 07:46 1,9 C 4,4 C 2,2 C 98 % 1011,9 hPa 0,0 l/m 4,3 km/h (1 Bft) O-SO 107 0 min 0,000 mm 0,0 UV-I 12 W/m 1,6 C 1,9 C 6,4 km/h (2 Bft) 98,00 %
25.11.2018 07:48 1,9 C 4,4 C 2,8 C 98 % 1011,9 hPa 0,0 l/m 2,8 km/h (1 Bft) O-SO 107 0 min 0,000 mm 0,0 UV-I 12 W/m 1,6 C 1,9 C 4,8 km/h (1 Bft) 98,11 %
25.11.2018 07:50 2,0 C 4,4 C 2,8 C 98 % 1012,0 hPa 0,0 l/m 4,6 km/h (1 Bft) O 99 0 min 0,000 mm 0,0 UV-I 14 W/m 1,7 C 2,0 C 6,4 km/h (2 Bft) 94,74 %
25.11.2018 07:52 2,0 C 4,4 C 2,8 C 98 % 1012,0 hPa 0,0 l/m 3,6 km/h (1 Bft) O 99 0 min 0,000 mm 0,0 UV-I 14 W/m 1,7 C 2,0 C 4,8 km/h (1 Bft) 98,00 %
25.11.2018 07:54 2,0 C 4,4 C 2,8 C 98 % 1012,0 hPa 0,0 l/m 3,0 km/h (1 Bft) O 99 0 min 0,000 mm 0,0 UV-I 14 W/m 1,7 C 2,0 C 4,8 km/h (1 Bft) 94,00 %
25.11.2018 07:56 2,1 C 4,4 C 2,8 C 98 % 1012,0 hPa 0,0 l/m 3,2 km/h (1 Bft) O 99 0 min 0,000 mm 0,0 UV-I 14 W/m 1,8 C 2,1 C 4,8 km/h (1 Bft) 97,62 %
25.11.2018 07:58 2,1 C 4,4 C 2,8 C 98 % 1011,9 hPa 0,0 l/m 3,8 km/h (1 Bft) O 98 0 min 0,000 mm 0,0 UV-I 14 W/m 1,8 C 2,1 C 4,8 km/h (1 Bft) 95,74 %
25.11.2018 08:00 2,0 C 4,4 C 2,8 C 98 % 1011,9 hPa 0,0 l/m 4,5 km/h (1 Bft) O 96 0 min 0,000 mm 0,0 UV-I 16 W/m 1,7 C 2,0 C 6,4 km/h (2 Bft) 98,00 %
25.11.2018 08:02 2,1 C 4,4 C 2,8 C 98 % 1011,7 hPa 0,0 l/m 4,9 km/h (1 Bft) O-SO 104 0 min 0,000 mm 0,0 UV-I 16 W/m 1,8 C 2,1 C 6,4 km/h (2 Bft) 98,11 %
25.11.2018 08:04 2,1 C 4,4 C 2,8 C 98 % 1011,7 hPa 0,0 l/m 5,6 km/h (1 Bft) O-SO 115 0 min 0,000 mm 0,0 UV-I 17 W/m 1,8 C 2,1 C 9,7 km/h (2 Bft) 97,37 %
25.11.2018 08:06 2,1 C 4,4 C 2,8 C 98 % 1011,7 hPa 0,0 l/m 3,6 km/h (1 Bft) O-SO 120 0 min 0,000 mm 0,0 UV-I 19 W/m 1,8 C 2,1 C 6,4 km/h (2 Bft) 98,11 %
25.11.2018 08:08 2,1 C 4,4 C 2,8 C 98 % 1011,6 hPa 0,0 l/m 5,2 km/h (1 Bft) O 92 0 min 0,000 mm 0,0 UV-I 19 W/m 1,8 C 2,1 C 6,4 km/h (2 Bft) 98,00 %
25.11.2018 08:10 2,1 C 4,4 C 2,8 C 98 % 1011,6 hPa 0,0 l/m 3,8 km/h (1 Bft) O 92 0 min 0,000 mm 0,0 UV-I 19 W/m 1,8 C 2,1 C 6,4 km/h (2 Bft) 97,56 %
25.11.2018 08:12 2,1 C 4,4 C 2,8 C 98 % 1011,6 hPa 0,0 l/m 3,7 km/h (1 Bft) O-SO 121 0 min 0,000 mm 0,0 UV-I 19 W/m 1,8 C 2,1 C 4,8 km/h (1 Bft) 96,00 %
25.11.2018 08:14 2,1 C 4,4 C 2,8 C 98 % 1011,6 hPa 0,0 l/m 2,4 km/h (1 Bft) O 94 0 min 0,000 mm 0,0 UV-I 18 W/m 1,8 C 2,1 C 4,8 km/h (1 Bft) 94,74 %
25.11.2018 08:16 2,1 C 4,4 C 2,8 C 98 % 1011,6 hPa 0,0 l/m 3,5 km/h (1 Bft) O-SO 107 0 min 0,000 mm 0,0 UV-I 16 W/m 1,8 C 2,1 C 6,4 km/h (2 Bft) 91,49 %
25.11.2018 08:18 2,1 C 4,4 C 2,8 C 98 % 1011,6 hPa 0,0 l/m 2,1 km/h (1 Bft) O-SO 107 0 min 0,000 mm 0,0 UV-I 17 W/m 1,8 C 2,1 C 3,2 km/h (1 Bft) 94,00 %
25.11.2018 08:20 2,1 C 4,4 C 2,8 C 98 % 1011,6 hPa 0,0 l/m 2,4 km/h (1 Bft) O-SO 107 0 min 0,000 mm 0,0 UV-I 19 W/m 1,8 C 2,1 C 3,2 km/h (1 Bft) 97,37 %
25.11.2018 08:22 2,2 C 4,4 C 2,8 C 98 % 1011,6 hPa 0,0 l/m 2,4 km/h (1 Bft) O-SO 107 0 min 0,000 mm 0,0 UV-I 19 W/m 1,9 C 2,2 C 3,2 km/h (1 Bft) 94,64 %
25.11.2018 08:24 2,2 C 4,4 C 2,8 C 98 % 1011,6 hPa 0,0 l/m 1,7 km/h (1 Bft) O-SO 107 0 min 0,000 mm 0,0 UV-I 19 W/m 1,9 C 2,2 C 3,2 km/h (1 Bft) 96,00 %
25.11.2018 08:26 2,2 C 4,4 C 2,8 C 98 % 1011,6 hPa 0,0 l/m 2,0 km/h (1 Bft) O-SO 107 0 min 0,000 mm 0,0 UV-I 19 W/m 1,9 C 2,2 C 3,2 km/h (1 Bft) 95,74 %
25.11.2018 08:28 2,2 C 4,4 C 2,8 C 98 % 1011,6 hPa 0,0 l/m 3,2 km/h (1 Bft) O-NO 77 0 min 0,000 mm 0,0 UV-I 20 W/m 1,9 C 2,2 C 6,4 km/h (2 Bft) 93,62 %
25.11.2018 08:30 2,2 C 4,4 C 2,8 C 98 % 1011,6 hPa 0,0 l/m 4,0 km/h (1 Bft) O-SO 109 0 min 0,000 mm 0,0 UV-I 20 W/m 1,9 C 2,2 C 6,4 km/h (2 Bft) 96,00 %
25.11.2018 08:32 2,2 C 4,4 C 2,8 C 98 % 1011,7 hPa 0,0 l/m 2,9 km/h (1 Bft) O-SO 108 0 min 0,000 mm 0,0 UV-I 19 W/m 1,9 C 2,2 C 4,8 km/h (1 Bft) 100,00 %
25.11.2018 08:35 2,2 C 4,4 C 2,8 C 98 % 1011,6 hPa 0,0 l/m 4,5 km/h (1 Bft) O 93 0 min 0,000 mm 0,0 UV-I 21 W/m 1,9 C 2,2 C 6,4 km/h (2 Bft) 100,00 %
25.11.2018 08:36 2,2 C 4,4 C 2,8 C 98 % 1011,6 hPa 0,0 l/m 3,8 km/h (1 Bft) O 90 0 min 0,000 mm 0,0 UV-I 23 W/m 1,9 C 2,2 C 4,8 km/h (1 Bft) 100,00 %
25.11.2018 08:38 2,2 C 4,4 C 2,8 C 98 % 1011,7 hPa 0,0 l/m 4,4 km/h (1 Bft) O-SO 107 0 min 0,000 mm 0,0 UV-I 23 W/m 1,9 C 2,2 C 9,7 km/h (2 Bft) 100,00 %
25.11.2018 08:40 2,2 C 4,4 C 2,8 C 98 % 1011,7 hPa 0,0 l/m 6,2 km/h (2 Bft) O 92 0 min 0,000 mm 0,0 UV-I 21 W/m 1,9 C 2,2 C 9,7 km/h (2 Bft) 95,74 %
25.11.2018 08:42 2,2 C 4,4 C 2,8 C 98 % 1011,6 hPa 0,0 l/m 5,6 km/h (1 Bft) O 98 0 min 0,000 mm 0,0 UV-I 21 W/m 1,9 C 2,2 C 9,7 km/h (2 Bft) 98,00 %
25.11.2018 08:44 2,2 C 4,4 C 2,8 C 98 % 1011,6 hPa 0,0 l/m 6,1 km/h (2 Bft) O-NO 62 0 min 0,000 mm 0,0 UV-I 21 W/m 1,9 C 2,2 C 8,0 km/h (2 Bft) 95,74 %
25.11.2018 08:46 2,2 C 4,4 C 2,8 C 98 % 1011,5 hPa 0,0 l/m 5,8 km/h (2 Bft) O-NO 69 0 min 0,000 mm 0,0 UV-I 22 W/m 1,9 C 2,2 C 8,0 km/h (2 Bft) 97,87 %
25.11.2018 08:48 2,2 C 4,4 C 2,8 C 98 % 1011,5 hPa 0,0 l/m 4,7 km/h (1 Bft) O-NO 70 0 min 0,000 mm 0,0 UV-I 23 W/m 1,9 C 2,2 C 6,4 km/h (2 Bft) 97,56 %
25.11.2018 08:50 2,2 C 4,4 C 2,8 C 98 % 1011,5 hPa 0,0 l/m 5,2 km/h (1 Bft) O-NO 70 0 min 0,000 mm 0,0 UV-I 23 W/m 1,9 C 2,2 C 6,4 km/h (2 Bft) 94,00 %
25.11.2018 08:52 2,2 C 4,4 C 2,8 C 98 % 1011,5 hPa 0,0 l/m 5,5 km/h (1 Bft) O 85 0 min 0,000 mm 0,0 UV-I 23 W/m 1,9 C 2,2 C 8,0 km/h (2 Bft) 96,00 %
25.11.2018 08:54 2,3 C 4,4 C 3,3 C 98 % 1011,4 hPa 0,0 l/m 7,3 km/h (2 Bft) O 99 0 min 0,000 mm 0,0 UV-I 23 W/m 2,0 C 1,4 C 11,3 km/h (2 Bft) 98,11 %
25.11.2018 08:56 2,3 C 4,4 C 3,3 C 98 % 1011,4 hPa 0,0 l/m 5,9 km/h (2 Bft) O-SO 105 0 min 0,000 mm 0,0 UV-I 25 W/m 2,0 C 2,3 C 9,7 km/h (2 Bft) 97,37 %
25.11.2018 08:58 2,3 C 4,4 C 3,3 C 98 % 1011,4 hPa 0,0 l/m 7,1 km/h (2 Bft) O 98 0 min 0,000 mm 0,0 UV-I 25 W/m 2,0 C 1,6 C 11,3 km/h (2 Bft) 98,00 %
25.11.2018 09:00 2,3 C 4,4 C 3,3 C 98 % 1011,4 hPa 0,0 l/m 5,0 km/h (1 Bft) O-SO 107 0 min 0,000 mm 0,0 UV-I 26 W/m 2,0 C 2,3 C 6,4 km/h (2 Bft) 95,12 %
25.11.2018 09:02 2,3 C 4,4 C 3,3 C 98 % 1011,4 hPa 0,0 l/m 3,6 km/h (1 Bft) O-SO 107 0 min 0,000 mm 0,0 UV-I 26 W/m 2,0 C 2,3 C 6,4 km/h (2 Bft) 97,87 %
25.11.2018 09:05 2,3 C 4,4 C 3,3 C 98 % 1011,4 hPa 0,0 l/m 4,2 km/h (1 Bft) O 86 0 min 0,000 mm 0,0 UV-I 26 W/m 2,0 C 2,3 C 6,4 km/h (2 Bft) 97,50 %
25.11.2018 09:06 2,3 C 4,4 C 3,3 C 98 % 1011,4 hPa 0,0 l/m 2,3 km/h (1 Bft) O 86 0 min 0,000 mm 0,0 UV-I 26 W/m 2,0 C 2,3 C 3,2 km/h (1 Bft) 100,00 %
25.11.2018 09:08 2,3 C 4,4 C 3,3 C 98 % 1011,4 hPa 0,0 l/m 2,8 km/h (1 Bft) N-NO 22 0 min 0,000 mm 0,0 UV-I 26 W/m 2,0 C 2,3 C 4,8 km/h (1 Bft) 93,62 %
25.11.2018 09:10 2,4 C 4,4 C 3,3 C 98 % 1011,3 hPa 0,0 l/m 4,3 km/h (1 Bft) NO 35 0 min 0,000 mm 0,0 UV-I 27 W/m 2,1 C 2,4 C 6,4 km/h (2 Bft) 98,21 %
25.11.2018 09:12 2,4 C 4,4 C 3,3 C 98 % 1011,3 hPa 0,0 l/m 4,8 km/h (1 Bft) NO 37 0 min 0,000 mm 0,0 UV-I 30 W/m 2,1 C 2,4 C 6,4 km/h (2 Bft) 97,22 %
25.11.2018 09:14 2,4 C 4,4 C 3,3 C 98 % 1011,2 hPa 0,0 l/m 5,3 km/h (1 Bft) O 92 0 min 0,000 mm 0,0 UV-I 33 W/m 2,1 C 2,4 C 9,7 km/h (2 Bft) 98,18 %
25.11.2018 09:16 2,3 C 4,4 C 3,3 C 98 % 1011,1 hPa 0,0 l/m 5,7 km/h (1 Bft) O-NO 73 0 min 0,000 mm 0,0 UV-I 37 W/m 2,0 C 2,3 C 9,7 km/h (2 Bft) 98,04 %
25.11.2018 09:18 2,3 C 4,4 C 3,3 C 98 % 1011,1 hPa 0,0 l/m 6,6 km/h (2 Bft) NO 54 0 min 0,000 mm 0,0 UV-I 39 W/m 2,0 C 2,1 C 8,0 km/h (2 Bft) 95,45 %
25.11.2018 09:20 2,3 C 4,4 C 3,3 C 98 % 1011,1 hPa 0,0 l/m 6,0 km/h (2 Bft) NO 42 0 min 0,000 mm 0,0 UV-I 33 W/m 2,0 C 2,3 C 8,0 km/h (2 Bft) 100,00 %
25.11.2018 09:22 2,4 C 4,4 C 3,3 C 98 % 1011,1 hPa 0,0 l/m 6,4 km/h (2 Bft) NO 42 0 min 0,000 mm 0,0 UV-I 32 W/m 2,1 C 2,4 C 8,0 km/h (2 Bft) 100,00 %
25.11.2018 09:24 2,4 C 4,4 C 3,3 C 98 % 1011,1 hPa 0,0 l/m 7,2 km/h (2 Bft) O 82 0 min 0,000 mm 0,0 UV-I 32 W/m 2,1 C 1,6 C 11,3 km/h (2 Bft) 98,00 %
25.11.2018 09:26 2,4 C 4,4 C 3,3 C 98 % 1011,1 hPa 0,0 l/m 6,3 km/h (2 Bft) O-NO 66 0 min 0,000 mm 0,0 UV-I 33 W/m 2,1 C 2,4 C 9,7 km/h (2 Bft) 96,00 %
25.11.2018 09:28 2,4 C 4,4 C 3,3 C 98 % 1011,1 hPa 0,0 l/m 5,9 km/h (2 Bft) NO 56 0 min 0,000 mm 0,0 UV-I 33 W/m 2,1 C 2,4 C 9,7 km/h (2 Bft) 100,00 %
25.11.2018 09:30 2,4 C 4,4 C 3,3 C 98 % 1011,0 hPa 0,0 l/m 6,3 km/h (2 Bft) O 83 0 min 0,000 mm 0,0 UV-I 38 W/m 2,1 C 2,4 C 9,7 km/h (2 Bft) 97,87 %
25.11.2018 09:32 2,4 C 4,4 C 3,3 C 98 % 1011,0 hPa 0,0 l/m 7,0 km/h (2 Bft) O-NO 75 0 min 0,000 mm 0,0 UV-I 43 W/m 2,1 C 1,8 C 8,0 km/h (2 Bft) 94,74 %
25.11.2018 09:34 2,4 C 4,4 C 3,3 C 98 % 1011,1 hPa 0,0 l/m 6,3 km/h (2 Bft) NO 51 0 min 0,000 mm 0,0 UV-I 45 W/m 2,1 C 2,4 C 9,7 km/h (2 Bft) 98,21 %
25.11.2018 09:36 2,6 C 4,4 C 3,3 C 98 % 1011,0 hPa 0,0 l/m 8,4 km/h (2 Bft) O-NO 60 0 min 0,000 mm 0,0 UV-I 53 W/m 2,3 C 0,7 C 12,9 km/h (3 Bft) 96,00 %
25.11.2018 09:38 2,6 C 4,4 C 3,3 C 98 % 1011,0 hPa 0,0 l/m 9,4 km/h (2 Bft) N-NO 30 0 min 0,000 mm 0,0 UV-I 47 W/m 2,3 C -0,1 C 16,1 km/h (3 Bft) 94,74 %
25.11.2018 09:40 2,6 C 4,4 C 3,3 C 98 % 1011,0 hPa 0,0 l/m 9,9 km/h (2 Bft) NO 50 0 min 0,000 mm 0,0 UV-I 45 W/m 2,3 C -0,5 C 14,5 km/h (3 Bft) 98,21 %
25.11.2018 09:42 2,6 C 4,4 C 3,3 C 98 % 1011,0 hPa 0,0 l/m 8,9 km/h (2 Bft) O-NO 60 0 min 0,000 mm 0,0 UV-I 41 W/m 2,3 C 0,3 C 14,5 km/h (3 Bft) 97,14 %
25.11.2018 09:44 2,7 C 4,4 C 3,3 C 98 % 1010,9 hPa 0,0 l/m 8,7 km/h (2 Bft) O-NO 62 0 min 0,000 mm 0,0 UV-I 40 W/m 2,4 C 0,6 C 14,5 km/h (3 Bft) 98,00 %
25.11.2018 09:46 2,7 C 4,4 C 3,3 C 98 % 1010,9 hPa 0,0 l/m 8,1 km/h (2 Bft) O-NO 70 0 min 0,000 mm 0,0 UV-I 39 W/m 2,4 C 1,1 C 12,9 km/h (3 Bft) 96,43 %
25.11.2018 09:48 2,6 C 4,4 C 3,3 C 98 % 1010,9 hPa 0,0 l/m 9,3 km/h (2 Bft) O-NO 61 0 min 0,000 mm 0,0 UV-I 40 W/m 2,3 C -0,0 C 12,9 km/h (3 Bft) 97,56 %
25.11.2018 09:50 2,6 C 4,4 C 3,9 C 98 % 1010,9 hPa 0,0 l/m 6,4 km/h (2 Bft) O-NO 71 0 min 0,000 mm 0,0 UV-I 40 W/m 2,3 C 2,6 C 8,0 km/h (2 Bft) 97,87 %
25.11.2018 09:52 2,7 C 4,4 C 3,9 C 98 % 1010,9 hPa 0,0 l/m 7,6 km/h (2 Bft) NO 46 0 min 0,000 mm 0,0 UV-I 42 W/m 2,4 C 1,6 C 11,3 km/h (2 Bft) 100,00 %
25.11.2018 09:54 2,8 C 4,4 C 3,9 C 98 % 1010,9 hPa 0,0 l/m 11,4 km/h (2 Bft) O-NO 69 0 min 0,000 mm 0,0 UV-I 39 W/m 2,5 C -1,4 C 17,7 km/h (3 Bft) 100,00 %
25.11.2018 09:56 2,8 C 4,4 C 3,9 C 98 % 1010,9 hPa 0,0 l/m 9,3 km/h (2 Bft) O 81 0 min 0,000 mm 0,0 UV-I 44 W/m 2,5 C 0,2 C 14,5 km/h (3 Bft) 100,00 %
25.11.2018 09:58 2,8 C 4,4 C 3,9 C 98 % 1010,9 hPa 0,0 l/m 8,8 km/h (2 Bft) NO 56 0 min 0,000 mm 0,0 UV-I 41 W/m 2,5 C 0,6 C 14,5 km/h (3 Bft) 100,00 %
25.11.2018 10:00 2,8 C 4,4 C 3,9 C 98 % 1010,8 hPa 0,0 l/m 8,4 km/h (2 Bft) O-NO 65 0 min 0,025 mm 0,0 UV-I 42 W/m 2,5 C 0,9 C 11,3 km/h (2 Bft) 100,00 %
25.11.2018 10:02 2,8 C 4,4 C 3,9 C 98 % 1010,8 hPa 0,0 l/m 10,2 km/h (2 Bft) O-NO 71 0 min 0,000 mm 0,0 UV-I 39 W/m 2,5 C -0,5 C 14,5 km/h (3 Bft) 98,31 %
25.11.2018 10:04 2,8 C 4,4 C 3,9 C 98 % 1010,8 hPa 0,0 l/m 6,6 km/h (2 Bft) O-NO 76 0 min 0,000 mm 0,0 UV-I 37 W/m 2,5 C 2,6 C 12,9 km/h (3 Bft) 100,00 %
25.11.2018 10:06 2,9 C 4,4 C 3,9 C 98 % 1010,8 hPa 0,0 l/m 11,0 km/h (2 Bft) O 82 0 min 0,000 mm 0,0 UV-I 38 W/m 2,6 C -1,0 C 14,5 km/h (3 Bft) 100,00 %
25.11.2018 10:08 2,9 C 4,4 C 3,9 C 98 % 1010,8 hPa 0,0 l/m 10,8 km/h (2 Bft) O-NO 57 0 min 0,000 mm 0,0 UV-I 37 W/m 2,6 C -0,8 C 14,5 km/h (3 Bft) 96,00 %
25.11.2018 10:10 2,9 C 4,4 C 3,9 C 98 % 1010,8 hPa 0,0 l/m 11,0 km/h (2 Bft) O 79 0 min 0,000 mm 0,0 UV-I 38 W/m 2,6 C -1,0 C 14,5 km/h (3 Bft) 100,00 %
25.11.2018 10:12 3,0 C 4,4 C 3,9 C 98 % 1010,8 hPa 0,0 l/m 10,0 km/h (2 Bft) O 91 0 min 0,000 mm 0,0 UV-I 39 W/m 2,7 C -0,1 C 12,9 km/h (3 Bft) 98,00 %
25.11.2018 10:14 3,0 C 4,4 C 3,9 C 98 % 1010,8 hPa 0,0 l/m 10,2 km/h (2 Bft) O 90 0 min 0,000 mm 0,0 UV-I 35 W/m 2,7 C -0,3 C 17,7 km/h (3 Bft) 100,00 %
25.11.2018 10:16 3,0 C 4,4 C 3,9 C 98 % 1010,7 hPa 0,0 l/m 10,3 km/h (2 Bft) O-NO 74 0 min 0,000 mm 0,0 UV-I 35 W/m 2,7 C -0,4 C 14,5 km/h (3 Bft) 96,23 %
25.11.2018 10:18 3,1 C 4,4 C 3,9 C 98 % 1010,6 hPa 0,0 l/m 13,8 km/h (3 Bft) O-NO 72 0 min 0,000 mm 0,0 UV-I 40 W/m 2,8 C -2,5 C 16,1 km/h (3 Bft) 100,00 %
25.11.2018 10:20 3,1 C 4,4 C 3,9 C 98 % 1010,6 hPa 0,0 l/m 11,2 km/h (2 Bft) O-NO 74 0 min 0,000 mm 0,0 UV-I 39 W/m 2,8 C -0,9 C 16,1 km/h (3 Bft) 100,00 %
25.11.2018 10:22 3,1 C 4,4 C 3,9 C 98 % 1010,7 hPa 0,0 l/m 8,4 km/h (2 Bft) O 86 0 min 0,000 mm 0,0 UV-I 40 W/m 2,8 C 1,3 C 16,1 km/h (3 Bft) 100,00 %
25.11.2018 10:24 3,1 C 4,4 C 3,9 C 98 % 1010,6 hPa 0,0 l/m 10,1 km/h (2 Bft) O-NO 65 0 min 0,000 mm 0,0 UV-I 42 W/m 2,8 C -0,1 C 14,5 km/h (3 Bft) 98,00 %
25.11.2018 10:26 3,1 C 4,4 C 3,9 C 98 % 1010,5 hPa 0,0 l/m 9,7 km/h (2 Bft) O 89 0 min 0,000 mm 0,0 UV-I 46 W/m 2,8 C 0,2 C 12,9 km/h (3 Bft) 100,00 %
25.11.2018 10:28 3,2 C 4,4 C 3,9 C 98 % 1010,5 hPa 0,0 l/m 9,2 km/h (2 Bft) O 88 0 min 0,000 mm 0,0 UV-I 42 W/m 2,9 C 0,7 C 12,9 km/h (3 Bft) 100,00 %
25.11.2018 10:30 3,2 C 4,4 C 3,9 C 98 % 1010,5 hPa 0,0 l/m 10,4 km/h (2 Bft) O-NO 77 0 min 0,000 mm 0,0 UV-I 49 W/m 2,9 C -0,2 C 12,9 km/h (3 Bft) 100,00 %
25.11.2018 10:32 3,2 C 4,4 C 4,4 C 98 % 1010,3 hPa 0,0 l/m 11,2 km/h (2 Bft) O-NO 67 0 min 0,000 mm 0,0 UV-I 53 W/m 2,9 C -0,8 C 16,1 km/h (3 Bft) 100,00 %
25.11.2018 10:34 3,2 C 4,4 C 3,9 C 98 % 1010,3 hPa 0,0 l/m 9,0 km/h (2 Bft) O-NO 67 0 min 0,000 mm 0,0 UV-I 46 W/m 2,9 C 0,9 C 14,5 km/h (3 Bft) 97,73 %
25.11.2018 10:36 3,2 C 4,4 C 3,9 C 98 % 1010,3 hPa 0,0 l/m 9,7 km/h (2 Bft) O 88 0 min 0,000 mm 0,0 UV-I 42 W/m 2,9 C 0,3 C 19,3 km/h (3 Bft) 100,00 %
25.11.2018 10:38 3,2 C 4,4 C 3,9 C 98 % 1010,3 hPa 0,0 l/m 9,8 km/h (2 Bft) O 100 0 min 0,000 mm 0,0 UV-I 40 W/m 2,9 C 0,2 C 14,5 km/h (3 Bft) 100,00 %
25.11.2018 10:40 3,2 C 4,4 C 3,9 C 98 % 1010,3 hPa 0,0 l/m 13,6 km/h (3 Bft) O 83 0 min 0,000 mm 0,0 UV-I 40 W/m 2,9 C -2,3 C 20,9 km/h (4 Bft) 97,87 %
25.11.2018 10:42 3,2 C 4,4 C 3,9 C 98 % 1010,3 hPa 0,0 l/m 9,3 km/h (2 Bft) O-NO 67 0 min 0,000 mm 0,0 UV-I 37 W/m 2,9 C 0,6 C 16,1 km/h (3 Bft) 100,00 %
25.11.2018 10:44 3,3 C 4,4 C 3,9 C 98 % 1010,3 hPa 0,0 l/m 10,6 km/h (2 Bft) O 86 0 min 0,000 mm 0,0 UV-I 40 W/m 3,0 C -0,2 C 16,1 km/h (3 Bft) 100,00 %
25.11.2018 10:46 3,3 C 4,4 C 3,9 C 98 % 1010,3 hPa 0,0 l/m 8,4 km/h (2 Bft) O-NO 74 0 min 0,000 mm 0,0 UV-I 36 W/m 3,0 C 1,5 C 12,9 km/h (3 Bft) 93,62 %
25.11.2018 10:48 3,3 C 4,4 C 3,9 C 98 % 1010,2 hPa 0,0 l/m 9,7 km/h (2 Bft) O-NO 76 0 min 0,000 mm 0,0 UV-I 33 W/m 3,0 C 0,4 C 14,5 km/h (3 Bft) 95,45 %
25.11.2018 10:50 3,3 C 4,4 C 3,9 C 98 % 1010,2 hPa 0,0 l/m 8,2 km/h (2 Bft) NO 46 0 min 0,000 mm 0,0 UV-I 35 W/m 3,0 C 1,6 C 14,5 km/h (3 Bft) 94,00 %
25.11.2018 10:52 3,3 C 4,4 C 3,9 C 98 % 1010,2 hPa 0,0 l/m 10,6 km/h (2 Bft) O-NO 69 0 min 0,000 mm 0,0 UV-I 41 W/m 3,0 C -0,2 C 14,5 km/h (3 Bft) 95,12 %
25.11.2018 10:54 3,3 C 4,4 C 4,4 C 98 % 1010,2 hPa 0,0 l/m 6,9 km/h (2 Bft) O-NO 67 0 min 0,000 mm 0,0 UV-I 44 W/m 3,0 C 2,8 C 9,7 km/h (2 Bft) 96,23 %
25.11.2018 10:56 3,3 C 4,4 C 4,4 C 98 % 1010,1 hPa 0,0 l/m 6,9 km/h (2 Bft) O-NO 65 0 min 0,000 mm 0,0 UV-I 40 W/m 3,0 C 2,8 C 12,9 km/h (3 Bft) 96,00 %
25.11.2018 10:58 3,3 C 4,4 C 4,4 C 98 % 1010,1 hPa 0,0 l/m 10,4 km/h (2 Bft) O-NO 73 0 min 0,000 mm 0,0 UV-I 44 W/m 3,0 C -0,1 C 16,1 km/h (3 Bft) 94,74 %
25.11.2018 11:00 3,4 C 4,4 C 4,4 C 98 % 1010,1 hPa 0,0 l/m 11,4 km/h (2 Bft) O 80 0 min 0,026 mm 0,0 UV-I 45 W/m 3,1 C -0,7 C 14,5 km/h (3 Bft) 95,74 %
25.11.2018 11:02 3,4 C 4,4 C 4,4 C 98 % 1010,1 hPa 0,0 l/m 7,5 km/h (2 Bft) O-NO 76 0 min 0,000 mm 0,0 UV-I 44 W/m 3,1 C 2,4 C 12,9 km/h (3 Bft) 95,45 %
25.11.2018 11:04 3,4 C 4,4 C 4,4 C 98 % 1010,0 hPa 0,0 l/m 10,0 km/h (2 Bft) NO 52 0 min 0,000 mm 0,0 UV-I 46 W/m 3,1 C 0,3 C 14,5 km/h (3 Bft) 94,92 %
25.11.2018 11:06 3,5 C 4,4 C 4,4 C 98 % 1010,0 hPa 0,0 l/m 10,2 km/h (2 Bft) O-NO 69 0 min 0,000 mm 0,0 UV-I 43 W/m 3,2 C 0,3 C 16,1 km/h (3 Bft) 93,18 %
25.11.2018 11:08 3,5 C 4,4 C 4,4 C 98 % 1009,9 hPa 0,0 l/m 10,9 km/h (2 Bft) NO 43 0 min 0,000 mm 0,0 UV-I 46 W/m 3,2 C -0,2 C 16,1 km/h (3 Bft) 97,87 %
25.11.2018 11:10 3,5 C 4,4 C 4,4 C 98 % 1009,8 hPa 0,0 l/m 10,8 km/h (2 Bft) O-NO 60 0 min 0,000 mm 0,0 UV-I 42 W/m 3,2 C -0,2 C 16,1 km/h (3 Bft) 95,74 %
25.11.2018 11:12 3,5 C 4,4 C 4,4 C 98 % 1009,8 hPa 0,0 l/m 10,7 km/h (2 Bft) O-NO 58 0 min 0,000 mm 0,0 UV-I 45 W/m 3,2 C -0,1 C 16,1 km/h (3 Bft) 97,92 %
25.11.2018 11:14 3,4 C 4,4 C 4,4 C 98 % 1009,8 hPa 0,0 l/m 8,4 km/h (2 Bft) O-NO 61 0 min 0,000 mm 0,0 UV-I 51 W/m 3,1 C 1,6 C 14,5 km/h (3 Bft) 98,00 %
25.11.2018 11:16 3,4 C 4,4 C 4,4 C 98 % 1009,7 hPa 0,0 l/m 7,5 km/h (2 Bft) O-NO 57 0 min 0,000 mm 0,0 UV-I 46 W/m 3,1 C 2,4 C 14,5 km/h (3 Bft) 97,56 %
25.11.2018 11:18 3,4 C 4,4 C 4,4 C 98 % 1009,7 hPa 0,0 l/m 8,7 km/h (2 Bft) O-NO 65 0 min 0,000 mm 0,0 UV-I 47 W/m 3,1 C 1,3 C 16,1 km/h (3 Bft) 95,45 %
25.11.2018 11:20 3,4 C 4,4 C 4,4 C 98 % 1009,7 hPa 0,0 l/m 12,3 km/h (3 Bft) NO 34 0 min 0,000 mm 0,0 UV-I 49 W/m 3,1 C -1,3 C 16,1 km/h (3 Bft) 98,00 %
25.11.2018 11:22 3,4 C 4,4 C 4,4 C 98 % 1009,7 hPa 0,0 l/m 9,9 km/h (2 Bft) NO 46 0 min 0,000 mm 0,0 UV-I 51 W/m 3,1 C 0,4 C 16,1 km/h (3 Bft) 100,00 %
25.11.2018 11:24 3,4 C 4,4 C 4,4 C 98 % 1009,7 hPa 0,0 l/m 13,5 km/h (3 Bft) O 88 0 min 0,000 mm 0,0 UV-I 63 W/m 3,1 C -2,0 C 19,3 km/h (3 Bft) 97,87 %
25.11.2018 11:26 3,4 C 4,4 C 4,4 C 98 % 1009,7 hPa 0,0 l/m 13,8 km/h (3 Bft) O-NO 71 0 min 0,000 mm 0,0 UV-I 69 W/m 3,1 C -2,2 C 19,3 km/h (3 Bft) 100,00 %
25.11.2018 11:28 3,4 C 4,4 C 4,4 C 98 % 1009,6 hPa 0,0 l/m 18,4 km/h (3 Bft) O 101 0 min 0,000 mm 0,0 UV-I 65 W/m 3,1 C -4,5 C 24,1 km/h (4 Bft) 98,00 %
25.11.2018 11:30 3,4 C 4,4 C 4,4 C 98 % 1009,5 hPa 0,0 l/m 15,4 km/h (3 Bft) O-NO 68 0 min 0,000 mm 0,0 UV-I 63 W/m 3,1 C -3,1 C 22,5 km/h (4 Bft) 96,00 %
25.11.2018 11:32 3,4 C 4,4 C 4,4 C 98 % 1009,5 hPa 0,0 l/m 15,8 km/h (3 Bft) O-NO 69 0 min 0,000 mm 0,0 UV-I 58 W/m 3,1 C -3,3 C 20,9 km/h (4 Bft) 98,11 %
25.11.2018 11:34 3,4 C 4,4 C 4,4 C 98 % 1009,4 hPa 0,0 l/m 11,1 km/h (2 Bft) NO 48 0 min 0,000 mm 0,0 UV-I 51 W/m 3,1 C -0,5 C 19,3 km/h (3 Bft) 97,87 %
25.11.2018 11:36 3,4 C 4,4 C 4,4 C 98 % 1009,4 hPa 0,0 l/m 11,2 km/h (2 Bft) O-NO 73 0 min 0,000 mm 0,0 UV-I 59 W/m 3,1 C -0,6 C 19,3 km/h (3 Bft) 97,87 %
25.11.2018 11:38 3,4 C 4,4 C 4,4 C 98 % 1009,3 hPa 0,0 l/m 12,1 km/h (2 Bft) O-NO 57 0 min 0,000 mm 0,0 UV-I 66 W/m 3,1 C -1,2 C 20,9 km/h (4 Bft) 97,37 %
25.11.2018 11:40 3,5 C 4,4 C 4,4 C 98 % 1009,3 hPa 0,0 l/m 13,1 km/h (3 Bft) O-NO 67 0 min 0,000 mm 0,0 UV-I 64 W/m 3,2 C -1,7 C 20,9 km/h (4 Bft) 96,00 %
25.11.2018 11:42 3,5 C 4,4 C 4,4 C 98 % 1009,3 hPa 0,0 l/m 13,1 km/h (3 Bft) O-NO 70 0 min 0,000 mm 0,0 UV-I 62 W/m 3,2 C -1,7 C 20,9 km/h (4 Bft) 97,87 %
25.11.2018 11:44 3,4 C 4,4 C 4,4 C 98 % 1009,3 hPa 0,0 l/m 10,2 km/h (2 Bft) O-NO 69 0 min 0,000 mm 0,0 UV-I 55 W/m 3,1 C 0,2 C 17,7 km/h (3 Bft) 96,23 %
25.11.2018 11:46 3,5 C 4,4 C 4,4 C 98 % 1009,3 hPa 0,0 l/m 10,7 km/h (2 Bft) O-NO 59 0 min 0,000 mm 0,0 UV-I 56 W/m 3,2 C -0,1 C 14,5 km/h (3 Bft) 97,73 %
25.11.2018 11:48 3,5 C 4,4 C 4,4 C 98 % 1009,2 hPa 0,0 l/m 14,9 km/h (3 Bft) O-NO 67 0 min 0,000 mm 0,0 UV-I 61 W/m 3,2 C -2,7 C 20,9 km/h (4 Bft) 97,62 %
25.11.2018 11:50 3,5 C 4,4 C 4,4 C 98 % 1009,2 hPa 0,0 l/m 14,7 km/h (3 Bft) O-NO 78 0 min 0,000 mm 0,0 UV-I 66 W/m 3,2 C -2,6 C 19,3 km/h (3 Bft) 97,87 %
25.11.2018 11:52 3,5 C 4,4 C 4,4 C 98 % 1009,2 hPa 0,0 l/m 14,5 km/h (3 Bft) O-NO 57 0 min 0,000 mm 0,0 UV-I 64 W/m 3,2 C -2,5 C 27,4 km/h (4 Bft) 96,23 %
25.11.2018 11:54 3,4 C 4,4 C 4,4 C 98 % 1009,1 hPa 0,0 l/m 14,2 km/h (3 Bft) O 93 0 min 0,000 mm 0,0 UV-I 61 W/m 3,1 C -2,4 C 25,7 km/h (4 Bft) 97,37 %
25.11.2018 11:56 3,4 C 4,4 C 4,4 C 98 % 1009,2 hPa 0,0 l/m 17,3 km/h (3 Bft) O-NO 78 0 min 0,000 mm 0,0 UV-I 62 W/m 3,1 C -4,0 C 22,5 km/h (4 Bft) 98,00 %
25.11.2018 11:58 3,4 C 4,4 C 4,4 C 98 % 1009,1 hPa 0,0 l/m 14,9 km/h (3 Bft) O-NO 76 0 min 0,000 mm 0,0 UV-I 63 W/m 3,1 C -2,8 C 20,9 km/h (4 Bft) 98,00 %
25.11.2018 12:00 3,4 C 4,4 C 4,4 C 98 % 1009,0 hPa 0,0 l/m 19,4 km/h (3 Bft) O 90 0 min 0,000 mm 0,0 UV-I 64 W/m 3,1 C -5,0 C 24,1 km/h (4 Bft) 95,45 %
25.11.2018 12:02 3,5 C 4,4 C 4,4 C 98 % 1009,0 hPa 0,0 l/m 14,8 km/h (3 Bft) O-NO 72 0 min 0,025 mm 0,0 UV-I 57 W/m 3,2 C -2,6 C 19,3 km/h (3 Bft) 93,62 %
25.11.2018 12:04 3,5 C 4,4 C 4,4 C 98 % 1008,9 hPa 0,0 l/m 15,4 km/h (3 Bft) O-SO 106 0 min 0,000 mm 0,0 UV-I 60 W/m 3,2 C -3,0 C 24,1 km/h (4 Bft) 97,56 %
25.11.2018 12:06 3,5 C 4,4 C 4,4 C 98 % 1008,9 hPa 0,0 l/m 15,8 km/h (3 Bft) O 100 0 min 0,000 mm 0,0 UV-I 65 W/m 3,2 C -3,2 C 22,5 km/h (4 Bft) 94,64 %
25.11.2018 12:08 3,5 C 4,4 C 4,4 C 98 % 1008,9 hPa 0,0 l/m 15,8 km/h (3 Bft) O 95 0 min 0,000 mm 0,0 UV-I 64 W/m 3,2 C -3,2 C 20,9 km/h (4 Bft) 95,74 %
25.11.2018 12:10 3,5 C 4,4 C 4,4 C 98 % 1008,9 hPa 0,0 l/m 13,9 km/h (3 Bft) O 96 0 min 0,000 mm 0,0 UV-I 52 W/m 3,2 C -2,1 C 20,9 km/h (4 Bft) 94,00 %
25.11.2018 12:12 3,5 C 4,4 C 4,4 C 98 % 1008,9 hPa 0,0 l/m 15,9 km/h (3 Bft) O 94 0 min 0,000 mm 0,0 UV-I 49 W/m 3,2 C -3,2 C 24,1 km/h (4 Bft) 97,56 %
25.11.2018 12:14 3,4 C 4,4 C 4,4 C 98 % 1008,8 hPa 0,0 l/m 17,1 km/h (3 Bft) O 81 0 min 0,000 mm 0,0 UV-I 56 W/m 3,1 C -3,9 C 25,7 km/h (4 Bft) 94,34 %
25.11.2018 12:16 3,4 C 4,4 C 4,4 C 98 % 1008,9 hPa 0,0 l/m 17,0 km/h (3 Bft) O 84 0 min 0,000 mm 0,0 UV-I 56 W/m 3,1 C -3,9 C 27,4 km/h (4 Bft) 94,74 %
25.11.2018 12:18 3,4 C 4,4 C 4,4 C 98 % 1008,8 hPa 0,0 l/m 14,1 km/h (3 Bft) O 89 0 min 0,000 mm 0,0 UV-I 58 W/m 3,1 C -2,4 C 17,7 km/h (3 Bft) 96,23 %
25.11.2018 12:20 3,5 C 4,4 C 4,4 C 98 % 1008,8 hPa 0,0 l/m 13,9 km/h (3 Bft) SO 130 0 min 0,000 mm 0,0 UV-I 56 W/m 3,2 C -2,1 C 20,9 km/h (4 Bft) 92,11 %
25.11.2018 12:22 3,5 C 4,4 C 4,4 C 98 % 1008,7 hPa 0,0 l/m 15,6 km/h (3 Bft) O-SO 117 0 min 0,000 mm 0,0 UV-I 51 W/m 3,2 C -3,1 C 20,9 km/h (4 Bft) 96,00 %
25.11.2018 12:24 3,5 C 4,4 C 4,4 C 98 % 1008,7 hPa 0,0 l/m 13,0 km/h (3 Bft) O-SO 114 0 min 0,000 mm 0,0 UV-I 46 W/m 3,2 C -1,6 C 17,7 km/h (3 Bft) 94,00 %
25.11.2018 12:26 3,5 C 4,4 C 4,4 C 98 % 1008,7 hPa 0,0 l/m 18,2 km/h (3 Bft) O-SO 106 0 min 0,000 mm 0,0 UV-I 48 W/m 3,2 C -4,3 C 24,1 km/h (4 Bft) 97,62 %
25.11.2018 12:28 3,5 C 4,4 C 4,4 C 98 % 1008,7 hPa 0,0 l/m 17,8 km/h (3 Bft) O 99 0 min 0,000 mm 0,0 UV-I 43 W/m 3,2 C -4,1 C 24,1 km/h (4 Bft) 98,11 %
25.11.2018 12:30 3,4 C 4,4 C 4,4 C 98 % 1008,6 hPa 0,0 l/m 16,1 km/h (3 Bft) O-SO 113 0 min 0,000 mm 0,0 UV-I 43 W/m 3,1 C -3,4 C 20,9 km/h (4 Bft) 97,37 %
25.11.2018 12:32 3,5 C 4,4 C 4,4 C 98 % 1008,6 hPa 0,0 l/m 16,7 km/h (3 Bft) O-SO 103 0 min 0,000 mm 0,0 UV-I 44 W/m 3,2 C -3,6 C 22,5 km/h (4 Bft) 98,18 %
25.11.2018 12:34 3,5 C 4,4 C 4,4 C 98 % 1008,6 hPa 0,0 l/m 14,5 km/h (3 Bft) O 91 0 min 0,000 mm 0,0 UV-I 49 W/m 3,2 C -2,5 C 20,9 km/h (4 Bft) 92,68 %
25.11.2018 12:36 3,5 C 4,4 C 4,4 C 98 % 1008,6 hPa 0,0 l/m 12,2 km/h (2 Bft) O 82 0 min 0,000 mm 0,0 UV-I 46 W/m 3,2 C -1,1 C 17,7 km/h (3 Bft) 98,11 %
25.11.2018 12:38 3,6 C 4,4 C 4,4 C 98 % 1008,5 hPa 0,0 l/m 11,4 km/h (2 Bft) O-SO 103 0 min 0,000 mm 0,0 UV-I 46 W/m 3,3 C -0,5 C 20,9 km/h (4 Bft) 97,37 %
25.11.2018 12:40 3,6 C 4,4 C 4,4 C 98 % 1008,4 hPa 0,0 l/m 17,8 km/h (3 Bft) O 98 0 min 0,000 mm 0,0 UV-I 55 W/m 3,3 C -4,0 C 25,7 km/h (4 Bft) 98,21 %
25.11.2018 12:42 3,5 C 4,4 C 4,4 C 98 % 1008,4 hPa 0,0 l/m 18,4 km/h (3 Bft) O 85 0 min 0,000 mm 0,0 UV-I 54 W/m 3,2 C -4,4 C 25,7 km/h (4 Bft) 100,00 %
25.11.2018 12:44 3,5 C 4,4 C 4,4 C 98 % 1008,4 hPa 0,0 l/m 15,7 km/h (3 Bft) O 100 0 min 0,000 mm 0,0 UV-I 47 W/m 3,2 C -3,1 C 22,5 km/h (4 Bft) 100,00 %
25.11.2018 12:46 3,6 C 4,4 C 4,4 C 98 % 1008,4 hPa 0,0 l/m 13,7 km/h (3 Bft) O-NO 76 0 min 0,000 mm 0,0 UV-I 43 W/m 3,3 C -1,9 C 17,7 km/h (3 Bft) 100,00 %
25.11.2018 12:48 3,6 C 4,4 C 4,4 C 98 % 1008,4 hPa 0,0 l/m 14,6 km/h (3 Bft) O-SO 106 0 min 0,000 mm 0,0 UV-I 41 W/m 3,3 C -2,4 C 19,3 km/h (3 Bft) 96,23 %
25.11.2018 12:50 3,6 C 4,4 C 4,4 C 98 % 1008,4 hPa 0,0 l/m 14,7 km/h (3 Bft) O 86 0 min 0,000 mm 0,0 UV-I 41 W/m 3,3 C -2,5 C 22,5 km/h (4 Bft) 100,00 %
25.11.2018 12:52 3,6 C 4,4 C 4,4 C 98 % 1008,3 hPa 0,0 l/m 14,6 km/h (3 Bft) NO 48 0 min 0,000 mm 0,0 UV-I 43 W/m 3,3 C -2,4 C 20,9 km/h (4 Bft) 96,00 %
25.11.2018 12:54 3,7 C 4,4 C 4,4 C 98 % 1008,3 hPa 0,0 l/m 18,2 km/h (3 Bft) O-NO 57 0 min 0,000 mm 0,0 UV-I 44 W/m 3,4 C -4,1 C 25,7 km/h (4 Bft) 97,87 %
25.11.2018 12:56 3,7 C 4,4 C 4,4 C 98 % 1008,3 hPa 0,0 l/m 16,8 km/h (3 Bft) O-NO 67 0 min 0,000 mm 0,0 UV-I 43 W/m 3,4 C -3,4 C 22,5 km/h (4 Bft) 96,00 %
25.11.2018 12:58 3,6 C 4,4 C 4,4 C 98 % 1008,2 hPa 0,0 l/m 17,2 km/h (3 Bft) O 82 0 min 0,000 mm 0,0 UV-I 44 W/m 3,3 C -3,7 C 22,5 km/h (4 Bft) 97,56 %
25.11.2018 13:00 3,7 C 4,4 C 4,4 C 98 % 1008,2 hPa 0,0 l/m 19,7 km/h (3 Bft) O-NO 76 0 min 0,026 mm 0,0 UV-I 46 W/m 3,4 C -4,7 C 25,7 km/h (4 Bft) 97,78 %
25.11.2018 13:02 3,7 C 4,4 C 4,4 C 98 % 1008,1 hPa 0,0 l/m 22,0 km/h (4 Bft) O 84 0 min 0,000 mm 0,0 UV-I 47 W/m 3,4 C -5,6 C 32,2 km/h (5 Bft) 98,08 %
25.11.2018 13:04 3,7 C 4,4 C 4,4 C 98 % 1008,1 hPa 0,0 l/m 19,5 km/h (3 Bft) O-NO 63 0 min 0,000 mm 0,0 UV-I 46 W/m 3,4 C -4,6 C 29,0 km/h (5 Bft) 97,44 %
25.11.2018 13:06 3,7 C 4,4 C 4,4 C 98 % 1008,0 hPa 0,0 l/m 20,8 km/h (4 Bft) O-SO 107 0 min 0,000 mm 0,0 UV-I 41 W/m 3,4 C -5,2 C 25,7 km/h (4 Bft) 98,00 %
25.11.2018 13:08 3,7 C 4,4 C 4,4 C 98 % 1008,0 hPa 0,0 l/m 17,6 km/h (3 Bft) O 81 0 min 0,000 mm 0,0 UV-I 40 W/m 3,4 C -3,8 C 22,5 km/h (4 Bft) 97,87 %
25.11.2018 13:10 3,7 C 4,4 C 4,4 C 98 % 1008,0 hPa 0,0 l/m 21,4 km/h (4 Bft) O 86 0 min 0,000 mm 0,0 UV-I 44 W/m 3,4 C -5,4 C 27,4 km/h (4 Bft) 95,74 %
25.11.2018 13:12 3,7 C 4,4 C 4,4 C 98 % 1008,0 hPa 0,0 l/m 20,1 km/h (4 Bft) NO 53 0 min 0,000 mm 0,0 UV-I 43 W/m 3,4 C -4,9 C 25,7 km/h (4 Bft) 98,11 %
25.11.2018 13:14 3,8 C 4,4 C 4,4 C 98 % 1008,0 hPa 0,0 l/m 16,1 km/h (3 Bft) O-NO 67 0 min 0,000 mm 0,0 UV-I 41 W/m 3,5 C -2,9 C 29,0 km/h (5 Bft) 97,73 %
25.11.2018 13:16 3,8 C 4,4 C 4,4 C 98 % 1008,0 hPa 0,0 l/m 23,1 km/h (4 Bft) O 90 0 min 0,000 mm 0,0 UV-I 44 W/m 3,5 C -5,9 C 29,0 km/h (5 Bft) 98,11 %
25.11.2018 13:18 3,8 C 4,4 C 4,4 C 98 % 1007,9 hPa 0,0 l/m 17,1 km/h (3 Bft) O-NO 58 0 min 0,000 mm 0,0 UV-I 44 W/m 3,5 C -3,4 C 27,4 km/h (4 Bft) 94,74 %
25.11.2018 13:20 3,8 C 4,4 C 4,4 C 98 % 1007,9 hPa 0,0 l/m 17,2 km/h (3 Bft) O-SO 109 0 min 0,000 mm 0,0 UV-I 47 W/m 3,5 C -3,5 C 25,7 km/h (4 Bft) 97,87 %
25.11.2018 13:22 3,8 C 4,4 C 4,4 C 98 % 1007,9 hPa 0,0 l/m 15,0 km/h (3 Bft) SO 140 0 min 0,000 mm 0,0 UV-I 44 W/m 3,5 C -2,4 C 22,5 km/h (4 Bft) 100,00 %
25.11.2018 13:24 3,8 C 4,4 C 4,4 C 98 % 1007,9 hPa 0,0 l/m 17,1 km/h (3 Bft) O-NO 76 0 min 0,000 mm 0,0 UV-I 45 W/m 3,5 C -3,4 C 22,5 km/h (4 Bft) 96,15 %
25.11.2018 13:26 3,8 C 4,4 C 4,4 C 98 % 1007,9 hPa 0,0 l/m 15,5 km/h (3 Bft) NO 46 0 min 0,000 mm 0,0 UV-I 44 W/m 3,5 C -2,6 C 22,5 km/h (4 Bft) 98,53 %
25.11.2018 13:28 3,8 C 4,4 C 4,4 C 98 % 1007,9 hPa 0,0 l/m 16,6 km/h (3 Bft) O-NO 77 0 min 0,000 mm 0,0 UV-I 48 W/m 3,5 C -3,2 C 20,9 km/h (4 Bft) 92,68 %
25.11.2018 13:30 3,8 C 4,4 C 4,4 C 98 % 1007,8 hPa 0,0 l/m 19,6 km/h (3 Bft) O-NO 78 0 min 0,000 mm 0,0 UV-I 46 W/m 3,5 C -4,6 C 25,7 km/h (4 Bft) 96,23 %
25.11.2018 13:32 3,8 C 4,4 C 4,4 C 98 % 1007,7 hPa 0,0 l/m 21,5 km/h (4 Bft) O-SO 113 0 min 0,000 mm 0,0 UV-I 46 W/m 3,5 C -5,3 C 29,0 km/h (5 Bft) 98,00 %
25.11.2018 13:34 3,8 C 4,4 C 4,4 C 98 % 1007,8 hPa 0,0 l/m 18,2 km/h (3 Bft) O-NO 67 0 min 0,000 mm 0,0 UV-I 41 W/m 3,5 C -3,9 C 25,7 km/h (4 Bft) 97,87 %
25.11.2018 13:36 3,8 C 4,4 C 4,4 C 98 % 1007,7 hPa 0,0 l/m 20,3 km/h (4 Bft) O 96 0 min 0,000 mm 0,0 UV-I 40 W/m 3,5 C -4,8 C 29,0 km/h (5 Bft) 95,74 %
25.11.2018 13:38 3,8 C 4,4 C 4,4 C 98 % 1007,7 hPa 0,0 l/m 19,1 km/h (3 Bft) O-NO 69 0 min 0,000 mm 0,0 UV-I 40 W/m 3,5 C -4,3 C 27,4 km/h (4 Bft) 97,87 %
25.11.2018 13:40 3,9 C 4,4 C 4,4 C 98 % 1007,7 hPa 0,0 l/m 19,3 km/h (3 Bft) O 84 0 min 0,000 mm 0,0 UV-I 40 W/m 3,6 C -4,3 C 27,4 km/h (4 Bft) 94,44 %
25.11.2018 13:42 3,9 C 4,4 C 4,4 C 98 % 1007,6 hPa 0,0 l/m 14,8 km/h (3 Bft) O-NO 69 0 min 0,000 mm 0,0 UV-I 40 W/m 3,6 C -2,1 C 24,1 km/h (4 Bft) 98,00 %
25.11.2018 13:44 3,9 C 4,4 C 4,4 C 98 % 1007,6 hPa 0,0 l/m 17,1 km/h (3 Bft) O-SO 106 0 min 0,000 mm 0,0 UV-I 37 W/m 3,6 C -3,3 C 24,1 km/h (4 Bft) 95,74 %
25.11.2018 13:46 3,9 C 4,4 C 4,4 C 98 % 1007,7 hPa 0,0 l/m 20,3 km/h (4 Bft) O 94 0 min 0,000 mm 0,0 UV-I 40 W/m 3,6 C -4,7 C 27,4 km/h (4 Bft) 100,00 %
25.11.2018 13:48 3,9 C 4,4 C 5,0 C 98 % 1007,6 hPa 0,0 l/m 18,3 km/h (3 Bft) O-NO 63 0 min 0,000 mm 0,0 UV-I 40 W/m 3,6 C -3,9 C 25,7 km/h (4 Bft) 100,00 %
25.11.2018 13:50 4,0 C 4,4 C 4,4 C 98 % 1007,6 hPa 0,0 l/m 17,7 km/h (3 Bft) O-SO 107 0 min 0,000 mm 0,0 UV-I 37 W/m 3,7 C -3,5 C 24,1 km/h (4 Bft) 100,00 %
25.11.2018 13:52 4,0 C 4,4 C 5,0 C 98 % 1007,5 hPa 0,0 l/m 16,5 km/h (3 Bft) NO 48 0 min 0,000 mm 0,0 UV-I 35 W/m 3,7 C -2,9 C 22,5 km/h (4 Bft) 100,00 %
25.11.2018 13:54 4,0 C 4,4 C 5,0 C 98 % 1007,6 hPa 0,0 l/m 18,5 km/h (3 Bft) O 86 0 min 0,000 mm 0,0 UV-I 38 W/m 3,7 C -3,8 C 24,1 km/h (4 Bft) 100,00 %
25.11.2018 13:56 4,0 C 4,4 C 5,0 C 98 % 1007,6 hPa 0,0 l/m 15,5 km/h (3 Bft) O-NO 70 0 min 0,000 mm 0,0 UV-I 37 W/m 3,7 C -2,4 C 22,5 km/h (4 Bft) 100,00 %
25.11.2018 13:58 4,1 C 4,4 C 5,0 C 98 % 1007,5 hPa 0,0 l/m 18,5 km/h (3 Bft) O 94 0 min 0,000 mm 0,0 UV-I 37 W/m 3,8 C -3,7 C 24,1 km/h (4 Bft) 100,00 %
25.11.2018 14:00 4,1 C 4,4 C 5,0 C 98 % 1007,5 hPa 0,0 l/m 19,2 km/h (3 Bft) O-NO 62 0 min 0,025 mm 0,0 UV-I 38 W/m 3,8 C -4,0 C 27,4 km/h (4 Bft) 97,87 %
25.11.2018 14:02 4,1 C 4,4 C 5,0 C 98 % 1007,4 hPa 0,0 l/m 20,0 km/h (4 Bft) O 90 0 min 0,000 mm 0,0 UV-I 36 W/m 3,8 C -4,3 C 27,4 km/h (4 Bft) 100,00 %
25.11.2018 14:04 4,1 C 4,4 C 4,4 C 98 % 1007,4 hPa 0,0 l/m 18,5 km/h (3 Bft) O-NO 72 0 min 0,000 mm 0,0 UV-I 33 W/m 3,8 C -3,7 C 29,0 km/h (5 Bft) 100,00 %
25.11.2018 14:06 4,1 C 4,4 C 5,0 C 98 % 1007,4 hPa 0,0 l/m 16,6 km/h (3 Bft) O 80 0 min 0,000 mm 0,0 UV-I 32 W/m 3,8 C -2,8 C 25,7 km/h (4 Bft) 97,37 %
25.11.2018 14:08 4,1 C 4,4 C 5,0 C 98 % 1007,3 hPa 0,0 l/m 15,4 km/h (3 Bft) O-NO 70 0 min 0,000 mm 0,0 UV-I 34 W/m 3,8 C -2,2 C 22,5 km/h (4 Bft) 98,25 %
25.11.2018 14:10 4,1 C 4,4 C 5,0 C 98 % 1007,3 hPa 0,0 l/m 17,3 km/h (3 Bft) O 86 0 min 0,000 mm 0,0 UV-I 35 W/m 3,8 C -3,2 C 24,1 km/h (4 Bft) 100,00 %
25.11.2018 14:12 4,1 C 4,4 C 5,0 C 98 % 1007,3 hPa 0,0 l/m 15,7 km/h (3 Bft) O 95 0 min 0,000 mm 0,0 UV-I 32 W/m 3,8 C -2,4 C 20,9 km/h (4 Bft) 100,00 %
25.11.2018 14:14 4,1 C 4,4 C 5,0 C 98 % 1007,3 hPa 0,0 l/m 18,0 km/h (3 Bft) O 84 0 min 0,000 mm 0,0 UV-I 32 W/m 3,8 C -3,5 C 24,1 km/h (4 Bft) 97,37 %
25.11.2018 14:16 4,2 C 4,4 C 5,0 C 98 % 1007,2 hPa 0,0 l/m 15,0 km/h (3 Bft) O 101 0 min 0,000 mm 0,0 UV-I 32 W/m 3,9 C -1,9 C 27,4 km/h (4 Bft) 100,00 %
25.11.2018 14:18 4,2 C 4,4 C 5,0 C 98 % 1007,2 hPa 0,0 l/m 15,8 km/h (3 Bft) O 82 0 min 0,000 mm 0,0 UV-I 30 W/m 3,9 C -2,3 C 22,5 km/h (4 Bft) 100,00 %
25.11.2018 14:20 4,2 C 4,4 C 5,0 C 98 % 1007,1 hPa 0,0 l/m 15,8 km/h (3 Bft) O-NO 77 0 min 0,000 mm 0,0 UV-I 29 W/m 3,9 C -2,3 C 22,5 km/h (4 Bft) 100,00 %
25.11.2018 14:22 4,2 C 4,4 C 5,0 C 98 % 1007,1 hPa 0,0 l/m 18,0 km/h (3 Bft) O-SO 103 0 min 0,000 mm 0,0 UV-I 28 W/m 3,9 C -3,4 C 24,1 km/h (4 Bft) 100,00 %
25.11.2018 14:24 4,2 C 4,4 C 5,0 C 98 % 1007,1 hPa 0,0 l/m 17,7 km/h (3 Bft) O-NO 67 0 min 0,000 mm 0,0 UV-I 26 W/m 3,9 C -3,2 C 22,5 km/h (4 Bft) 100,00 %
25.11.2018 14:26 4,2 C 4,4 C 5,0 C 98 % 1007,1 hPa 0,0 l/m 16,3 km/h (3 Bft) O 98 0 min 0,000 mm 0,0 UV-I 26 W/m 3,9 C -2,6 C 24,1 km/h (4 Bft) 95,12 %
25.11.2018 14:28 4,2 C 4,4 C 4,4 C 98 % 1007,1 hPa 0,0 l/m 19,7 km/h (3 Bft) O 86 0 min 0,000 mm 0,0 UV-I 25 W/m 3,9 C -4,1 C 25,7 km/h (4 Bft) 98,31 %
25.11.2018 14:30 4,2 C 4,4 C 5,0 C 98 % 1007,1 hPa 0,0 l/m 18,3 km/h (3 Bft) O-NO 67 0 min 0,000 mm 0,0 UV-I 24 W/m 3,9 C -3,5 C 24,1 km/h (4 Bft) 100,00 %
25.11.2018 14:32 4,2 C 4,4 C 5,0 C 98 % 1007,0 hPa 0,0 l/m 15,7 km/h (3 Bft) O-NO 62 0 min 0,000 mm 0,0 UV-I 23 W/m 3,9 C -2,3 C 22,5 km/h (4 Bft) 100,00 %
25.11.2018 14:34 4,3 C 4,4 C 5,0 C 98 % 1007,0 hPa 0,0 l/m 19,0 km/h (3 Bft) O-NO 76 0 min 0,000 mm 0,0 UV-I 25 W/m 4,0 C -3,7 C 25,7 km/h (4 Bft) 100,00 %
25.11.2018 14:36 4,3 C 4,4 C 5,0 C 98 % 1007,0 hPa 0,0 l/m 19,1 km/h (3 Bft) O 80 0 min 0,000 mm 0,0 UV-I 24 W/m 4,0 C -3,7 C 25,7 km/h (4 Bft) 97,56 %
25.11.2018 14:38 4,3 C 4,4 C 5,0 C 98 % 1007,0 hPa 0,0 l/m 15,0 km/h (3 Bft) O-NO 77 0 min 0,000 mm 0,0 UV-I 21 W/m 4,0 C -1,8 C 19,3 km/h (3 Bft) 100,00 %
25.11.2018 14:40 4,3 C 4,4 C 5,0 C 98 % 1006,9 hPa 0,0 l/m 20,2 km/h (4 Bft) O-NO 57 0 min 0,000 mm 0,0 UV-I 22 W/m 4,0 C -4,2 C 25,7 km/h (4 Bft) 100,00 %
25.11.2018 14:42 4,3 C 4,4 C 5,0 C 98 % 1006,9 hPa 0,2 l/m 20,8 km/h (4 Bft) O 92 0 min 0,000 mm 0,0 UV-I 22 W/m 4,0 C -4,4 C 27,4 km/h (4 Bft) 97,73 %
25.11.2018 14:44 4,3 C 4,4 C 5,0 C 98 % 1006,9 hPa 0,0 l/m 16,7 km/h (3 Bft) O-NO 69 0 min 0,000 mm 0,0 UV-I 19 W/m 4,0 C -2,6 C 22,5 km/h (4 Bft) 95,74 %
25.11.2018 14:46 4,3 C 4,4 C 5,0 C 98 % 1006,9 hPa 0,0 l/m 12,3 km/h (3 Bft) NO 53 0 min 0,000 mm 0,0 UV-I 18 W/m 4,0 C -0,2 C 16,1 km/h (3 Bft) 98,11 %
25.11.2018 14:48 4,3 C 4,4 C 5,0 C 98 % 1006,9 hPa 0,0 l/m 16,5 km/h (3 Bft) O-NO 74 0 min 0,000 mm 0,0 UV-I 19 W/m 4,0 C -2,5 C 22,5 km/h (4 Bft) 97,37 %
25.11.2018 14:50 4,3 C 4,4 C 5,0 C 98 % 1006,9 hPa 0,0 l/m 17,0 km/h (3 Bft) NO 47 0 min 0,000 mm 0,0 UV-I 18 W/m 4,0 C -2,8 C 22,5 km/h (4 Bft) 100,00 %
25.11.2018 14:52 4,4 C 4,4 C 5,0 C 98 % 1006,9 hPa 0,0 l/m 16,7 km/h (3 Bft) O-NO 75 0 min 0,000 mm 0,0 UV-I 19 W/m 4,1 C -2,5 C 25,7 km/h (4 Bft) 97,56 %
25.11.2018 14:54 4,3 C 4,4 C 5,0 C 98 % 1006,9 hPa 0,0 l/m 16,6 km/h (3 Bft) O-NO 71 0 min 0,000 mm 0,0 UV-I 18 W/m 4,0 C -2,6 C 22,5 km/h (4 Bft) 94,00 %
25.11.2018 14:56 4,4 C 4,4 C 5,0 C 98 % 1006,8 hPa 0,0 l/m 16,4 km/h (3 Bft) O 80 0 min 0,000 mm 0,0 UV-I 17 W/m 4,1 C -2,4 C 24,1 km/h (4 Bft) 97,62 %
25.11.2018 14:58 4,4 C 4,4 C 5,0 C 98 % 1006,8 hPa 0,0 l/m 17,1 km/h (3 Bft) O 84 0 min 0,000 mm 0,0 UV-I 18 W/m 4,1 C -2,7 C 24,1 km/h (4 Bft) 94,00 %
25.11.2018 15:00 4,4 C 4,4 C 5,0 C 98 % 1006,8 hPa 0,0 l/m 19,1 km/h (3 Bft) O-NO 63 0 min 0,000 mm 0,0 UV-I 18 W/m 4,1 C -3,6 C 25,7 km/h (4 Bft) 96,15 %
25.11.2018 15:02 4,4 C 4,4 C 5,0 C 98 % 1006,7 hPa 0,0 l/m 19,2 km/h (3 Bft) O 88 0 min 0,000 mm 0,0 UV-I 18 W/m 4,1 C -3,6 C 30,6 km/h (5 Bft) 95,83 %
25.11.2018 15:04 4,4 C 4,4 C 5,0 C 98 % 1006,7 hPa 0,0 l/m 18,7 km/h (3 Bft) O-NO 65 0 min 0,000 mm 0,0 UV-I 17 W/m 4,1 C -3,4 C 24,1 km/h (4 Bft) 97,73 %
25.11.2018 15:06 4,4 C 4,4 C 5,0 C 98 % 1006,7 hPa 0,0 l/m 17,3 km/h (3 Bft) O 86 0 min 0,000 mm 0,0 UV-I 17 W/m 4,1 C -2,8 C 25,7 km/h (4 Bft) 98,00 %
25.11.2018 15:08 4,4 C 4,4 C 5,0 C 98 % 1006,8 hPa 0,0 l/m 16,9 km/h (3 Bft) O-NO 73 0 min 0,000 mm 0,0 UV-I 16 W/m 4,1 C -2,6 C 22,5 km/h (4 Bft) 95,45 %
25.11.2018 15:10 4,4 C 4,4 C 5,0 C 98 % 1006,7 hPa 0,0 l/m 13,4 km/h (3 Bft) O 85 0 min 0,000 mm 0,0 UV-I 14 W/m 4,1 C -0,8 C 19,3 km/h (3 Bft) 98,00 %
25.11.2018 15:12 4,4 C 4,4 C 5,0 C 98 % 1006,8 hPa 0,0 l/m 17,9 km/h (3 Bft) O 79 0 min 0,000 mm 0,0 UV-I 15 W/m 4,1 C -3,1 C 27,4 km/h (4 Bft) 94,74 %
25.11.2018 15:14 4,4 C 4,4 C 5,0 C 98 % 1006,8 hPa 0,0 l/m 18,3 km/h (3 Bft) O-NO 63 0 min 0,000 mm 0,0 UV-I 15 W/m 4,1 C -3,2 C 27,4 km/h (4 Bft) 98,11 %
25.11.2018 15:16 4,3 C 4,4 C 5,0 C 98 % 1006,7 hPa 0,0 l/m 16,5 km/h (3 Bft) O 80 0 min 0,000 mm 0,0 UV-I 16 W/m 4,0 C -2,5 C 25,7 km/h (4 Bft) 95,74 %
25.11.2018 15:18 4,3 C 4,4 C 5,0 C 98 % 1006,7 hPa 0,0 l/m 15,4 km/h (3 Bft) O-NO 61 0 min 0,000 mm 0,0 UV-I 16 W/m 4,0 C -2,0 C 19,3 km/h (3 Bft) 98,00 %
25.11.2018 15:20 4,4 C 4,4 C 5,0 C 98 % 1006,7 hPa 0,0 l/m 13,9 km/h (3 Bft) O-NO 65 0 min 0,000 mm 0,0 UV-I 13 W/m 4,1 C -1,1 C 19,3 km/h (3 Bft) 95,45 %
25.11.2018 15:22 4,4 C 4,4 C 5,0 C 98 % 1006,7 hPa 0,0 l/m 15,5 km/h (3 Bft) O-SO 103 0 min 0,000 mm 0,0 UV-I 12 W/m 4,1 C -1,9 C 22,5 km/h (4 Bft) 94,74 %
25.11.2018 15:24 4,3 C 4,4 C 5,0 C 98 % 1006,7 hPa 0,0 l/m 15,8 km/h (3 Bft) O 95 0 min 0,000 mm 0,0 UV-I 13 W/m 4,0 C -2,2 C 25,7 km/h (4 Bft) 98,21 %
25.11.2018 15:26 4,3 C 4,4 C 5,0 C 98 % 1006,7 hPa 0,0 l/m 19,5 km/h (3 Bft) O 96 0 min 0,000 mm 0,0 UV-I 12 W/m 4,0 C -3,9 C 25,7 km/h (4 Bft) 97,56 %
25.11.2018 15:28 4,3 C 4,4 C 5,0 C 98 % 1006,7 hPa 0,0 l/m 21,5 km/h (4 Bft) O 88 0 min 0,000 mm 0,0 UV-I 12 W/m 4,0 C -4,7 C 27,4 km/h (4 Bft) 95,74 %
25.11.2018 15:30 4,3 C 4,4 C 5,0 C 98 % 1006,7 hPa 0,0 l/m 20,3 km/h (4 Bft) O-NO 77 0 min 0,000 mm 0,0 UV-I 12 W/m 4,0 C -4,2 C 29,0 km/h (5 Bft) 100,00 %
25.11.2018 15:32 4,3 C 4,4 C 5,0 C 98 % 1006,7 hPa 0,0 l/m 17,0 km/h (3 Bft) O-NO 61 0 min 0,000 mm 0,0 UV-I 12 W/m 4,0 C -2,8 C 24,1 km/h (4 Bft) 100,00 %
25.11.2018 15:34 4,3 C 4,4 C 4,4 C 98 % 1006,7 hPa 0,0 l/m 18,9 km/h (3 Bft) O 99 0 min 0,000 mm 0,0 UV-I 12 W/m 4,0 C -3,6 C 25,7 km/h (4 Bft) 100,00 %
25.11.2018 15:36 4,3 C 4,4 C 4,4 C 98 % 1006,6 hPa 0,0 l/m 17,6 km/h (3 Bft) O 84 0 min 0,000 mm 0,0 UV-I 12 W/m 4,0 C -3,0 C 27,4 km/h (4 Bft) 97,78 %
25.11.2018 15:38 4,3 C 4,4 C 4,4 C 98 % 1006,6 hPa 0,0 l/m 20,7 km/h (4 Bft) O 89 0 min 0,000 mm 0,0 UV-I 11 W/m 4,0 C -4,4 C 30,6 km/h (5 Bft) 97,87 %
25.11.2018 15:40 4,3 C 4,4 C 4,4 C 98 % 1006,6 hPa 0,0 l/m 18,1 km/h (3 Bft) O 90 0 min 0,000 mm 0,0 UV-I 10 W/m 4,0 C -3,3 C 25,7 km/h (4 Bft) 98,11 %
25.11.2018 15:42 4,3 C 4,4 C 4,4 C 98 % 1006,7 hPa 0,0 l/m 13,8 km/h (3 Bft) O-NO 76 0 min 0,000 mm 0,0 UV-I 9 W/m 4,0 C -1,1 C 20,9 km/h (4 Bft) 97,87 %
25.11.2018 15:44 4,3 C 4,4 C 4,4 C 98 % 1006,6 hPa 0,0 l/m 14,8 km/h (3 Bft) O-SO 108 0 min 0,000 mm 0,0 UV-I 9 W/m 4,0 C -1,7 C 19,3 km/h (3 Bft) 97,56 %
25.11.2018 15:46 4,3 C 4,4 C 4,4 C 98 % 1006,6 hPa 0,0 l/m 14,0 km/h (3 Bft) O 90 0 min 0,000 mm 0,0 UV-I 8 W/m 4,0 C -1,2 C 20,9 km/h (4 Bft) 96,00 %
25.11.2018 15:48 4,3 C 4,4 C 4,4 C 98 % 1006,6 hPa 0,0 l/m 19,3 km/h (3 Bft) O-SO 107 0 min 0,000 mm 0,0 UV-I 7 W/m 4,0 C -3,8 C 27,4 km/h (4 Bft) 97,87 %
25.11.2018 15:50 4,3 C 4,4 C 4,4 C 98 % 1006,7 hPa 0,0 l/m 18,2 km/h (3 Bft) O 100 0 min 0,000 mm 0,0 UV-I 7 W/m 4,0 C -3,3 C 27,4 km/h (4 Bft) 100,00 %
25.11.2018 15:52 4,3 C 4,4 C 4,4 C 98 % 1006,7 hPa 0,0 l/m 17,6 km/h (3 Bft) O-SO 105 0 min 0,000 mm 0,0 UV-I 7 W/m 4,0 C -3,0 C 24,1 km/h (4 Bft) 97,37 %
25.11.2018 15:54 4,3 C 4,4 C 4,4 C 98 % 1006,7 hPa 0,0 l/m 18,0 km/h (3 Bft) O 96 0 min 0,000 mm 0,0 UV-I 7 W/m 4,0 C -3,2 C 25,7 km/h (4 Bft) 98,11 %
25.11.2018 15:56 4,3 C 4,4 C 4,4 C 98 % 1006,7 hPa 0,0 l/m 14,7 km/h (3 Bft) O 96 0 min 0,000 mm 0,0 UV-I 7 W/m 4,0 C -1,6 C 20,9 km/h (4 Bft) 96,00 %
25.11.2018 15:58 4,3 C 4,4 C 4,4 C 98 % 1006,6 hPa 0,0 l/m 15,1 km/h (3 Bft) O 86 0 min 0,000 mm 0,0 UV-I 5 W/m 4,0 C -1,8 C 20,9 km/h (4 Bft) 97,87 %
25.11.2018 16:00 4,3 C 4,4 C 4,4 C 98 % 1006,6 hPa 0,0 l/m 14,9 km/h (3 Bft) O-SO 109 0 min 0,000 mm 0,0 UV-I 5 W/m 4,0 C -1,7 C 17,7 km/h (3 Bft) 96,00 %
25.11.2018 16:02 4,3 C 4,4 C 4,4 C 98 % 1006,6 hPa 0,0 l/m 15,5 km/h (3 Bft) O 82 0 min 0,000 mm 0,0 UV-I 5 W/m 4,0 C -2,0 C 24,1 km/h (4 Bft) 92,11 %
25.11.2018 16:04 4,3 C 4,4 C 4,4 C 98 % 1006,6 hPa 0,0 l/m 13,5 km/h (3 Bft) O-NO 74 0 min 0,000 mm 0,0 UV-I 5 W/m 4,0 C -0,9 C 17,7 km/h (3 Bft) 96,23 %
25.11.2018 16:06 4,3 C 4,4 C 4,4 C 98 % 1006,6 hPa 0,0 l/m 15,1 km/h (3 Bft) O 83 0 min 0,000 mm 0,0 UV-I 1 W/m 4,0 C -1,8 C 24,1 km/h (4 Bft) 95,74 %
25.11.2018 16:08 4,3 C 4,4 C 4,4 C 98 % 1006,6 hPa 0,0 l/m 18,5 km/h (3 Bft) O-NO 63 0 min 0,000 mm 0,0 UV-I 0 W/m 4,0 C -3,4 C 24,1 km/h (4 Bft) 93,62 %
25.11.2018 16:10 4,2 C 4,4 C 4,4 C 98 % 1006,5 hPa 0,0 l/m 15,0 km/h (3 Bft) O-NO 71 0 min 0,000 mm 0,0 UV-I 0 W/m 3,9 C -1,9 C 19,3 km/h (3 Bft) 96,30 %
25.11.2018 16:12 4,3 C 4,4 C 4,4 C 98 % 1006,6 hPa 0,0 l/m 16,9 km/h (3 Bft) O 92 0 min 0,000 mm 0,0 UV-I 0 W/m 4,0 C -2,7 C 22,5 km/h (4 Bft) 95,16 %
25.11.2018 16:14 4,2 C 4,4 C 4,4 C 98 % 1006,6 hPa 0,0 l/m 17,7 km/h (3 Bft) O-NO 72 0 min 0,000 mm 0,0 UV-I 0 W/m 3,9 C -3,2 C 24,1 km/h (4 Bft) 96,00 %
25.11.2018 16:16 4,2 C 4,4 C 4,4 C 98 % 1006,5 hPa 0,0 l/m 18,1 km/h (3 Bft) O 94 0 min 0,000 mm 0,0 UV-I 0 W/m 3,9 C -3,4 C 22,5 km/h (4 Bft) 95,12 %
25.11.2018 16:18 4,2 C 4,4 C 4,4 C 98 % 1006,5 hPa 0,0 l/m 13,7 km/h (3 Bft) O-NO 67 0 min 0,000 mm 0,0 UV-I 0 W/m 3,9 C -1,2 C 20,9 km/h (4 Bft) 94,00 %
25.11.2018 16:20 4,2 C 4,4 C 4,4 C 98 % 1006,6 hPa 0,0 l/m 14,2 km/h (3 Bft) O-NO 66 0 min 0,000 mm 0,0 UV-I 0 W/m 3,9 C -1,5 C 20,9 km/h (4 Bft) 94,74 %
25.11.2018 16:22 4,2 C 4,4 C 4,4 C 98 % 1006,6 hPa 0,0 l/m 17,1 km/h (3 Bft) O-NO 74 0 min 0,000 mm 0,0 UV-I 0 W/m 3,9 C -2,9 C 24,1 km/h (4 Bft) 96,23 %
25.11.2018 16:24 4,2 C 4,4 C 4,4 C 98 % 1006,5 hPa 0,0 l/m 15,4 km/h (3 Bft) O-NO 66 0 min 0,000 mm 0,0 UV-I 0 W/m 3,9 C -2,1 C 19,3 km/h (3 Bft) 97,87 %
25.11.2018 16:26 4,2 C 4,4 C 4,4 C 98 % 1006,5 hPa 0,0 l/m 19,1 km/h (3 Bft) O-SO 111 0 min 0,000 mm 0,0 UV-I 0 W/m 3,9 C -3,8 C 24,1 km/h (4 Bft) 98,00 %
25.11.2018 16:28 4,2 C 4,4 C 4,4 C 98 % 1006,5 hPa 0,0 l/m 17,2 km/h (3 Bft) O-NO 62 0 min 0,000 mm 0,0 UV-I 0 W/m 3,9 C -3,0 C 22,5 km/h (4 Bft) 97,87 %
25.11.2018 16:30 4,2 C 4,4 C 4,4 C 98 % 1006,5 hPa 0,0 l/m 20,4 km/h (4 Bft) O-NO 72 0 min 0,000 mm 0,0 UV-I 0 W/m 3,9 C -4,4 C 25,7 km/h (4 Bft) 96,00 %
25.11.2018 16:32 4,2 C 4,4 C 4,4 C 98 % 1006,5 hPa 0,0 l/m 19,0 km/h (3 Bft) O 86 0 min 0,000 mm 0,0 UV-I 0 W/m 3,9 C -3,8 C 25,7 km/h (4 Bft) 95,45 %
25.11.2018 16:34 4,2 C 4,4 C 4,4 C 98 % 1006,5 hPa 0,0 l/m 17,8 km/h (3 Bft) O 79 0 min 0,000 mm 0,0 UV-I 0 W/m 3,9 C -3,3 C 24,1 km/h (4 Bft) 98,11 %
25.11.2018 16:36 4,2 C 4,4 C 4,4 C 98 % 1006,5 hPa 0,0 l/m 14,6 km/h (3 Bft) O 83 0 min 0,000 mm 0,0 UV-I 0 W/m 3,9 C -1,7 C 22,5 km/h (4 Bft) 97,37 %
25.11.2018 16:38 4,2 C 4,4 C 4,4 C 98 % 1006,5 hPa 0,0 l/m 13,8 km/h (3 Bft) O-NO 77 0 min 0,000 mm 0,0 UV-I 0 W/m 3,9 C -1,2 C 19,3 km/h (3 Bft) 97,87 %
25.11.2018 16:40 4,2 C 4,4 C 4,4 C 98 % 1006,5 hPa 0,0 l/m 18,5 km/h (3 Bft) O-NO 71 0 min 0,000 mm 0,0 UV-I 0 W/m 3,9 C -3,6 C 27,4 km/h (4 Bft) 97,87 %
25.11.2018 16:42 4,2 C 4,4 C 4,4 C 98 % 1006,5 hPa 0,0 l/m 15,9 km/h (3 Bft) NO 53 0 min 0,000 mm 0,0 UV-I 0 W/m 3,9 C -2,4 C 22,5 km/h (4 Bft) 97,73 %
25.11.2018 16:44 4,2 C 4,4 C 4,4 C 98 % 1006,5 hPa 0,0 l/m 20,5 km/h (4 Bft) O 81 0 min 0,000 mm 0,0 UV-I 0 W/m 3,9 C -4,4 C 27,4 km/h (4 Bft) 100,00 %
25.11.2018 16:46 4,2 C 4,4 C 4,4 C 98 % 1006,5 hPa 0,0 l/m 22,6 km/h (4 Bft) O 83 0 min 0,000 mm 0,0 UV-I 0 W/m 3,9 C -5,2 C 29,0 km/h (5 Bft) 100,00 %
25.11.2018 16:48 4,2 C 4,4 C 4,4 C 98 % 1006,5 hPa 0,0 l/m 17,7 km/h (3 Bft) O 82 0 min 0,000 mm 0,0 UV-I 0 W/m 3,9 C -3,2 C 25,7 km/h (4 Bft) 100,00 %
25.11.2018 16:50 4,2 C 4,4 C 4,4 C 98 % 1006,5 hPa 0,0 l/m 18,1 km/h (3 Bft) O-SO 104 0 min 0,000 mm 0,0 UV-I 0 W/m 3,9 C -3,4 C 24,1 km/h (4 Bft) 100,00 %
25.11.2018 16:52 4,2 C 4,4 C 4,4 C 98 % 1006,5 hPa 0,0 l/m 16,6 km/h (3 Bft) O 86 0 min 0,000 mm 0,0 UV-I 0 W/m 3,9 C -2,7 C 24,1 km/h (4 Bft) 98,00 %
25.11.2018 16:54 4,2 C 4,4 C 4,4 C 98 % 1006,4 hPa 0,0 l/m 18,1 km/h (3 Bft) O 80 0 min 0,000 mm 0,0 UV-I 0 W/m 3,9 C -3,4 C 25,7 km/h (4 Bft) 100,00 %
25.11.2018 16:56 4,2 C 4,4 C 4,4 C 98 % 1006,4 hPa 0,0 l/m 16,6 km/h (3 Bft) O 84 0 min 0,000 mm 0,0 UV-I 0 W/m 3,9 C -2,7 C 22,5 km/h (4 Bft) 100,00 %
25.11.2018 16:58 4,2 C 4,4 C 4,4 C 98 % 1006,5 hPa 0,0 l/m 17,5 km/h (3 Bft) O 92 0 min 0,000 mm 0,0 UV-I 0 W/m 3,9 C -3,1 C 25,7 km/h (4 Bft) 97,56 %
25.11.2018 17:00 4,2 C 4,4 C 4,4 C 98 % 1006,5 hPa 0,0 l/m 16,0 km/h (3 Bft) O-NO 61 0 min 0,000 mm 0,0 UV-I 0 W/m 3,9 C -2,4 C 22,5 km/h (4 Bft) 97,87 %
25.11.2018 17:02 4,2 C 4,4 C 4,4 C 98 % 1006,4 hPa 0,0 l/m 17,2 km/h (3 Bft) O-NO 61 0 min 0,000 mm 0,0 UV-I 0 W/m 3,9 C -3,0 C 27,4 km/h (4 Bft) 93,62 %
25.11.2018 17:04 4,2 C 4,4 C 4,4 C 98 % 1006,4 hPa 0,0 l/m 19,2 km/h (3 Bft) O 85 0 min 0,000 mm 0,0 UV-I 0 W/m 3,9 C -3,9 C 25,7 km/h (4 Bft) 98,00 %
25.11.2018 17:06 4,2 C 4,4 C 4,4 C 98 % 1006,3 hPa 0,0 l/m 17,4 km/h (3 Bft) O 79 0 min 0,000 mm 0,0 UV-I 0 W/m 3,9 C -3,1 C 22,5 km/h (4 Bft) 97,87 %
25.11.2018 17:08 4,2 C 4,4 C 4,4 C 98 % 1006,4 hPa 0,0 l/m 16,3 km/h (3 Bft) O 93 0 min 0,000 mm 0,0 UV-I 0 W/m 3,9 C -2,6 C 22,5 km/h (4 Bft) 97,87 %
25.11.2018 17:10 4,2 C 4,4 C 4,4 C 98 % 1006,4 hPa 0,0 l/m 17,3 km/h (3 Bft) O 82 0 min 0,000 mm 0,0 UV-I 0 W/m 3,9 C -3,0 C 24,1 km/h (4 Bft) 97,37 %
25.11.2018 17:12 4,2 C 4,4 C 4,4 C 98 % 1006,4 hPa 0,0 l/m 15,4 km/h (3 Bft) O-NO 76 0 min 0,000 mm 0,0 UV-I 0 W/m 3,9 C -2,1 C 19,3 km/h (3 Bft) 94,34 %
25.11.2018 17:14 4,2 C 4,4 C 4,4 C 98 % 1006,4 hPa 0,0 l/m 13,7 km/h (3 Bft) O-NO 69 0 min 0,000 mm 0,0 UV-I 0 W/m 3,9 C -1,2 C 17,7 km/h (3 Bft) 97,87 %
25.11.2018 17:16 4,2 C 4,4 C 4,4 C 98 % 1006,4 hPa 0,0 l/m 13,0 km/h (3 Bft) O-NO 59 0 min 0,000 mm 0,0 UV-I 0 W/m 3,9 C -0,8 C 17,7 km/h (3 Bft) 96,00 %
25.11.2018 17:18 4,2 C 4,4 C 4,4 C 98 % 1006,5 hPa 0,0 l/m 12,8 km/h (3 Bft) O-NO 71 0 min 0,000 mm 0,0 UV-I 0 W/m 3,9 C -0,7 C 16,1 km/h (3 Bft) 97,56 %
25.11.2018 17:20 4,2 C 4,4 C 4,4 C 98 % 1006,5 hPa 0,0 l/m 14,7 km/h (3 Bft) O-NO 72 0 min 0,000 mm 0,0 UV-I 0 W/m 3,9 C -1,7 C 24,1 km/h (4 Bft) 96,43 %
25.11.2018 17:22 4,2 C 4,4 C 4,4 C 98 % 1006,4 hPa 0,0 l/m 15,4 km/h (3 Bft) O 82 0 min 0,000 mm 0,0 UV-I 0 W/m 3,9 C -2,1 C 19,3 km/h (3 Bft) 95,74 %
25.11.2018 17:24 4,2 C 4,4 C 4,4 C 98 % 1006,4 hPa 0,0 l/m 12,4 km/h (3 Bft) O-NO 63 0 min 0,000 mm 0,0 UV-I 0 W/m 3,9 C -0,4 C 16,1 km/h (3 Bft) 91,67 %
25.11.2018 17:26 4,3 C 4,4 C 4,4 C 98 % 1006,4 hPa 0,0 l/m 13,3 km/h (3 Bft) O-NO 74 0 min 0,000 mm 0,0 UV-I 0 W/m 4,0 C -0,8 C 20,9 km/h (4 Bft) 96,15 %
25.11.2018 17:28 4,2 C 4,4 C 4,4 C 98 % 1006,4 hPa 0,0 l/m 14,5 km/h (3 Bft) O-NO 67 0 min 0,000 mm 0,0 UV-I 0 W/m 3,9 C -1,6 C 19,3 km/h (3 Bft) 93,75 %
25.11.2018 17:30 4,3 C 4,4 C 4,4 C 98 % 1006,4 hPa 0,0 l/m 15,8 km/h (3 Bft) O 95 0 min 0,000 mm 0,0 UV-I 0 W/m 4,0 C -2,2 C 20,9 km/h (4 Bft) 94,23 %
25.11.2018 17:32 4,3 C 4,4 C 4,4 C 98 % 1006,4 hPa 0,0 l/m 15,7 km/h (3 Bft) O 90 0 min 0,000 mm 0,0 UV-I 0 W/m 4,0 C -2,1 C 22,5 km/h (4 Bft) 94,87 %
25.11.2018 17:34 4,3 C 4,4 C 4,4 C 98 % 1006,4 hPa 0,0 l/m 16,2 km/h (3 Bft) O 92 0 min 0,000 mm 0,0 UV-I 0 W/m 4,0 C -2,4 C 24,1 km/h (4 Bft) 98,00 %
25.11.2018 17:36 4,3 C 4,4 C 4,4 C 98 % 1006,3 hPa 0,0 l/m 14,4 km/h (3 Bft) O 100 0 min 0,000 mm 0,0 UV-I 0 W/m 4,0 C -1,5 C 20,9 km/h (4 Bft) 96,00 %
25.11.2018 17:39 4,3 C 4,4 C 4,4 C 98 % 1006,3 hPa 0,0 l/m 16,6 km/h (3 Bft) O 80 0 min 0,000 mm 0,0 UV-I 0 W/m 4,0 C -2,6 C 22,5 km/h (4 Bft) 98,63 %
25.11.2018 17:40 4,3 C 4,4 C 4,4 C 98 % 1006,3 hPa 0,0 l/m 16,5 km/h (3 Bft) O-NO 77 0 min 0,000 mm 0,0 UV-I 0 W/m 4,0 C -2,5 C 19,3 km/h (3 Bft) 100,00 %
25.11.2018 17:42 4,3 C 4,4 C 4,4 C 98 % 1006,4 hPa 0,0 l/m 15,5 km/h (3 Bft) O-NO 64 0 min 0,000 mm 0,0 UV-I 0 W/m 4,0 C -2,0 C 20,9 km/h (4 Bft) 98,00 %
25.11.2018 17:44 4,3 C 4,4 C 4,4 C 98 % 1006,3 hPa 0,0 l/m 12,9 km/h (3 Bft) O 84 0 min 0,000 mm 0,0 UV-I 0 W/m 4,0 C -0,6 C 17,7 km/h (3 Bft) 100,00 %
25.11.2018 17:46 4,3 C 4,4 C 4,4 C 98 % 1006,4 hPa 0,0 l/m 13,7 km/h (3 Bft) O-NO 59 0 min 0,000 mm 0,0 UV-I 0 W/m 4,0 C -1,1 C 19,3 km/h (3 Bft) 98,11 %
25.11.2018 17:49 4,3 C 4,4 C 4,4 C 98 % 1006,3 hPa 0,0 l/m 15,6 km/h (3 Bft) O-NO 59 0 min 0,000 mm 0,0 UV-I 0 W/m 4,0 C -2,1 C 22,5 km/h (4 Bft) 100,00 %
25.11.2018 17:50 4,3 C 4,4 C 4,4 C 98 % 1006,3 hPa 0,0 l/m 16,7 km/h (3 Bft) O 80 0 min 0,000 mm 0,0 UV-I 0 W/m 4,0 C -2,6 C 19,3 km/h (3 Bft) 100,00 %
25.11.2018 17:52 4,3 C 4,4 C 4,4 C 98 % 1006,3 hPa 0,0 l/m 16,6 km/h (3 Bft) O 98 0 min 0,000 mm 0,0 UV-I 0 W/m 4,0 C -2,6 C 22,5 km/h (4 Bft) 100,00 %
25.11.2018 17:54 4,3 C 4,4 C 4,4 C 98 % 1006,3 hPa 0,0 l/m 14,3 km/h (3 Bft) NO 56 0 min 0,000 mm 0,0 UV-I 0 W/m 4,0 C -1,4 C 19,3 km/h (3 Bft) 97,87 %
25.11.2018 17:56 4,3 C 4,4 C 4,4 C 98 % 1006,3 hPa 0,0 l/m 16,1 km/h (3 Bft) O 99 0 min 0,000 mm 0,0 UV-I 0 W/m 4,0 C -2,3 C 20,9 km/h (4 Bft) 98,00 %
25.11.2018 17:58 4,3 C 4,4 C 4,4 C 98 % 1006,3 hPa 0,0 l/m 14,5 km/h (3 Bft) O-NO 78 0 min 0,000 mm 0,0 UV-I 0 W/m 4,0 C -1,5 C 19,3 km/h (3 Bft) 100,00 %
25.11.2018 18:00 4,3 C 4,4 C 4,4 C 98 % 1006,3 hPa 0,0 l/m 16,9 km/h (3 Bft) O 86 0 min 0,000 mm 0,0 UV-I 0 W/m 4,0 C -2,7 C 24,1 km/h (4 Bft) 97,87 %
25.11.2018 18:02 4,3 C 4,4 C 4,4 C 98 % 1006,3 hPa 0,0 l/m 15,1 km/h (3 Bft) O-NO 69 0 min 0,000 mm 0,0 UV-I 0 W/m 4,0 C -1,8 C 19,3 km/h (3 Bft) 100,00 %
25.11.2018 18:04 4,3 C 4,4 C 4,4 C 98 % 1006,4 hPa 0,0 l/m 17,5 km/h (3 Bft) O 97 0 min 0,000 mm 0,0 UV-I 0 W/m 4,0 C -3,0 C 24,1 km/h (4 Bft) 100,00 %
25.11.2018 18:06 4,4 C 4,4 C 4,4 C 98 % 1006,4 hPa 0,0 l/m 20,8 km/h (4 Bft) NO 55 0 min 0,000 mm 0,0 UV-I 0 W/m 4,1 C -4,3 C 29,0 km/h (5 Bft) 100,00 %
25.11.2018 18:08 4,4 C 4,4 C 4,4 C 98 % 1006,4 hPa 0,0 l/m 16,9 km/h (3 Bft) O-SO 108 0 min 0,000 mm 0,0 UV-I 0 W/m 4,1 C -2,6 C 22,5 km/h (4 Bft) 98,11 %
25.11.2018 18:10 4,4 C 4,4 C 4,4 C 98 % 1006,3 hPa 0,0 l/m 16,0 km/h (3 Bft) O-NO 71 0 min 0,000 mm 0,0 UV-I 0 W/m 4,1 C -2,2 C 20,9 km/h (4 Bft) 100,00 %
25.11.2018 18:12 4,4 C 4,4 C 4,4 C 98 % 1006,3 hPa 0,0 l/m 16,4 km/h (3 Bft) O-NO 71 0 min 0,000 mm 0,0 UV-I 0 W/m 4,1 C -2,4 C 22,5 km/h (4 Bft) 100,00 %
25.11.2018 18:14 4,4 C 4,4 C 4,4 C 98 % 1006,3 hPa 0,0 l/m 17,3 km/h (3 Bft) O-NO 58 0 min 0,000 mm 0,0 UV-I 0 W/m 4,1 C -2,8 C 25,7 km/h (4 Bft) 98,11 %
25.11.2018 18:16 4,4 C 4,4 C 4,4 C 98 % 1006,2 hPa 0,0 l/m 14,0 km/h (3 Bft) O-NO 66 0 min 0,000 mm 0,0 UV-I 0 W/m 4,1 C -1,1 C 20,9 km/h (4 Bft) 97,56 %
25.11.2018 18:19 4,4 C 4,4 C 4,4 C 98 % 1006,2 hPa 0,0 l/m 17,0 km/h (3 Bft) O 92 0 min 0,000 mm 0,0 UV-I 0 W/m 4,1 C -2,6 C 27,4 km/h (4 Bft) 98,51 %
25.11.2018 18:20 4,4 C 4,4 C 4,4 C 98 % 1006,2 hPa 0,0 l/m 13,2 km/h (3 Bft) O 82 0 min 0,000 mm 0,0 UV-I 0 W/m 4,1 C -0,7 C 17,7 km/h (3 Bft) 100,00 %
25.11.2018 18:22 4,4 C 4,4 C 4,4 C 98 % 1006,2 hPa 0,0 l/m 14,1 km/h (3 Bft) O 82 0 min 0,000 mm 0,0 UV-I 0 W/m 4,1 C -1,2 C 22,5 km/h (4 Bft) 97,87 %
25.11.2018 18:24 4,4 C 4,4 C 4,4 C 98 % 1006,2 hPa 0,0 l/m 16,5 km/h (3 Bft) O 88 0 min 0,000 mm 0,0 UV-I 0 W/m 4,1 C -2,4 C 22,5 km/h (4 Bft) 100,00 %
25.11.2018 18:26 4,4 C 4,4 C 4,4 C 98 % 1006,2 hPa 0,0 l/m 14,5 km/h (3 Bft) O-NO 78 0 min 0,000 mm 0,0 UV-I 0 W/m 4,1 C -1,4 C 19,3 km/h (3 Bft) 100,00 %
25.11.2018 18:28 4,4 C 4,4 C 4,4 C 98 % 1006,2 hPa 0,0 l/m 19,2 km/h (3 Bft) O 85 0 min 0,000 mm 0,0 UV-I 0 W/m 4,1 C -3,6 C 24,1 km/h (4 Bft) 98,21 %
25.11.2018 18:30 4,4 C 4,4 C 4,4 C 98 % 1006,3 hPa 0,0 l/m 15,5 km/h (3 Bft) O 87 0 min 0,000 mm 0,0 UV-I 0 W/m 4,1 C -1,9 C 22,5 km/h (4 Bft) 100,00 %
25.11.2018 18:32 4,4 C 4,4 C 4,4 C 98 % 1006,3 hPa 0,0 l/m 16,0 km/h (3 Bft) O-NO 74 0 min 0,000 mm 0,0 UV-I 0 W/m 4,1 C -2,2 C 22,5 km/h (4 Bft) 100,00 %
25.11.2018 18:34 4,4 C 4,4 C 4,4 C 98 % 1006,3 hPa 0,0 l/m 18,7 km/h (3 Bft) O-NO 76 0 min 0,000 mm 0,0 UV-I 0 W/m 4,1 C -3,4 C 24,1 km/h (4 Bft) 100,00 %
25.11.2018 18:36 4,4 C 4,4 C 4,4 C 98 % 1006,3 hPa 0,0 l/m 16,2 km/h (3 Bft) O-SO 103 0 min 0,000 mm 0,0 UV-I 0 W/m 4,1 C -2,3 C 22,5 km/h (4 Bft) 100,00 %
25.11.2018 18:39 4,4 C 4,4 C 4,4 C 98 % 1006,2 hPa 0,0 l/m 17,2 km/h (3 Bft) O 84 0 min 0,000 mm 0,0 UV-I 0 W/m 4,1 C -2,7 C 22,5 km/h (4 Bft) 98,65 %
25.11.2018 18:40 4,4 C 4,4 C 4,4 C 98 % 1006,2 hPa 0,0 l/m 18,7 km/h (3 Bft) O 80 0 min 0,000 mm 0,0 UV-I 0 W/m 4,1 C -3,4 C 24,1 km/h (4 Bft) 92,31 %
25.11.2018 18:42 4,4 C 4,4 C 4,4 C 98 % 1006,2 hPa 0,0 l/m 16,3 km/h (3 Bft) O 80 0 min 0,000 mm 0,0 UV-I 0 W/m 4,1 C -2,3 C 24,1 km/h (4 Bft) 97,73 %
25.11.2018 18:44 4,4 C 4,4 C 4,4 C 98 % 1006,2 hPa 0,0 l/m 16,4 km/h (3 Bft) O 80 0 min 0,000 mm 0,0 UV-I 0 W/m 4,1 C -2,4 C 19,3 km/h (3 Bft) 93,33 %
25.11.2018 18:46 4,4 C 4,4 C 4,4 C 98 % 1006,2 hPa 0,0 l/m 15,4 km/h (3 Bft) O-NO 74 0 min 0,000 mm 0,0 UV-I 0 W/m 4,1 C -1,9 C 20,9 km/h (4 Bft) 98,08 %
25.11.2018 18:48 4,4 C 4,4 C 4,4 C 98 % 1006,2 hPa 0,0 l/m 12,8 km/h (3 Bft) O 89 0 min 0,000 mm 0,0 UV-I 0 W/m 4,1 C -0,4 C 19,3 km/h (3 Bft) 92,31 %
25.11.2018 18:50 4,4 C 4,4 C 4,4 C 98 % 1006,2 hPa 0,0 l/m 12,0 km/h (2 Bft) O 101 0 min 0,000 mm 0,0 UV-I 0 W/m 4,1 C 0,1 C 17,7 km/h (3 Bft) 96,23 %
25.11.2018 18:52 4,4 C 4,4 C 4,4 C 98 % 1006,2 hPa 0,0 l/m 15,8 km/h (3 Bft) O-NO 74 0 min 0,000 mm 0,0 UV-I 0 W/m 4,1 C -2,1 C 27,4 km/h (4 Bft) 98,00 %
25.11.2018 18:54 4,4 C 4,4 C 4,4 C 98 % 1006,2 hPa 0,0 l/m 16,9 km/h (3 Bft) O 88 0 min 0,000 mm 0,0 UV-I 0 W/m 4,1 C -2,6 C 22,5 km/h (4 Bft) 94,74 %
25.11.2018 18:56 4,4 C 4,4 C 4,4 C 98 % 1006,2 hPa 0,0 l/m 13,9 km/h (3 Bft) O 90 0 min 0,000 mm 0,0 UV-I 0 W/m 4,1 C -1,1 C 19,3 km/h (3 Bft) 97,73 %
25.11.2018 18:58 4,4 C 4,4 C 4,4 C 98 % 1006,2 hPa 0,0 l/m 16,3 km/h (3 Bft) O-NO 66 0 min 0,000 mm 0,0 UV-I 0 W/m 4,1 C -2,3 C 22,5 km/h (4 Bft) 98,00 %
25.11.2018 19:00 4,4 C 4,4 C 4,4 C 98 % 1006,3 hPa 0,0 l/m 13,8 km/h (3 Bft) O-NO 69 0 min 0,000 mm 0,0 UV-I 0 W/m 4,1 C -1,0 C 20,9 km/h (4 Bft) 98,21 %
25.11.2018 19:02 4,4 C 4,4 C 4,4 C 98 % 1006,2 hPa 0,0 l/m 14,6 km/h (3 Bft) O-NO 69 0 min 0,000 mm 0,0 UV-I 0 W/m 4,1 C -1,4 C 25,7 km/h (4 Bft) 100,00 %
25.11.2018 19:04 4,4 C 4,4 C 4,4 C 98 % 1006,2 hPa 0,0 l/m 15,0 km/h (3 Bft) O 82 0 min 0,000 mm 0,0 UV-I 0 W/m 4,1 C -1,7 C 24,1 km/h (4 Bft) 98,00 %
25.11.2018 19:06 4,4 C 4,4 C 4,4 C 98 % 1006,2 hPa 0,0 l/m 17,1 km/h (3 Bft) O 88 0 min 0,000 mm 0,0 UV-I 0 W/m 4,1 C -2,7 C 25,7 km/h (4 Bft) 97,87 %
25.11.2018 19:08 4,4 C 4,4 C 4,4 C 98 % 1006,2 hPa 0,0 l/m 15,8 km/h (3 Bft) O 87 0 min 0,000 mm 0,0 UV-I 0 W/m 4,1 C -2,1 C 20,9 km/h (4 Bft) 98,00 %
25.11.2018 19:10 4,4 C 4,4 C 4,4 C 98 % 1006,2 hPa 0,0 l/m 15,4 km/h (3 Bft) O 86 0 min 0,000 mm 0,0 UV-I 0 W/m 4,1 C -1,9 C 20,9 km/h (4 Bft) 95,74 %
25.11.2018 19:12 4,4 C 4,4 C 4,4 C 98 % 1006,2 hPa 0,0 l/m 16,9 km/h (3 Bft) O-SO 103 0 min 0,000 mm 0,0 UV-I 0 W/m 4,1 C -2,6 C 24,1 km/h (4 Bft) 96,00 %
25.11.2018 19:14 4,4 C 4,4 C 4,4 C 98 % 1006,2 hPa 0,0 l/m 16,9 km/h (3 Bft) O 96 0 min 0,000 mm 0,0 UV-I 0 W/m 4,1 C -2,6 C 20,9 km/h (4 Bft) 97,73 %
25.11.2018 19:16 4,4 C 4,4 C 4,4 C 98 % 1006,1 hPa 0,0 l/m 13,2 km/h (3 Bft) O 90 0 min 0,000 mm 0,0 UV-I 0 W/m 4,1 C -0,7 C 22,5 km/h (4 Bft) 97,56 %
25.11.2018 19:18 4,4 C 4,4 C 4,4 C 98 % 1006,1 hPa 0,0 l/m 15,5 km/h (3 Bft) O-NO 66 0 min 0,000 mm 0,0 UV-I 0 W/m 4,1 C -1,9 C 20,9 km/h (4 Bft) 98,31 %
25.11.2018 19:20 4,4 C 4,4 C 4,4 C 98 % 1006,1 hPa 0,0 l/m 14,8 km/h (3 Bft) O-SO 103 0 min 0,000 mm 0,0 UV-I 0 W/m 4,1 C -1,5 C 20,9 km/h (4 Bft) 97,22 %
25.11.2018 19:22 4,4 C 4,4 C 4,4 C 98 % 1006,1 hPa 0,0 l/m 15,3 km/h (3 Bft) O-NO 78 0 min 0,000 mm 0,0 UV-I 0 W/m 4,1 C -1,8 C 22,5 km/h (4 Bft) 97,37 %
25.11.2018 19:24 4,4 C 4,4 C 4,4 C 98 % 1006,1 hPa 0,0 l/m 15,3 km/h (3 Bft) O 94 0 min 0,000 mm 0,0 UV-I 0 W/m 4,1 C -1,8 C 20,9 km/h (4 Bft) 96,88 %
25.11.2018 19:26 4,4 C 4,4 C 4,4 C 98 % 1006,2 hPa 0,0 l/m 15,2 km/h (3 Bft) O 92 0 min 0,000 mm 0,0 UV-I 0 W/m 4,1 C -1,8 C 20,9 km/h (4 Bft) 95,83 %
25.11.2018 19:28 4,4 C 4,4 C 4,4 C 98 % 1006,1 hPa 0,0 l/m 13,9 km/h (3 Bft) O 96 0 min 0,000 mm 0,0 UV-I 0 W/m 4,1 C -1,1 C 24,1 km/h (4 Bft) 97,37 %
25.11.2018 19:30 4,4 C 4,4 C 4,4 C 98 % 1006,1 hPa 0,0 l/m 16,5 km/h (3 Bft) O-NO 60 0 min 0,000 mm 0,0 UV-I 0 W/m 4,1 C -2,4 C 24,1 km/h (4 Bft) 97,73 %
25.11.2018 19:32 4,4 C 4,4 C 4,4 C 98 % 1006,1 hPa 0,0 l/m 15,1 km/h (3 Bft) O-NO 78 0 min 0,000 mm 0,0 UV-I 0 W/m 4,1 C -1,7 C 19,3 km/h (3 Bft) 96,23 %
25.11.2018 19:34 4,4 C 4,4 C 4,4 C 98 % 1006,1 hPa 0,0 l/m 13,3 km/h (3 Bft) O 100 0 min 0,000 mm 0,0 UV-I 0 W/m 4,1 C -0,7 C 19,3 km/h (3 Bft) 97,87 %
25.11.2018 19:36 4,4 C 4,4 C 4,4 C 98 % 1006,1 hPa 0,0 l/m 13,2 km/h (3 Bft) O 94 0 min 0,000 mm 0,0 UV-I 0 W/m 4,1 C -0,7 C 20,9 km/h (4 Bft) 98,00 %
25.11.2018 19:39 4,4 C 4,4 C 4,4 C 98 % 1006,1 hPa 0,0 l/m 15,6 km/h (3 Bft) O-NO 78 0 min 0,000 mm 0,0 UV-I 0 W/m 4,1 C -2,0 C 20,9 km/h (4 Bft) 100,00 %
25.11.2018 19:40 4,4 C 4,4 C 4,4 C 98 % 1006,1 hPa 0,0 l/m 14,5 km/h (3 Bft) O-NO 71 0 min 0,000 mm 0,0 UV-I 0 W/m 4,1 C -1,4 C 17,7 km/h (3 Bft) 95,83 %
25.11.2018 19:42 4,4 C 4,4 C 4,4 C 98 % 1006,0 hPa 0,0 l/m 11,9 km/h (2 Bft) O 99 0 min 0,000 mm 0,0 UV-I 0 W/m 4,1 C 0,1 C 16,1 km/h (3 Bft) 98,11 %
25.11.2018 19:44 4,3 C 4,4 C 4,4 C 98 % 1006,1 hPa 0,0 l/m 14,6 km/h (3 Bft) O 98 0 min 0,000 mm 0,0 UV-I 0 W/m 4,0 C -1,6 C 20,9 km/h (4 Bft) 97,56 %
25.11.2018 19:46 4,3 C 4,4 C 4,4 C 98 % 1006,0 hPa 0,0 l/m 15,3 km/h (3 Bft) O-NO 65 0 min 0,000 mm 0,0 UV-I 0 W/m 4,0 C -1,9 C 20,9 km/h (4 Bft) 94,00 %
25.11.2018 19:48 4,4 C 4,4 C 4,4 C 98 % 1006,0 hPa 0,0 l/m 13,9 km/h (3 Bft) O-NO 61 0 min 0,000 mm 0,0 UV-I 0 W/m 4,1 C -1,1 C 20,9 km/h (4 Bft) 98,00 %
25.11.2018 19:50 4,3 C 4,4 C 4,4 C 98 % 1006,0 hPa 0,0 l/m 15,0 km/h (3 Bft) O 79 0 min 0,000 mm 0,0 UV-I 0 W/m 4,0 C -1,8 C 20,9 km/h (4 Bft) 97,14 %
25.11.2018 19:52 4,3 C 4,4 C 4,4 C 98 % 1006,0 hPa 0,0 l/m 14,4 km/h (3 Bft) O 81 0 min 0,000 mm 0,0 UV-I 0 W/m 4,0 C -1,5 C 20,9 km/h (4 Bft) 98,11 %
25.11.2018 19:54 4,3 C 4,4 C 4,4 C 98 % 1006,0 hPa 0,0 l/m 12,7 km/h (3 Bft) O 80 0 min 0,000 mm 0,0 UV-I 0 W/m 4,0 C -0,5 C 19,3 km/h (3 Bft) 96,00 %
25.11.2018 19:56 4,3 C 4,4 C 4,4 C 98 % 1006,0 hPa 0,0 l/m 14,7 km/h (3 Bft) O-NO 68 0 min 0,000 mm 0,0 UV-I 0 W/m 4,0 C -1,6 C 24,1 km/h (4 Bft) 98,00 %
25.11.2018 19:58 4,3 C 4,4 C 4,4 C 98 % 1006,0 hPa 0,0 l/m 16,8 km/h (3 Bft) O 89 0 min 0,000 mm 0,0 UV-I 0 W/m 4,0 C -2,7 C 22,5 km/h (4 Bft) 95,74 %
25.11.2018 20:00 4,3 C 4,4 C 4,4 C 98 % 1006,0 hPa 0,0 l/m 15,1 km/h (3 Bft) NO 56 0 min 0,000 mm 0,0 UV-I 0 W/m 4,0 C -1,8 C 19,3 km/h (3 Bft) 95,74 %
25.11.2018 20:02 4,3 C 4,4 C 4,4 C 98 % 1006,0 hPa 0,0 l/m 15,2 km/h (3 Bft) O 96 0 min 0,000 mm 0,0 UV-I 0 W/m 4,0 C -1,9 C 19,3 km/h (3 Bft) 93,62 %
25.11.2018 20:04 4,3 C 4,4 C 4,4 C 98 % 1005,9 hPa 0,0 l/m 13,1 km/h (3 Bft) O-NO 71 0 min 0,000 mm 0,0 UV-I 0 W/m 4,0 C -0,7 C 20,9 km/h (4 Bft) 97,44 %
25.11.2018 20:06 4,3 C 4,4 C 4,4 C 98 % 1005,9 hPa 0,0 l/m 14,6 km/h (3 Bft) O 80 0 min 0,000 mm 0,0 UV-I 0 W/m 4,0 C -1,6 C 20,9 km/h (4 Bft) 93,62 %
25.11.2018 20:09 4,3 C 4,4 C 4,4 C 98 % 1005,9 hPa 0,0 l/m 13,7 km/h (3 Bft) O 83 0 min 0,000 mm 0,0 UV-I 0 W/m 4,0 C -1,1 C 20,9 km/h (4 Bft) 96,20 %
25.11.2018 20:10 4,3 C 4,4 C 4,4 C 98 % 1005,9 hPa 0,0 l/m 11,9 km/h (2 Bft) O 84 0 min 0,000 mm 0,0 UV-I 0 W/m 4,0 C 0,0 C 16,1 km/h (3 Bft) 93,33 %
25.11.2018 20:12 4,3 C 4,4 C 4,4 C 98 % 1005,9 hPa 0,0 l/m 13,3 km/h (3 Bft) O-NO 61 0 min 0,000 mm 0,0 UV-I 0 W/m 4,0 C -0,8 C 19,3 km/h (3 Bft) 96,00 %
25.11.2018 20:14 4,3 C 4,4 C 4,4 C 98 % 1005,9 hPa 0,0 l/m 12,5 km/h (3 Bft) O-NO 67 0 min 0,000 mm 0,0 UV-I 0 W/m 4,0 C -0,4 C 17,7 km/h (3 Bft) 94,00 %
25.11.2018 20:16 4,3 C 4,4 C 4,4 C 98 % 1005,8 hPa 0,0 l/m 16,3 km/h (3 Bft) O 86 0 min 0,000 mm 0,0 UV-I 0 W/m 4,0 C -2,4 C 20,9 km/h (4 Bft) 94,74 %
25.11.2018 20:18 4,3 C 4,4 C 4,4 C 98 % 1005,9 hPa 0,0 l/m 14,5 km/h (3 Bft) O-NO 77 0 min 0,000 mm 0,0 UV-I 0 W/m 4,0 C -1,5 C 17,7 km/h (3 Bft) 96,23 %
25.11.2018 20:20 4,3 C 4,4 C 4,4 C 98 % 1005,9 hPa 0,0 l/m 13,3 km/h (3 Bft) O-NO 57 0 min 0,000 mm 0,0 UV-I 0 W/m 4,0 C -0,8 C 19,3 km/h (3 Bft) 95,74 %
25.11.2018 20:22 4,3 C 4,4 C 4,4 C 98 % 1005,8 hPa 0,0 l/m 11,1 km/h (2 Bft) O 92 0 min 0,000 mm 0,0 UV-I 0 W/m 4,0 C 0,5 C 16,1 km/h (3 Bft) 96,00 %
25.11.2018 20:24 4,3 C 4,4 C 4,4 C 98 % 1005,8 hPa 0,0 l/m 12,2 km/h (2 Bft) O-SO 107 0 min 0,000 mm 0,0 UV-I 0 W/m 4,0 C -0,2 C 17,7 km/h (3 Bft) 97,56 %
25.11.2018 20:26 4,3 C 4,4 C 4,4 C 98 % 1005,8 hPa 0,0 l/m 13,0 km/h (3 Bft) O 101 0 min 0,000 mm 0,0 UV-I 0 W/m 4,0 C -0,7 C 17,7 km/h (3 Bft) 96,00 %
25.11.2018 20:28 4,3 C 4,4 C 4,4 C 98 % 1005,8 hPa 0,0 l/m 14,5 km/h (3 Bft) O 88 0 min 0,000 mm 0,0 UV-I 0 W/m 4,0 C -1,5 C 17,7 km/h (3 Bft) 100,00 %
25.11.2018 20:30 4,3 C 4,4 C 4,4 C 98 % 1005,7 hPa 0,0 l/m 10,2 km/h (2 Bft) O-NO 78 0 min 0,000 mm 0,0 UV-I 0 W/m 4,0 C 1,2 C 16,1 km/h (3 Bft) 94,00 %
25.11.2018 20:32 4,3 C 4,4 C 4,4 C 98 % 1005,7 hPa 0,0 l/m 13,8 km/h (3 Bft) O 84 0 min 0,000 mm 0,0 UV-I 0 W/m 4,0 C -1,1 C 17,7 km/h (3 Bft) 97,73 %
25.11.2018 20:34 4,3 C 4,4 C 4,4 C 98 % 1005,7 hPa 0,0 l/m 13,7 km/h (3 Bft) O-NO 69 0 min 0,000 mm 0,0 UV-I 0 W/m 4,0 C -1,1 C 20,9 km/h (4 Bft) 98,11 %
25.11.2018 20:36 4,2 C 4,4 C 4,4 C 98 % 1005,7 hPa 0,0 l/m 12,4 km/h (3 Bft) O-SO 105 0 min 0,000 mm 0,0 UV-I 0 W/m 3,9 C -0,4 C 17,7 km/h (3 Bft) 100,00 %
25.11.2018 20:38 4,3 C 4,4 C 4,4 C 98 % 1005,7 hPa 0,0 l/m 9,9 km/h (2 Bft) O 90 0 min 0,000 mm 0,0 UV-I 0 W/m 4,0 C 1,4 C 12,9 km/h (3 Bft) 95,52 %
25.11.2018 20:40 4,3 C 4,4 C 4,4 C 98 % 1005,6 hPa 0,0 l/m 12,7 km/h (3 Bft) O-NO 71 0 min 0,000 mm 0,0 UV-I 0 W/m 4,0 C -0,5 C 22,5 km/h (4 Bft) 95,24 %
25.11.2018 20:42 4,2 C 4,4 C 4,4 C 98 % 1005,6 hPa 0,0 l/m 15,2 km/h (3 Bft) O-NO 76 0 min 0,000 mm 0,0 UV-I 0 W/m 3,9 C -2,0 C 20,9 km/h (4 Bft) 97,73 %
25.11.2018 20:44 4,2 C 4,4 C 4,4 C 98 % 1005,6 hPa 0,0 l/m 12,7 km/h (3 Bft) O-NO 67 0 min 0,000 mm 0,0 UV-I 0 W/m 3,9 C -0,6 C 16,1 km/h (3 Bft) 98,21 %
25.11.2018 20:46 4,2 C 4,4 C 4,4 C 98 % 1005,6 hPa 0,0 l/m 10,1 km/h (2 Bft) O-NO 58 0 min 0,000 mm 0,0 UV-I 0 W/m 3,9 C 1,1 C 16,1 km/h (3 Bft) 97,56 %
25.11.2018 20:48 4,2 C 4,4 C 4,4 C 98 % 1005,6 hPa 0,0 l/m 15,6 km/h (3 Bft) O-NO 67 0 min 0,000 mm 0,0 UV-I 0 W/m 3,9 C -2,2 C 19,3 km/h (3 Bft) 98,11 %
25.11.2018 20:50 4,3 C 4,4 C 4,4 C 98 % 1005,6 hPa 0,0 l/m 12,4 km/h (3 Bft) O-NO 64 0 min 0,000 mm 0,0 UV-I 0 W/m 4,0 C -0,3 C 16,1 km/h (3 Bft) 96,00 %
25.11.2018 20:52 4,2 C 4,4 C 4,4 C 98 % 1005,5 hPa 0,0 l/m 13,6 km/h (3 Bft) O-NO 72 0 min 0,000 mm 0,0 UV-I 0 W/m 3,9 C -1,1 C 17,7 km/h (3 Bft) 97,56 %
25.11.2018 20:54 4,2 C 4,4 C 4,4 C 98 % 1005,5 hPa 0,0 l/m 14,1 km/h (3 Bft) O-NO 65 0 min 0,000 mm 0,0 UV-I 0 W/m 3,9 C -1,4 C 17,7 km/h (3 Bft) 100,00 %
25.11.2018 20:56 4,2 C 4,4 C 4,4 C 98 % 1005,5 hPa 0,0 l/m 14,2 km/h (3 Bft) O-NO 71 0 min 0,000 mm 0,0 UV-I 0 W/m 3,9 C -1,5 C 17,7 km/h (3 Bft) 100,00 %
25.11.2018 20:58 4,3 C 4,4 C 4,4 C 98 % 1005,5 hPa 0,0 l/m 13,0 km/h (3 Bft) O 80 0 min 0,000 mm 0,0 UV-I 0 W/m 4,0 C -0,7 C 17,7 km/h (3 Bft) 100,00 %
25.11.2018 21:00 4,2 C 4,4 C 4,4 C 98 % 1005,5 hPa 0,0 l/m 12,5 km/h (3 Bft) O-NO 68 0 min 0,000 mm 0,0 UV-I 0 W/m 3,9 C -0,5 C 16,1 km/h (3 Bft) 100,00 %
25.11.2018 21:02 4,2 C 4,4 C 4,4 C 98 % 1005,5 hPa 0,0 l/m 11,5 km/h (2 Bft) O-NO 69 0 min 0,000 mm 0,0 UV-I 0 W/m 3,9 C 0,2 C 16,1 km/h (3 Bft) 98,21 %
25.11.2018 21:04 4,2 C 4,4 C 4,4 C 98 % 1005,5 hPa 0,0 l/m 9,2 km/h (2 Bft) O-NO 73 0 min 0,000 mm 0,0 UV-I 0 W/m 3,9 C 1,8 C 12,9 km/h (3 Bft) 97,87 %
25.11.2018 21:06 4,2 C 4,4 C 4,4 C 98 % 1005,6 hPa 0,0 l/m 10,3 km/h (2 Bft) O-NO 66 0 min 0,000 mm 0,0 UV-I 0 W/m 3,9 C 1,0 C 16,1 km/h (3 Bft) 100,00 %
25.11.2018 21:08 4,2 C 4,4 C 4,4 C 98 % 1005,6 hPa 0,0 l/m 12,4 km/h (3 Bft) O-NO 59 0 min 0,000 mm 0,0 UV-I 0 W/m 3,9 C -0,4 C 16,1 km/h (3 Bft) 98,11 %
25.11.2018 21:10 4,2 C 4,4 C 4,4 C 98 % 1005,6 hPa 0,0 l/m 13,1 km/h (3 Bft) O-NO 61 0 min 0,000 mm 0,0 UV-I 0 W/m 3,9 C -0,8 C 19,3 km/h (3 Bft) 100,00 %
25.11.2018 21:12 4,2 C 4,4 C 4,4 C 98 % 1005,6 hPa 0,0 l/m 9,2 km/h (2 Bft) O 86 0 min 0,000 mm 0,0 UV-I 0 W/m 3,9 C 1,8 C 14,5 km/h (3 Bft) 98,00 %
25.11.2018 21:14 4,2 C 4,4 C 4,4 C 98 % 1005,6 hPa 0,0 l/m 11,3 km/h (2 Bft) O-NO 75 0 min 0,000 mm 0,0 UV-I 0 W/m 3,9 C 0,3 C 16,1 km/h (3 Bft) 97,87 %
25.11.2018 21:16 4,2 C 4,4 C 4,4 C 98 % 1005,6 hPa 0,2 l/m 10,3 km/h (2 Bft) O 81 0 min 0,000 mm 0,0 UV-I 0 W/m 3,9 C 1,0 C 14,5 km/h (3 Bft) 94,00 %
25.11.2018 21:18 4,2 C 4,4 C 4,4 C 98 % 1005,5 hPa 0,0 l/m 9,1 km/h (2 Bft) O-NO 77 0 min 0,000 mm 0,0 UV-I 0 W/m 3,9 C 1,9 C 14,5 km/h (3 Bft) 96,00 %
25.11.2018 21:20 4,2 C 4,4 C 4,4 C 98 % 1005,5 hPa 0,0 l/m 12,5 km/h (3 Bft) O-NO 66 0 min 0,000 mm 0,0 UV-I 0 W/m 3,9 C -0,5 C 17,7 km/h (3 Bft) 94,74 %
25.11.2018 21:22 4,2 C 4,4 C 4,4 C 98 % 1005,5 hPa 0,0 l/m 12,5 km/h (3 Bft) O-NO 76 0 min 0,000 mm 0,0 UV-I 0 W/m 3,9 C -0,5 C 16,1 km/h (3 Bft) 96,43 %
25.11.2018 21:24 4,2 C 4,4 C 4,4 C 98 % 1005,4 hPa 0,0 l/m 10,6 km/h (2 Bft) O-NO 69 0 min 0,000 mm 0,0 UV-I 0 W/m 3,9 C 0,8 C 16,1 km/h (3 Bft) 95,74 %
25.11.2018 21:26 4,2 C 4,4 C 4,4 C 98 % 1005,5 hPa 0,0 l/m 10,8 km/h (2 Bft) O-NO 65 0 min 0,000 mm 0,0 UV-I 0 W/m 3,9 C 0,6 C 16,1 km/h (3 Bft) 96,00 %
25.11.2018 21:28 4,2 C 4,4 C 4,4 C 98 % 1005,5 hPa 0,0 l/m 10,3 km/h (2 Bft) O-NO 58 0 min 0,000 mm 0,0 UV-I 0 W/m 3,9 C 1,0 C 16,1 km/h (3 Bft) 95,12 %
25.11.2018 21:30 4,2 C 4,4 C 4,4 C 98 % 1005,4 hPa 0,0 l/m 10,2 km/h (2 Bft) O-NO 71 0 min 0,000 mm 0,0 UV-I 0 W/m 3,9 C 1,0 C 17,7 km/h (3 Bft) 93,18 %
25.11.2018 21:32 4,2 C 4,4 C 4,4 C 98 % 1005,4 hPa 0,0 l/m 7,6 km/h (2 Bft) NO 53 0 min 0,000 mm 0,0 UV-I 0 W/m 3,9 C 3,1 C 14,5 km/h (3 Bft) 94,34 %
25.11.2018 21:34 4,2 C 4,4 C 4,4 C 98 % 1005,4 hPa 0,0 l/m 6,6 km/h (2 Bft) O-NO 76 0 min 0,000 mm 0,0 UV-I 0 W/m 3,9 C 4,0 C 9,7 km/h (2 Bft) 95,74 %
25.11.2018 21:36 4,2 C 4,4 C 4,4 C 98 % 1005,4 hPa 0,0 l/m 8,1 km/h (2 Bft) O 86 0 min 0,000 mm 0,0 UV-I 0 W/m 3,9 C 2,7 C 14,5 km/h (3 Bft) 95,74 %
25.11.2018 21:38 4,2 C 4,4 C 4,4 C 98 % 1005,3 hPa 0,0 l/m 8,2 km/h (2 Bft) O 82 0 min 0,000 mm 0,0 UV-I 0 W/m 3,9 C 2,6 C 11,3 km/h (2 Bft) 94,74 %
25.11.2018 21:40 4,2 C 4,4 C 4,4 C 98 % 1005,4 hPa 0,0 l/m 5,6 km/h (1 Bft) O-NO 66 0 min 0,000 mm 0,0 UV-I 0 W/m 3,9 C 4,2 C 8,0 km/h (2 Bft) 97,87 %
25.11.2018 21:42 4,2 C 4,4 C 4,4 C 98 % 1005,3 hPa 0,0 l/m 7,1 km/h (2 Bft) NO 55 0 min 0,000 mm 0,0 UV-I 0 W/m 3,9 C 3,6 C 9,7 km/h (2 Bft) 97,37 %
25.11.2018 21:44 4,2 C 4,4 C 4,4 C 98 % 1005,3 hPa 0,0 l/m 6,9 km/h (2 Bft) NO 55 0 min 0,000 mm 0,0 UV-I 0 W/m 3,9 C 3,8 C 11,3 km/h (2 Bft) 100,00 %
25.11.2018 21:46 4,2 C 4,4 C 4,4 C 98 % 1005,3 hPa 0,0 l/m 8,9 km/h (2 Bft) NO 49 0 min 0,000 mm 0,0 UV-I 0 W/m 3,9 C 2,0 C 11,3 km/h (2 Bft) 100,00 %
25.11.2018 21:48 4,2 C 4,4 C 4,4 C 98 % 1005,3 hPa 0,0 l/m 11,1 km/h (2 Bft) O-NO 69 0 min 0,000 mm 0,0 UV-I 0 W/m 3,9 C 0,4 C 17,7 km/h (3 Bft) 100,00 %
25.11.2018 21:50 4,2 C 4,4 C 4,4 C 98 % 1005,3 hPa 0,0 l/m 9,4 km/h (2 Bft) O-NO 59 0 min 0,000 mm 0,0 UV-I 0 W/m 3,9 C 1,6 C 14,5 km/h (3 Bft) 100,00 %
25.11.2018 21:52 4,2 C 4,4 C 4,4 C 98 % 1005,3 hPa 0,0 l/m 9,1 km/h (2 Bft) O-NO 57 0 min 0,000 mm 0,0 UV-I 0 W/m 3,9 C 1,9 C 11,3 km/h (2 Bft) 100,00 %
25.11.2018 21:54 4,2 C 4,4 C 4,4 C 98 % 1005,3 hPa 0,0 l/m 7,4 km/h (2 Bft) O-NO 59 0 min 0,000 mm 0,0 UV-I 0 W/m 3,9 C 3,3 C 9,7 km/h (2 Bft) 100,00 %
25.11.2018 21:56 4,2 C 4,4 C 4,4 C 98 % 1005,3 hPa 0,2 l/m 9,1 km/h (2 Bft) NO 50 0 min 0,000 mm 0,0 UV-I 0 W/m 3,9 C 1,9 C 14,5 km/h (3 Bft) 100,00 %
25.11.2018 21:58 4,2 C 4,4 C 4,4 C 98 % 1005,3 hPa 0,0 l/m 6,0 km/h (2 Bft) O-NO 63 0 min 0,000 mm 0,0 UV-I 0 W/m 3,9 C 4,2 C 8,0 km/h (2 Bft) 97,62 %
25.11.2018 22:00 4,2 C 4,4 C 4,4 C 98 % 1005,3 hPa 0,0 l/m 9,5 km/h (2 Bft) O-NO 62 0 min 0,000 mm 0,0 UV-I 0 W/m 3,9 C 1,6 C 14,5 km/h (3 Bft) 100,00 %
25.11.2018 22:02 4,2 C 4,4 C 4,4 C 98 % 1005,3 hPa 0,0 l/m 8,6 km/h (2 Bft) NO 55 0 min 0,000 mm 0,0 UV-I 0 W/m 3,9 C 2,3 C 12,9 km/h (3 Bft) 100,00 %
25.11.2018 22:04 4,2 C 4,4 C 4,4 C 98 % 1005,3 hPa 0,0 l/m 7,8 km/h (2 Bft) NO 53 0 min 0,000 mm 0,0 UV-I 0 W/m 3,9 C 2,9 C 12,9 km/h (3 Bft) 100,00 %
25.11.2018 22:06 4,2 C 4,4 C 4,4 C 98 % 1005,4 hPa 0,0 l/m 6,1 km/h (2 Bft) NO 46 0 min 0,000 mm 0,0 UV-I 0 W/m 3,9 C 4,2 C 8,0 km/h (2 Bft) 96,00 %
25.11.2018 22:08 4,2 C 4,4 C 4,4 C 98 % 1005,4 hPa 0,0 l/m 7,7 km/h (2 Bft) NO 42 0 min 0,000 mm 0,0 UV-I 0 W/m 3,9 C 3,0 C 14,5 km/h (3 Bft) 100,00 %
25.11.2018 22:10 4,2 C 4,4 C 4,4 C 98 % 1005,3 hPa 0,0 l/m 7,3 km/h (2 Bft) O-NO 57 0 min 0,000 mm 0,0 UV-I 0 W/m 3,9 C 3,4 C 11,3 km/h (2 Bft) 100,00 %
25.11.2018 22:12 4,2 C 4,4 C 4,4 C 98 % 1005,4 hPa 0,0 l/m 7,1 km/h (2 Bft) NO 37 0 min 0,000 mm 0,0 UV-I 0 W/m 3,9 C 3,6 C 12,9 km/h (3 Bft) 100,00 %
25.11.2018 22:14 4,2 C 4,4 C 4,4 C 98 % 1005,4 hPa 0,0 l/m 9,4 km/h (2 Bft) NO 55 0 min 0,000 mm 0,0 UV-I 0 W/m 3,9 C 1,6 C 14,5 km/h (3 Bft) 97,37 %
25.11.2018 22:16 4,2 C 4,4 C 4,4 C 98 % 1005,4 hPa 0,0 l/m 11,2 km/h (2 Bft) NO 46 0 min 0,000 mm 0,0 UV-I 0 W/m 3,9 C 0,4 C 17,7 km/h (3 Bft) 100,00 %
25.11.2018 22:18 4,2 C 4,4 C 4,4 C 98 % 1005,3 hPa 0,0 l/m 12,8 km/h (3 Bft) NO 55 0 min 0,000 mm 0,0 UV-I 0 W/m 3,9 C -0,7 C 17,7 km/h (3 Bft) 95,74 %
25.11.2018 22:20 4,2 C 4,4 C 4,4 C 98 % 1005,4 hPa 0,0 l/m 8,0 km/h (2 Bft) NO 53 0 min 0,000 mm 0,0 UV-I 0 W/m 3,9 C 2,8 C 14,5 km/h (3 Bft) 100,00 %
25.11.2018 22:22 4,2 C 4,4 C 4,4 C 98 % 1005,3 hPa 0,0 l/m 8,4 km/h (2 Bft) O-NO 60 0 min 0,000 mm 0,0 UV-I 0 W/m 3,9 C 2,4 C 12,9 km/h (3 Bft) 98,00 %
25.11.2018 22:24 4,2 C 4,4 C 4,4 C 98 % 1005,3 hPa 0,0 l/m 7,3 km/h (2 Bft) O-NO 65 0 min 0,000 mm 0,0 UV-I 0 W/m 3,9 C 3,4 C 12,9 km/h (3 Bft) 97,87 %
25.11.2018 22:26 4,2 C 4,4 C 4,4 C 98 % 1005,3 hPa 0,0 l/m 6,8 km/h (2 Bft) O-NO 71 0 min 0,000 mm 0,0 UV-I 0 W/m 3,9 C 3,8 C 12,9 km/h (3 Bft) 100,00 %
25.11.2018 22:28 4,2 C 4,4 C 4,4 C 98 % 1005,3 hPa 0,0 l/m 6,4 km/h (2 Bft) O-NO 71 0 min 0,000 mm 0,0 UV-I 0 W/m 3,9 C 4,2 C 8,0 km/h (2 Bft) 96,43 %
25.11.2018 22:30 4,2 C 4,4 C 4,4 C 98 % 1005,2 hPa 0,0 l/m 7,0 km/h (2 Bft) NO 55 0 min 0,000 mm 0,0 UV-I 0 W/m 3,9 C 3,7 C 9,7 km/h (2 Bft) 100,00 %
25.11.2018 22:32 4,2 C 4,4 C 4,4 C 98 % 1005,2 hPa 0,0 l/m 8,6 km/h (2 Bft) O 94 0 min 0,000 mm 0,0 UV-I 0 W/m 3,9 C 2,3 C 12,9 km/h (3 Bft) 97,62 %
25.11.2018 22:34 4,2 C 4,4 C 4,4 C 98 % 1005,2 hPa 0,0 l/m 8,8 km/h (2 Bft) O-NO 74 0 min 0,000 mm 0,0 UV-I 0 W/m 3,9 C 2,1 C 12,9 km/h (3 Bft) 100,00 %
25.11.2018 22:36 4,2 C 4,4 C 4,4 C 98 % 1005,1 hPa 0,2 l/m 8,9 km/h (2 Bft) O-NO 67 0 min 0,000 mm 0,0 UV-I 0 W/m 3,9 C 2,0 C 12,9 km/h (3 Bft) 97,73 %
25.11.2018 22:38 4,2 C 4,4 C 4,4 C 98 % 1005,1 hPa 0,0 l/m 8,6 km/h (2 Bft) O 79 0 min 0,000 mm 0,0 UV-I 0 W/m 3,9 C 2,3 C 12,9 km/h (3 Bft) 93,62 %
25.11.2018 22:40 4,2 C 4,4 C 4,4 C 98 % 1005,0 hPa 0,0 l/m 9,0 km/h (2 Bft) O-NO 75 0 min 0,000 mm 0,0 UV-I 0 W/m 3,9 C 1,9 C 12,9 km/h (3 Bft) 95,65 %
25.11.2018 22:42 4,2 C 4,4 C 4,4 C 98 % 1005,1 hPa 0,0 l/m 10,0 km/h (2 Bft) O-NO 76 0 min 0,000 mm 0,0 UV-I 0 W/m 3,9 C 1,2 C 12,9 km/h (3 Bft) 97,40 %
25.11.2018 22:44 4,2 C 4,4 C 4,4 C 98 % 1005,0 hPa 0,0 l/m 8,7 km/h (2 Bft) O 84 0 min 0,000 mm 0,0 UV-I 0 W/m 3,9 C 2,2 C 12,9 km/h (3 Bft) 97,37 %
25.11.2018 22:46 4,1 C 4,4 C 4,4 C 98 % 1005,0 hPa 0,0 l/m 8,7 km/h (2 Bft) O-NO 76 0 min 0,000 mm 0,0 UV-I 0 W/m 3,8 C 2,1 C 12,9 km/h (3 Bft) 98,11 %
25.11.2018 22:48 4,1 C 4,4 C 4,4 C 98 % 1005,0 hPa 0,0 l/m 7,3 km/h (2 Bft) O-NO 69 0 min 0,000 mm 0,0 UV-I 0 W/m 3,8 C 3,3 C 11,3 km/h (2 Bft) 97,87 %
25.11.2018 22:50 4,1 C 4,4 C 4,4 C 98 % 1005,0 hPa 0,0 l/m 7,0 km/h (2 Bft) O-NO 60 0 min 0,000 mm 0,0 UV-I 0 W/m 3,8 C 3,6 C 9,7 km/h (2 Bft) 97,87 %
25.11.2018 22:52 4,1 C 4,4 C 4,4 C 98 % 1005,0 hPa 0,0 l/m 8,2 km/h (2 Bft) O-NO 67 0 min 0,000 mm 0,0 UV-I 0 W/m 3,8 C 2,5 C 12,9 km/h (3 Bft) 97,87 %
25.11.2018 22:54 4,1 C 4,4 C 4,4 C 98 % 1005,0 hPa 0,0 l/m 7,1 km/h (2 Bft) O-NO 69 0 min 0,000 mm 0,0 UV-I 0 W/m 3,8 C 3,5 C 11,3 km/h (2 Bft) 94,29 %
25.11.2018 22:56 4,2 C 4,4 C 4,4 C 98 % 1005,1 hPa 0,0 l/m 8,2 km/h (2 Bft) O-NO 63 0 min 0,000 mm 0,0 UV-I 0 W/m 3,9 C 2,6 C 11,3 km/h (2 Bft) 100,00 %
25.11.2018 22:58 4,1 C 4,4 C 4,4 C 98 % 1005,1 hPa 0,0 l/m 6,2 km/h (2 Bft) O-NO 67 0 min 0,000 mm 0,0 UV-I 0 W/m 3,8 C 4,1 C 8,0 km/h (2 Bft) 97,56 %
25.11.2018 23:00 4,1 C 4,4 C 4,4 C 98 % 1005,1 hPa 0,0 l/m 6,1 km/h (2 Bft) O-NO 78 0 min 0,000 mm 0,0 UV-I 0 W/m 3,8 C 4,1 C 9,7 km/h (2 Bft) 96,00 %
25.11.2018 23:02 4,1 C 4,4 C 4,4 C 98 % 1005,1 hPa 0,0 l/m 6,6 km/h (2 Bft) O-NO 69 0 min 0,000 mm 0,0 UV-I 0 W/m 3,8 C 3,9 C 12,9 km/h (3 Bft) 100,00 %
25.11.2018 23:04 4,1 C 4,4 C 4,4 C 98 % 1005,1 hPa 0,0 l/m 9,3 km/h (2 Bft) O-NO 74 0 min 0,000 mm 0,0 UV-I 0 W/m 3,8 C 1,6 C 14,5 km/h (3 Bft) 100,00 %
25.11.2018 23:06 4,1 C 4,4 C 4,4 C 98 % 1005,1 hPa 0,0 l/m 8,2 km/h (2 Bft) NO 53 0 min 0,000 mm 0,0 UV-I 0 W/m 3,8 C 2,5 C 11,3 km/h (2 Bft) 97,56 %
25.11.2018 23:08 4,1 C 4,4 C 4,4 C 98 % 1005,1 hPa 0,0 l/m 7,1 km/h (2 Bft) O-NO 69 0 min 0,000 mm 0,0 UV-I 0 W/m 3,8 C 3,5 C 12,9 km/h (3 Bft) 100,00 %
25.11.2018 23:10 4,1 C 4,4 C 4,4 C 98 % 1005,1 hPa 0,0 l/m 7,1 km/h (2 Bft) O-NO 67 0 min 0,000 mm 0,0 UV-I 0 W/m 3,8 C 3,5 C 12,9 km/h (3 Bft) 97,62 %
25.11.2018 23:12 4,1 C 4,4 C 3,9 C 98 % 1005,1 hPa 0,0 l/m 6,0 km/h (2 Bft) O-NO 69 0 min 0,000 mm 0,0 UV-I 0 W/m 3,8 C 4,1 C 9,7 km/h (2 Bft) 97,87 %
25.11.2018 23:14 4,1 C 4,4 C 3,9 C 98 % 1005,0 hPa 0,0 l/m 7,2 km/h (2 Bft) O 88 0 min 0,000 mm 0,0 UV-I 0 W/m 3,8 C 3,4 C 11,3 km/h (2 Bft) 97,87 %
25.11.2018 23:16 4,1 C 4,4 C 3,9 C 98 % 1005,0 hPa 0,0 l/m 7,0 km/h (2 Bft) O 91 0 min 0,000 mm 0,0 UV-I 0 W/m 3,8 C 3,6 C 11,3 km/h (2 Bft) 97,56 %
25.11.2018 23:18 4,1 C 4,4 C 3,9 C 98 % 1005,0 hPa 0,0 l/m 7,6 km/h (2 Bft) O 86 0 min 0,000 mm 0,0 UV-I 0 W/m 3,8 C 3,0 C 11,3 km/h (2 Bft) 97,56 %
25.11.2018 23:20 4,1 C 4,4 C 3,9 C 98 % 1005,0 hPa 0,0 l/m 10,2 km/h (2 Bft) O-NO 78 0 min 0,000 mm 0,0 UV-I 0 W/m 3,8 C 0,9 C 14,5 km/h (3 Bft) 96,92 %
25.11.2018 23:22 4,1 C 4,4 C 3,9 C 98 % 1004,9 hPa 0,0 l/m 6,3 km/h (2 Bft) O 100 0 min 0,000 mm 0,0 UV-I 0 W/m 3,8 C 4,1 C 9,7 km/h (2 Bft) 97,87 %
25.11.2018 23:24 4,1 C 4,4 C 3,9 C 98 % 1004,9 hPa 0,0 l/m 8,0 km/h (2 Bft) O-NO 78 0 min 0,000 mm 0,0 UV-I 0 W/m 3,8 C 2,7 C 12,9 km/h (3 Bft) 95,74 %
25.11.2018 23:26 4,1 C 4,4 C 3,9 C 98 % 1004,9 hPa 0,0 l/m 8,9 km/h (2 Bft) O 97 0 min 0,000 mm 0,0 UV-I 0 W/m 3,8 C 1,9 C 12,9 km/h (3 Bft) 97,37 %
25.11.2018 23:28 4,1 C 4,4 C 3,9 C 98 % 1004,9 hPa 0,0 l/m 9,0 km/h (2 Bft) O 95 0 min 0,000 mm 0,0 UV-I 0 W/m 3,8 C 1,8 C 12,9 km/h (3 Bft) 98,11 %
25.11.2018 23:30 4,1 C 4,4 C 3,9 C 98 % 1004,9 hPa 0,0 l/m 6,1 km/h (2 Bft) O 87 0 min 0,000 mm 0,0 UV-I 0 W/m 3,8 C 4,1 C 9,7 km/h (2 Bft) 97,56 %
25.11.2018 23:32 4,1 C 4,4 C 3,9 C 98 % 1004,9 hPa 0,0 l/m 7,5 km/h (2 Bft) O 88 0 min 0,000 mm 0,0 UV-I 0 W/m 3,8 C 3,1 C 11,3 km/h (2 Bft) 96,00 %
25.11.2018 23:34 4,1 C 4,4 C 3,9 C 98 % 1004,9 hPa 0,0 l/m 7,3 km/h (2 Bft) O-SO 111 0 min 0,000 mm 0,0 UV-I 0 W/m 3,8 C 3,3 C 11,3 km/h (2 Bft) 97,73 %
25.11.2018 23:36 4,1 C 4,4 C 3,9 C 98 % 1004,9 hPa 0,0 l/m 8,3 km/h (2 Bft) O 90 0 min 0,000 mm 0,0 UV-I 0 W/m 3,8 C 2,4 C 12,9 km/h (3 Bft) 97,87 %
25.11.2018 23:38 4,1 C 4,4 C 3,9 C 98 % 1004,9 hPa 0,0 l/m 7,9 km/h (2 Bft) O-SO 105 0 min 0,000 mm 0,0 UV-I 0 W/m 3,8 C 2,7 C 14,5 km/h (3 Bft) 94,00 %
25.11.2018 23:40 4,1 C 4,4 C 3,9 C 98 % 1004,8 hPa 0,0 l/m 7,7 km/h (2 Bft) O 90 0 min 0,000 mm 0,0 UV-I 0 W/m 3,8 C 2,9 C 12,9 km/h (3 Bft) 97,87 %
25.11.2018 23:42 4,1 C 4,4 C 3,9 C 98 % 1004,8 hPa 0,0 l/m 7,0 km/h (2 Bft) O 94 0 min 0,000 mm 0,0 UV-I 0 W/m 3,8 C 3,6 C 11,3 km/h (2 Bft) 97,87 %
25.11.2018 23:44 4,1 C 4,4 C 3,9 C 98 % 1004,8 hPa 0,0 l/m 9,3 km/h (2 Bft) O 101 0 min 0,000 mm 0,0 UV-I 0 W/m 3,8 C 1,6 C 11,3 km/h (2 Bft) 97,62 %
25.11.2018 23:46 4,1 C 4,4 C 3,9 C 98 % 1004,8 hPa 0,0 l/m 6,4 km/h (2 Bft) O-SO 123 0 min 0,000 mm 0,0 UV-I 0 W/m 3,8 C 4,1 C 9,7 km/h (2 Bft) 98,08 %
25.11.2018 23:49 4,1 C 4,4 C 3,9 C 98 % 1004,7 hPa 0,0 l/m 5,3 km/h (1 Bft) O 98 0 min 0,000 mm 0,0 UV-I 0 W/m 3,8 C 4,1 C 9,7 km/h (2 Bft) 98,70 %
25.11.2018 23:50 4,1 C 4,4 C 3,9 C 98 % 1004,7 hPa 0,0 l/m 5,9 km/h (2 Bft) O 91 0 min 0,000 mm 0,0 UV-I 0 W/m 3,8 C 4,1 C 6,4 km/h (2 Bft) 91,67 %
25.11.2018 23:52 4,1 C 4,4 C 3,9 C 98 % 1004,7 hPa 0,0 l/m 8,1 km/h (2 Bft) O 96 0 min 0,000 mm 0,0 UV-I 0 W/m 3,8 C 2,6 C 12,9 km/h (3 Bft) 98,00 %
25.11.2018 23:54 4,1 C 4,4 C 3,9 C 98 % 1004,7 hPa 0,0 l/m 9,0 km/h (2 Bft) O 101 0 min 0,000 mm 0,0 UV-I 0 W/m 3,8 C 1,8 C 11,3 km/h (2 Bft) 95,74 %
25.11.2018 23:56 4,1 C 4,4 C 3,9 C 98 % 1004,7 hPa 0,0 l/m 7,5 km/h (2 Bft) O 88 0 min 0,000 mm 0,0 UV-I 0 W/m 3,8 C 3,1 C 11,3 km/h (2 Bft) 96,00 %
25.11.2018 23:58 4,1 C 4,4 C 3,9 C 98 % 1004,7 hPa 0,0 l/m 6,1 km/h (2 Bft) O-SO 110 0 min 0,000 mm 0,0 UV-I 0 W/m 3,8 C 4,1 C 9,7 km/h (2 Bft) 95,12 %
_ Min-Zeit 02:18 00:00 00:48 00:08 23:49 - 00:00 - - - - - - 02:18 13:16 00:00 00:28
Minimum _ -0,1 C 4,4 C -1,7 C 95 % 1004,7 hPa - 0,0 km/h (0 Bft) - - - - - - -0,5 C -5,9 C 0,0 km/h (0 Bft) 89,36 %
_ Max-Zeit 14:52 00:00 13:48 03:18 00:06 14:42 13:16 - - 00:00 11:00 00:00 11:26 14:52 22:28 13:02 00:50
Maximum _ 4,4 C 4,4 C 5,0 C 98 % 1014,7 hPa 0,2 l/m 23,1 km/h
O (4 Bft)
- - 0 min 0,026 mm 0,0 UV-I 69 W/m 4,1 C 4,2 C 32,2 km/h
O (5 Bft)
100,00 %
Durchschnitt _ 3,1 C 4,4 C 3,1 C 98 % 1009,3 hPa #0,8 l/m 9,3 km/h (2 Bft) O-NO - #0 min. #0,127 mm 0,0 UV-I 33 W/m 2,8 C 0,0 C 13,4 km/h (3 Bft) 97,38 %